<?xml version="1.0" encoding="UTF-8" standalone="no" ?>
<gpx xmlns="http://www.topografix.com/GPX/1/1" xmlns:xsi="http://www.w3.org/2001/XMLSchema-instance" xsi:schemaLocation="http://www.topografix.com/GPX/1/1 http://www.topografix.com/GPX/1/1/gpx.xsd" version="1.1" creator="VisuGPX - https://www.visugpx.com">
  <metadata>
    <name>pas de la couleta depuis fouillouse</name>
    <desc><![CDATA[
troisième  rando    séjour  CAF  saint Laurent du var  19 fev 2020]]></desc>
  </metadata>
  <trk>
    <name><![CDATA[Saint-Paul-sur-Ubaye Ascension]]></name>
    <trkseg>
      <trkpt lat="44.52578" lon="6.80544">
        <ele>1909</ele>
        <time>2020-02-19T07:50:58.000Z</time>
      </trkpt>
      <trkpt lat="44.52577" lon="6.80542">
        <ele>1909</ele>
        <time>2020-02-19T07:51:02.000Z</time>
      </trkpt>
      <trkpt lat="44.52577" lon="6.80536">
        <ele>1909</ele>
        <time>2020-02-19T07:51:11.000Z</time>
      </trkpt>
      <trkpt lat="44.52578" lon="6.80538">
        <ele>1909</ele>
        <time>2020-02-19T07:51:18.000Z</time>
      </trkpt>
      <trkpt lat="44.52577" lon="6.80538">
        <ele>1909</ele>
        <time>2020-02-19T07:51:24.000Z</time>
      </trkpt>
      <trkpt lat="44.52578" lon="6.80537">
        <ele>1909</ele>
        <time>2020-02-19T07:51:28.000Z</time>
      </trkpt>
      <trkpt lat="44.52585" lon="6.80545">
        <ele>1917</ele>
        <time>2020-02-19T07:51:32.000Z</time>
      </trkpt>
      <trkpt lat="44.5259" lon="6.80545">
        <ele>1918</ele>
        <time>2020-02-19T07:52:09.000Z</time>
      </trkpt>
      <trkpt lat="44.52593" lon="6.80545">
        <ele>1918</ele>
        <time>2020-02-19T07:52:18.000Z</time>
      </trkpt>
      <trkpt lat="44.52591" lon="6.80549">
        <ele>1918</ele>
        <time>2020-02-19T07:52:28.000Z</time>
      </trkpt>
      <trkpt lat="44.52595" lon="6.80553">
        <ele>1918</ele>
        <time>2020-02-19T07:52:38.000Z</time>
      </trkpt>
      <trkpt lat="44.5259" lon="6.80553">
        <ele>1918</ele>
        <time>2020-02-19T07:52:51.000Z</time>
      </trkpt>
      <trkpt lat="44.5259" lon="6.80553">
        <ele>1918</ele>
        <time>2020-02-19T07:52:53.000Z</time>
      </trkpt>
      <trkpt lat="44.52589" lon="6.80554">
        <ele>1917</ele>
        <time>2020-02-19T07:53:02.000Z</time>
      </trkpt>
      <trkpt lat="44.52588" lon="6.80553">
        <ele>1917</ele>
        <time>2020-02-19T07:53:07.000Z</time>
      </trkpt>
      <trkpt lat="44.52589" lon="6.80553">
        <ele>1917</ele>
        <time>2020-02-19T07:53:10.000Z</time>
      </trkpt>
      <trkpt lat="44.5259" lon="6.80552">
        <ele>1918</ele>
        <time>2020-02-19T07:53:18.000Z</time>
      </trkpt>
      <trkpt lat="44.52589" lon="6.80552">
        <ele>1917</ele>
        <time>2020-02-19T07:53:22.000Z</time>
      </trkpt>
      <trkpt lat="44.52587" lon="6.80553">
        <ele>1917</ele>
        <time>2020-02-19T07:53:43.000Z</time>
      </trkpt>
      <trkpt lat="44.52586" lon="6.80553">
        <ele>1917</ele>
        <time>2020-02-19T07:53:54.000Z</time>
      </trkpt>
      <trkpt lat="44.52584" lon="6.80553">
        <ele>1917</ele>
        <time>2020-02-19T07:54:01.000Z</time>
      </trkpt>
      <trkpt lat="44.52585" lon="6.80553">
        <ele>1917</ele>
        <time>2020-02-19T07:54:06.000Z</time>
      </trkpt>
      <trkpt lat="44.52587" lon="6.80552">
        <ele>1917</ele>
        <time>2020-02-19T07:54:10.000Z</time>
      </trkpt>
      <trkpt lat="44.52588" lon="6.80552">
        <ele>1917</ele>
        <time>2020-02-19T07:54:13.000Z</time>
      </trkpt>
      <trkpt lat="44.52588" lon="6.80553">
        <ele>1917</ele>
        <time>2020-02-19T07:54:28.000Z</time>
      </trkpt>
      <trkpt lat="44.52589" lon="6.80554">
        <ele>1917</ele>
        <time>2020-02-19T07:54:34.000Z</time>
      </trkpt>
      <trkpt lat="44.52589" lon="6.80554">
        <ele>1917</ele>
        <time>2020-02-19T07:54:36.000Z</time>
      </trkpt>
      <trkpt lat="44.52595" lon="6.80553">
        <ele>1918</ele>
        <time>2020-02-19T07:54:41.000Z</time>
      </trkpt>
      <trkpt lat="44.52595" lon="6.80553">
        <ele>1918</ele>
        <time>2020-02-19T07:54:44.000Z</time>
      </trkpt>
      <trkpt lat="44.52591" lon="6.80553">
        <ele>1918</ele>
        <time>2020-02-19T07:54:47.000Z</time>
      </trkpt>
      <trkpt lat="44.52589" lon="6.80555">
        <ele>1917</ele>
        <time>2020-02-19T07:54:56.000Z</time>
      </trkpt>
      <trkpt lat="44.5259" lon="6.80558">
        <ele>1917</ele>
        <time>2020-02-19T07:54:59.000Z</time>
      </trkpt>
      <trkpt lat="44.5259" lon="6.80564">
        <ele>1917</ele>
        <time>2020-02-19T07:55:05.000Z</time>
      </trkpt>
      <trkpt lat="44.5259" lon="6.80569">
        <ele>1916</ele>
        <time>2020-02-19T07:55:10.000Z</time>
      </trkpt>
      <trkpt lat="44.52593" lon="6.80573">
        <ele>1915</ele>
        <time>2020-02-19T07:55:17.000Z</time>
      </trkpt>
      <trkpt lat="44.52596" lon="6.80573">
        <ele>1916</ele>
        <time>2020-02-19T07:55:21.000Z</time>
      </trkpt>
      <trkpt lat="44.52596" lon="6.80575">
        <ele>1916</ele>
        <time>2020-02-19T07:55:24.000Z</time>
      </trkpt>
      <trkpt lat="44.52595" lon="6.80574">
        <ele>1916</ele>
        <time>2020-02-19T07:55:31.000Z</time>
      </trkpt>
      <trkpt lat="44.52587" lon="6.80575">
        <ele>1914</ele>
        <time>2020-02-19T07:55:44.000Z</time>
      </trkpt>
      <trkpt lat="44.52605" lon="6.80576">
        <ele>1918</ele>
        <time>2020-02-19T07:55:54.000Z</time>
      </trkpt>
      <trkpt lat="44.52604" lon="6.80575">
        <ele>1918</ele>
        <time>2020-02-19T07:55:59.000Z</time>
      </trkpt>
      <trkpt lat="44.52607" lon="6.80573">
        <ele>1919</ele>
        <time>2020-02-19T07:56:09.000Z</time>
      </trkpt>
      <trkpt lat="44.52602" lon="6.80572">
        <ele>1918</ele>
        <time>2020-02-19T07:56:26.000Z</time>
      </trkpt>
      <trkpt lat="44.52606" lon="6.80572">
        <ele>1919</ele>
        <time>2020-02-19T07:56:37.000Z</time>
      </trkpt>
      <trkpt lat="44.52626" lon="6.80572">
        <ele>1923</ele>
        <time>2020-02-19T07:56:47.000Z</time>
      </trkpt>
      <trkpt lat="44.52619" lon="6.80573">
        <ele>1922</ele>
        <time>2020-02-19T07:56:57.000Z</time>
      </trkpt>
      <trkpt lat="44.52623" lon="6.80573">
        <ele>1923</ele>
        <time>2020-02-19T07:57:00.000Z</time>
      </trkpt>
      <trkpt lat="44.52622" lon="6.80574">
        <ele>1922</ele>
        <time>2020-02-19T07:57:04.000Z</time>
      </trkpt>
      <trkpt lat="44.52598" lon="6.80576">
        <ele>1916</ele>
        <time>2020-02-19T07:57:23.000Z</time>
      </trkpt>
      <trkpt lat="44.52591" lon="6.80576">
        <ele>1914</ele>
        <time>2020-02-19T07:57:52.000Z</time>
      </trkpt>
      <trkpt lat="44.52593" lon="6.80575">
        <ele>1915</ele>
        <time>2020-02-19T07:57:55.000Z</time>
      </trkpt>
      <trkpt lat="44.52591" lon="6.80574">
        <ele>1915</ele>
        <time>2020-02-19T07:58:08.000Z</time>
      </trkpt>
      <trkpt lat="44.52591" lon="6.80572">
        <ele>1915</ele>
        <time>2020-02-19T07:58:19.000Z</time>
      </trkpt>
      <trkpt lat="44.52594" lon="6.80573">
        <ele>1916</ele>
        <time>2020-02-19T07:58:26.000Z</time>
      </trkpt>
      <trkpt lat="44.52597" lon="6.80573">
        <ele>1916</ele>
        <time>2020-02-19T07:58:32.000Z</time>
      </trkpt>
      <trkpt lat="44.52596" lon="6.80574">
        <ele>1916</ele>
        <time>2020-02-19T07:58:35.000Z</time>
      </trkpt>
      <trkpt lat="44.52598" lon="6.80577">
        <ele>1916</ele>
        <time>2020-02-19T07:58:46.000Z</time>
      </trkpt>
      <trkpt lat="44.52602" lon="6.80581">
        <ele>1917</ele>
        <time>2020-02-19T07:58:51.000Z</time>
      </trkpt>
      <trkpt lat="44.526" lon="6.80581">
        <ele>1917</ele>
        <time>2020-02-19T07:58:54.000Z</time>
      </trkpt>
      <trkpt lat="44.52588" lon="6.80578">
        <ele>1913</ele>
        <time>2020-02-19T07:59:12.000Z</time>
      </trkpt>
      <trkpt lat="44.52587" lon="6.80582">
        <ele>1912</ele>
        <time>2020-02-19T07:59:21.000Z</time>
      </trkpt>
      <trkpt lat="44.52589" lon="6.80585">
        <ele>1914</ele>
        <time>2020-02-19T07:59:25.000Z</time>
      </trkpt>
      <trkpt lat="44.52587" lon="6.80589">
        <ele>1914</ele>
        <time>2020-02-19T07:59:30.000Z</time>
      </trkpt>
      <trkpt lat="44.52583" lon="6.80601">
        <ele>1912</ele>
        <time>2020-02-19T07:59:40.000Z</time>
      </trkpt>
      <trkpt lat="44.52585" lon="6.80605">
        <ele>1919</ele>
        <time>2020-02-19T07:59:47.000Z</time>
      </trkpt>
      <trkpt lat="44.52583" lon="6.80607">
        <ele>1912</ele>
        <time>2020-02-19T07:59:54.000Z</time>
      </trkpt>
      <trkpt lat="44.52578" lon="6.80612">
        <ele>1912</ele>
        <time>2020-02-19T08:00:04.000Z</time>
      </trkpt>
      <trkpt lat="44.52578" lon="6.80614">
        <ele>1912</ele>
        <time>2020-02-19T08:00:07.000Z</time>
      </trkpt>
      <trkpt lat="44.52577" lon="6.80615">
        <ele>1913</ele>
        <time>2020-02-19T08:00:12.000Z</time>
      </trkpt>
      <trkpt lat="44.52576" lon="6.80616">
        <ele>1913</ele>
        <time>2020-02-19T08:00:19.000Z</time>
      </trkpt>
      <trkpt lat="44.52576" lon="6.80616">
        <ele>1913</ele>
        <time>2020-02-19T08:00:22.000Z</time>
      </trkpt>
      <trkpt lat="44.52577" lon="6.80614">
        <ele>1912</ele>
        <time>2020-02-19T08:00:29.000Z</time>
      </trkpt>
      <trkpt lat="44.52576" lon="6.80616">
        <ele>1913</ele>
        <time>2020-02-19T08:00:37.000Z</time>
      </trkpt>
      <trkpt lat="44.52573" lon="6.80624">
        <ele>1913</ele>
        <time>2020-02-19T08:00:43.000Z</time>
      </trkpt>
      <trkpt lat="44.52571" lon="6.80633">
        <ele>1914</ele>
        <time>2020-02-19T08:00:49.000Z</time>
      </trkpt>
      <trkpt lat="44.5257" lon="6.80641">
        <ele>1914</ele>
        <time>2020-02-19T08:00:54.000Z</time>
      </trkpt>
      <trkpt lat="44.52571" lon="6.80662">
        <ele>1916</ele>
        <time>2020-02-19T08:01:11.000Z</time>
      </trkpt>
      <trkpt lat="44.52565" lon="6.8068">
        <ele>1916</ele>
        <time>2020-02-19T08:01:23.000Z</time>
      </trkpt>
      <trkpt lat="44.52547" lon="6.80738">
        <ele>1915</ele>
        <time>2020-02-19T08:02:08.000Z</time>
      </trkpt>
      <trkpt lat="44.52546" lon="6.80742">
        <ele>1914</ele>
        <time>2020-02-19T08:02:13.000Z</time>
      </trkpt>
      <trkpt lat="44.52543" lon="6.80746">
        <ele>1914</ele>
        <time>2020-02-19T08:02:17.000Z</time>
      </trkpt>
      <trkpt lat="44.52524" lon="6.80763">
        <ele>1915</ele>
        <time>2020-02-19T08:02:33.000Z</time>
      </trkpt>
      <trkpt lat="44.52519" lon="6.8077">
        <ele>1915</ele>
        <time>2020-02-19T08:02:41.000Z</time>
      </trkpt>
      <trkpt lat="44.52514" lon="6.80773">
        <ele>1915</ele>
        <time>2020-02-19T08:02:48.000Z</time>
      </trkpt>
      <trkpt lat="44.52509" lon="6.80778">
        <ele>1915</ele>
        <time>2020-02-19T08:02:55.000Z</time>
      </trkpt>
      <trkpt lat="44.52496" lon="6.80785">
        <ele>1916</ele>
        <time>2020-02-19T08:03:07.000Z</time>
      </trkpt>
      <trkpt lat="44.52494" lon="6.80788">
        <ele>1917</ele>
        <time>2020-02-19T08:03:12.000Z</time>
      </trkpt>
      <trkpt lat="44.52488" lon="6.80796">
        <ele>1917</ele>
        <time>2020-02-19T08:03:25.000Z</time>
      </trkpt>
      <trkpt lat="44.52485" lon="6.80804">
        <ele>1918</ele>
        <time>2020-02-19T08:03:39.000Z</time>
      </trkpt>
      <trkpt lat="44.52471" lon="6.80821">
        <ele>1919</ele>
        <time>2020-02-19T08:04:01.000Z</time>
      </trkpt>
      <trkpt lat="44.5247" lon="6.80822">
        <ele>1919</ele>
        <time>2020-02-19T08:04:03.000Z</time>
      </trkpt>
      <trkpt lat="44.52468" lon="6.80824">
        <ele>1919</ele>
        <time>2020-02-19T08:04:06.000Z</time>
      </trkpt>
      <trkpt lat="44.52462" lon="6.8083">
        <ele>1919</ele>
        <time>2020-02-19T08:04:22.000Z</time>
      </trkpt>
      <trkpt lat="44.52453" lon="6.80833">
        <ele>1920</ele>
        <time>2020-02-19T08:04:33.000Z</time>
      </trkpt>
      <trkpt lat="44.52442" lon="6.80839">
        <ele>1924</ele>
        <time>2020-02-19T08:04:47.000Z</time>
      </trkpt>
      <trkpt lat="44.52432" lon="6.80843">
        <ele>1924</ele>
        <time>2020-02-19T08:04:58.000Z</time>
      </trkpt>
      <trkpt lat="44.52423" lon="6.80847">
        <ele>1924</ele>
        <time>2020-02-19T08:05:07.000Z</time>
      </trkpt>
      <trkpt lat="44.52419" lon="6.80851">
        <ele>1924</ele>
        <time>2020-02-19T08:05:14.000Z</time>
      </trkpt>
      <trkpt lat="44.52413" lon="6.80855">
        <ele>1929</ele>
        <time>2020-02-19T08:05:23.000Z</time>
      </trkpt>
      <trkpt lat="44.52407" lon="6.80863">
        <ele>1931</ele>
        <time>2020-02-19T08:05:47.000Z</time>
      </trkpt>
      <trkpt lat="44.52404" lon="6.8087">
        <ele>1931</ele>
        <time>2020-02-19T08:06:03.000Z</time>
      </trkpt>
      <trkpt lat="44.52404" lon="6.80869">
        <ele>1931</ele>
        <time>2020-02-19T08:06:13.000Z</time>
      </trkpt>
      <trkpt lat="44.52401" lon="6.80877">
        <ele>1932</ele>
        <time>2020-02-19T08:06:22.000Z</time>
      </trkpt>
      <trkpt lat="44.52392" lon="6.80887">
        <ele>1933</ele>
        <time>2020-02-19T08:06:34.000Z</time>
      </trkpt>
      <trkpt lat="44.52389" lon="6.80893">
        <ele>1933</ele>
        <time>2020-02-19T08:06:41.000Z</time>
      </trkpt>
      <trkpt lat="44.52391" lon="6.80897">
        <ele>1933</ele>
        <time>2020-02-19T08:06:47.000Z</time>
      </trkpt>
      <trkpt lat="44.52392" lon="6.80897">
        <ele>1933</ele>
        <time>2020-02-19T08:06:49.000Z</time>
      </trkpt>
      <trkpt lat="44.52389" lon="6.80905">
        <ele>1933</ele>
        <time>2020-02-19T08:06:57.000Z</time>
      </trkpt>
      <trkpt lat="44.52388" lon="6.8091">
        <ele>1933</ele>
        <time>2020-02-19T08:07:04.000Z</time>
      </trkpt>
      <trkpt lat="44.52387" lon="6.80915">
        <ele>1933</ele>
        <time>2020-02-19T08:07:09.000Z</time>
      </trkpt>
      <trkpt lat="44.52387" lon="6.80925">
        <ele>1937</ele>
        <time>2020-02-19T08:07:16.000Z</time>
      </trkpt>
      <trkpt lat="44.52386" lon="6.80931">
        <ele>1938</ele>
        <time>2020-02-19T08:07:22.000Z</time>
      </trkpt>
      <trkpt lat="44.52382" lon="6.80943">
        <ele>1939</ele>
        <time>2020-02-19T08:07:36.000Z</time>
      </trkpt>
      <trkpt lat="44.5238" lon="6.80946">
        <ele>1939</ele>
        <time>2020-02-19T08:07:40.000Z</time>
      </trkpt>
      <trkpt lat="44.5238" lon="6.80955">
        <ele>1940</ele>
        <time>2020-02-19T08:07:53.000Z</time>
      </trkpt>
      <trkpt lat="44.52374" lon="6.80962">
        <ele>1940</ele>
        <time>2020-02-19T08:08:04.000Z</time>
      </trkpt>
      <trkpt lat="44.52369" lon="6.80967">
        <ele>1941</ele>
        <time>2020-02-19T08:08:12.000Z</time>
      </trkpt>
      <trkpt lat="44.52362" lon="6.80983">
        <ele>1942</ele>
        <time>2020-02-19T08:08:31.000Z</time>
      </trkpt>
      <trkpt lat="44.52355" lon="6.80994">
        <ele>1943</ele>
        <time>2020-02-19T08:08:54.000Z</time>
      </trkpt>
      <trkpt lat="44.52349" lon="6.81001">
        <ele>1946</ele>
        <time>2020-02-19T08:09:04.000Z</time>
      </trkpt>
      <trkpt lat="44.52347" lon="6.81009">
        <ele>1947</ele>
        <time>2020-02-19T08:09:12.000Z</time>
      </trkpt>
      <trkpt lat="44.52345" lon="6.81015">
        <ele>1947</ele>
        <time>2020-02-19T08:09:20.000Z</time>
      </trkpt>
      <trkpt lat="44.52343" lon="6.81026">
        <ele>1948</ele>
        <time>2020-02-19T08:09:35.000Z</time>
      </trkpt>
      <trkpt lat="44.52339" lon="6.81037">
        <ele>1949</ele>
        <time>2020-02-19T08:09:50.000Z</time>
      </trkpt>
      <trkpt lat="44.52334" lon="6.81053">
        <ele>1951</ele>
        <time>2020-02-19T08:10:08.000Z</time>
      </trkpt>
      <trkpt lat="44.52329" lon="6.81073">
        <ele>1958</ele>
        <time>2020-02-19T08:10:30.000Z</time>
      </trkpt>
      <trkpt lat="44.52323" lon="6.81083">
        <ele>1958</ele>
        <time>2020-02-19T08:10:45.000Z</time>
      </trkpt>
      <trkpt lat="44.52321" lon="6.81091">
        <ele>1961</ele>
        <time>2020-02-19T08:10:53.000Z</time>
      </trkpt>
      <trkpt lat="44.52314" lon="6.81106">
        <ele>1962</ele>
        <time>2020-02-19T08:11:10.000Z</time>
      </trkpt>
      <trkpt lat="44.52312" lon="6.81108">
        <ele>1962</ele>
        <time>2020-02-19T08:11:12.000Z</time>
      </trkpt>
      <trkpt lat="44.5231" lon="6.81113">
        <ele>1962</ele>
        <time>2020-02-19T08:11:15.000Z</time>
      </trkpt>
      <trkpt lat="44.52308" lon="6.81117">
        <ele>1963</ele>
        <time>2020-02-19T08:11:19.000Z</time>
      </trkpt>
      <trkpt lat="44.52307" lon="6.81124">
        <ele>1963</ele>
        <time>2020-02-19T08:11:25.000Z</time>
      </trkpt>
      <trkpt lat="44.52305" lon="6.81128">
        <ele>1963</ele>
        <time>2020-02-19T08:11:28.000Z</time>
      </trkpt>
      <trkpt lat="44.52304" lon="6.81131">
        <ele>1963</ele>
        <time>2020-02-19T08:11:31.000Z</time>
      </trkpt>
      <trkpt lat="44.52301" lon="6.81135">
        <ele>1963</ele>
        <time>2020-02-19T08:11:37.000Z</time>
      </trkpt>
      <trkpt lat="44.52293" lon="6.81149">
        <ele>1964</ele>
        <time>2020-02-19T08:11:49.000Z</time>
      </trkpt>
      <trkpt lat="44.52286" lon="6.81163">
        <ele>1966</ele>
        <time>2020-02-19T08:11:57.000Z</time>
      </trkpt>
      <trkpt lat="44.52284" lon="6.81169">
        <ele>1970</ele>
        <time>2020-02-19T08:12:02.000Z</time>
      </trkpt>
      <trkpt lat="44.52276" lon="6.81177">
        <ele>1971</ele>
        <time>2020-02-19T08:12:13.000Z</time>
      </trkpt>
      <trkpt lat="44.52273" lon="6.81183">
        <ele>1971</ele>
        <time>2020-02-19T08:12:17.000Z</time>
      </trkpt>
      <trkpt lat="44.5227" lon="6.81191">
        <ele>1971</ele>
        <time>2020-02-19T08:12:23.000Z</time>
      </trkpt>
      <trkpt lat="44.52268" lon="6.81194">
        <ele>1972</ele>
        <time>2020-02-19T08:12:27.000Z</time>
      </trkpt>
      <trkpt lat="44.52266" lon="6.81198">
        <ele>1972</ele>
        <time>2020-02-19T08:12:32.000Z</time>
      </trkpt>
      <trkpt lat="44.52262" lon="6.81202">
        <ele>1972</ele>
        <time>2020-02-19T08:12:38.000Z</time>
      </trkpt>
      <trkpt lat="44.52254" lon="6.81211">
        <ele>1973</ele>
        <time>2020-02-19T08:12:50.000Z</time>
      </trkpt>
      <trkpt lat="44.5225" lon="6.81216">
        <ele>1974</ele>
        <time>2020-02-19T08:12:57.000Z</time>
      </trkpt>
      <trkpt lat="44.52243" lon="6.81222">
        <ele>1982</ele>
        <time>2020-02-19T08:13:06.000Z</time>
      </trkpt>
      <trkpt lat="44.52239" lon="6.81228">
        <ele>1982</ele>
        <time>2020-02-19T08:13:15.000Z</time>
      </trkpt>
      <trkpt lat="44.52232" lon="6.81235">
        <ele>1983</ele>
        <time>2020-02-19T08:13:24.000Z</time>
      </trkpt>
      <trkpt lat="44.5223" lon="6.81242">
        <ele>1983</ele>
        <time>2020-02-19T08:13:33.000Z</time>
      </trkpt>
      <trkpt lat="44.52224" lon="6.81248">
        <ele>1983</ele>
        <time>2020-02-19T08:13:42.000Z</time>
      </trkpt>
      <trkpt lat="44.52218" lon="6.81252">
        <ele>1988</ele>
        <time>2020-02-19T08:13:49.000Z</time>
      </trkpt>
      <trkpt lat="44.52216" lon="6.81255">
        <ele>1988</ele>
        <time>2020-02-19T08:13:54.000Z</time>
      </trkpt>
      <trkpt lat="44.52207" lon="6.81269">
        <ele>1989</ele>
        <time>2020-02-19T08:14:09.000Z</time>
      </trkpt>
      <trkpt lat="44.52206" lon="6.81274">
        <ele>1989</ele>
        <time>2020-02-19T08:14:14.000Z</time>
      </trkpt>
      <trkpt lat="44.52203" lon="6.81277">
        <ele>1989</ele>
        <time>2020-02-19T08:14:17.000Z</time>
      </trkpt>
      <trkpt lat="44.52196" lon="6.81287">
        <ele>1990</ele>
        <time>2020-02-19T08:14:30.000Z</time>
      </trkpt>
      <trkpt lat="44.52193" lon="6.81291">
        <ele>1990</ele>
        <time>2020-02-19T08:14:34.000Z</time>
      </trkpt>
      <trkpt lat="44.52187" lon="6.81298">
        <ele>1991</ele>
        <time>2020-02-19T08:14:42.000Z</time>
      </trkpt>
      <trkpt lat="44.52187" lon="6.81302">
        <ele>1991</ele>
        <time>2020-02-19T08:14:47.000Z</time>
      </trkpt>
      <trkpt lat="44.52185" lon="6.8131">
        <ele>1992</ele>
        <time>2020-02-19T08:14:54.000Z</time>
      </trkpt>
      <trkpt lat="44.52181" lon="6.81318">
        <ele>1993</ele>
        <time>2020-02-19T08:15:02.000Z</time>
      </trkpt>
      <trkpt lat="44.52176" lon="6.81321">
        <ele>1995</ele>
        <time>2020-02-19T08:15:09.000Z</time>
      </trkpt>
      <trkpt lat="44.52173" lon="6.81323">
        <ele>1995</ele>
        <time>2020-02-19T08:15:12.000Z</time>
      </trkpt>
      <trkpt lat="44.52165" lon="6.81326">
        <ele>1999</ele>
        <time>2020-02-19T08:15:21.000Z</time>
      </trkpt>
      <trkpt lat="44.52164" lon="6.8133">
        <ele>2000</ele>
        <time>2020-02-19T08:15:27.000Z</time>
      </trkpt>
      <trkpt lat="44.52163" lon="6.81332">
        <ele>2000</ele>
        <time>2020-02-19T08:15:31.000Z</time>
      </trkpt>
      <trkpt lat="44.52144" lon="6.81342">
        <ele>2001</ele>
        <time>2020-02-19T08:15:44.000Z</time>
      </trkpt>
      <trkpt lat="44.5214" lon="6.81346">
        <ele>2001</ele>
        <time>2020-02-19T08:15:51.000Z</time>
      </trkpt>
      <trkpt lat="44.52132" lon="6.81349">
        <ele>2002</ele>
        <time>2020-02-19T08:15:57.000Z</time>
      </trkpt>
      <trkpt lat="44.52128" lon="6.81354">
        <ele>2002</ele>
        <time>2020-02-19T08:16:03.000Z</time>
      </trkpt>
      <trkpt lat="44.52127" lon="6.81352">
        <ele>2002</ele>
        <time>2020-02-19T08:16:09.000Z</time>
      </trkpt>
      <trkpt lat="44.52129" lon="6.81355">
        <ele>2002</ele>
        <time>2020-02-19T08:16:18.000Z</time>
      </trkpt>
      <trkpt lat="44.52131" lon="6.81355">
        <ele>2002</ele>
        <time>2020-02-19T08:16:23.000Z</time>
      </trkpt>
      <trkpt lat="44.52132" lon="6.81355">
        <ele>2002</ele>
        <time>2020-02-19T08:16:45.000Z</time>
      </trkpt>
      <trkpt lat="44.52127" lon="6.81349">
        <ele>2002</ele>
        <time>2020-02-19T08:16:56.000Z</time>
      </trkpt>
      <trkpt lat="44.52121" lon="6.81349">
        <ele>2002</ele>
        <time>2020-02-19T08:17:01.000Z</time>
      </trkpt>
      <trkpt lat="44.52132" lon="6.81357">
        <ele>2002</ele>
        <time>2020-02-19T08:17:09.000Z</time>
      </trkpt>
      <trkpt lat="44.52135" lon="6.81356">
        <ele>2002</ele>
        <time>2020-02-19T08:17:15.000Z</time>
      </trkpt>
      <trkpt lat="44.52133" lon="6.81355">
        <ele>2002</ele>
        <time>2020-02-19T08:17:21.000Z</time>
      </trkpt>
      <trkpt lat="44.5213" lon="6.81356">
        <ele>2002</ele>
        <time>2020-02-19T08:17:40.000Z</time>
      </trkpt>
      <trkpt lat="44.52128" lon="6.8136">
        <ele>2002</ele>
        <time>2020-02-19T08:17:48.000Z</time>
      </trkpt>
      <trkpt lat="44.52123" lon="6.8136">
        <ele>2002</ele>
        <time>2020-02-19T08:17:53.000Z</time>
      </trkpt>
      <trkpt lat="44.52121" lon="6.8136">
        <ele>2002</ele>
        <time>2020-02-19T08:18:05.000Z</time>
      </trkpt>
      <trkpt lat="44.52123" lon="6.81357">
        <ele>2002</ele>
        <time>2020-02-19T08:18:30.000Z</time>
      </trkpt>
      <trkpt lat="44.52136" lon="6.81352">
        <ele>2001</ele>
        <time>2020-02-19T08:18:50.000Z</time>
      </trkpt>
      <trkpt lat="44.52141" lon="6.81358">
        <ele>2001</ele>
        <time>2020-02-19T08:19:00.000Z</time>
      </trkpt>
      <trkpt lat="44.52134" lon="6.81361">
        <ele>2002</ele>
        <time>2020-02-19T08:19:12.000Z</time>
      </trkpt>
      <trkpt lat="44.52136" lon="6.8136">
        <ele>2001</ele>
        <time>2020-02-19T08:19:26.000Z</time>
      </trkpt>
      <trkpt lat="44.52126" lon="6.81355">
        <ele>2002</ele>
        <time>2020-02-19T08:19:42.000Z</time>
      </trkpt>
      <trkpt lat="44.52128" lon="6.81357">
        <ele>2002</ele>
        <time>2020-02-19T08:19:52.000Z</time>
      </trkpt>
      <trkpt lat="44.5213" lon="6.81353">
        <ele>2002</ele>
        <time>2020-02-19T08:19:56.000Z</time>
      </trkpt>
      <trkpt lat="44.52123" lon="6.81347">
        <ele>2002</ele>
        <time>2020-02-19T08:20:08.000Z</time>
      </trkpt>
      <trkpt lat="44.52111" lon="6.81343">
        <ele>2003</ele>
        <time>2020-02-19T08:20:21.000Z</time>
      </trkpt>
      <trkpt lat="44.52113" lon="6.81345">
        <ele>2003</ele>
        <time>2020-02-19T08:20:25.000Z</time>
      </trkpt>
      <trkpt lat="44.52121" lon="6.81349">
        <ele>2002</ele>
        <time>2020-02-19T08:20:30.000Z</time>
      </trkpt>
      <trkpt lat="44.52121" lon="6.81353">
        <ele>2002</ele>
        <time>2020-02-19T08:20:44.000Z</time>
      </trkpt>
      <trkpt lat="44.52128" lon="6.81345">
        <ele>2002</ele>
        <time>2020-02-19T08:20:55.000Z</time>
      </trkpt>
      <trkpt lat="44.52127" lon="6.81346">
        <ele>2002</ele>
        <time>2020-02-19T08:20:58.000Z</time>
      </trkpt>
      <trkpt lat="44.52135" lon="6.81352">
        <ele>2002</ele>
        <time>2020-02-19T08:21:08.000Z</time>
      </trkpt>
      <trkpt lat="44.5213" lon="6.81357">
        <ele>2002</ele>
        <time>2020-02-19T08:21:25.000Z</time>
      </trkpt>
      <trkpt lat="44.52125" lon="6.81358">
        <ele>2002</ele>
        <time>2020-02-19T08:21:28.000Z</time>
      </trkpt>
      <trkpt lat="44.52124" lon="6.81351">
        <ele>2002</ele>
        <time>2020-02-19T08:21:53.000Z</time>
      </trkpt>
      <trkpt lat="44.52129" lon="6.8135">
        <ele>2002</ele>
        <time>2020-02-19T08:22:00.000Z</time>
      </trkpt>
      <trkpt lat="44.5213" lon="6.81349">
        <ele>2002</ele>
        <time>2020-02-19T08:22:02.000Z</time>
      </trkpt>
      <trkpt lat="44.52129" lon="6.81349">
        <ele>2002</ele>
        <time>2020-02-19T08:22:05.000Z</time>
      </trkpt>
      <trkpt lat="44.52131" lon="6.81353">
        <ele>2002</ele>
        <time>2020-02-19T08:22:11.000Z</time>
      </trkpt>
      <trkpt lat="44.52133" lon="6.81361">
        <ele>2002</ele>
        <time>2020-02-19T08:22:26.000Z</time>
      </trkpt>
      <trkpt lat="44.5213" lon="6.81358">
        <ele>2002</ele>
        <time>2020-02-19T08:22:31.000Z</time>
      </trkpt>
      <trkpt lat="44.5213" lon="6.81355">
        <ele>2002</ele>
        <time>2020-02-19T08:22:35.000Z</time>
      </trkpt>
      <trkpt lat="44.52129" lon="6.81353">
        <ele>2002</ele>
        <time>2020-02-19T08:22:41.000Z</time>
      </trkpt>
      <trkpt lat="44.52124" lon="6.81352">
        <ele>2002</ele>
        <time>2020-02-19T08:22:49.000Z</time>
      </trkpt>
      <trkpt lat="44.52122" lon="6.8135">
        <ele>2002</ele>
        <time>2020-02-19T08:22:55.000Z</time>
      </trkpt>
      <trkpt lat="44.52132" lon="6.81358">
        <ele>2002</ele>
        <time>2020-02-19T08:23:04.000Z</time>
      </trkpt>
      <trkpt lat="44.52126" lon="6.81355">
        <ele>2002</ele>
        <time>2020-02-19T08:23:20.000Z</time>
      </trkpt>
      <trkpt lat="44.52135" lon="6.81361">
        <ele>2001</ele>
        <time>2020-02-19T08:23:25.000Z</time>
      </trkpt>
      <trkpt lat="44.52133" lon="6.81361">
        <ele>2002</ele>
        <time>2020-02-19T08:23:28.000Z</time>
      </trkpt>
      <trkpt lat="44.52129" lon="6.8136">
        <ele>2002</ele>
        <time>2020-02-19T08:23:33.000Z</time>
      </trkpt>
      <trkpt lat="44.52128" lon="6.81361">
        <ele>2002</ele>
        <time>2020-02-19T08:23:36.000Z</time>
      </trkpt>
      <trkpt lat="44.52129" lon="6.8136">
        <ele>2002</ele>
        <time>2020-02-19T08:23:41.000Z</time>
      </trkpt>
      <trkpt lat="44.52128" lon="6.8136">
        <ele>2002</ele>
        <time>2020-02-19T08:23:45.000Z</time>
      </trkpt>
      <trkpt lat="44.52131" lon="6.81357">
        <ele>2002</ele>
        <time>2020-02-19T08:23:51.000Z</time>
      </trkpt>
      <trkpt lat="44.52131" lon="6.8135">
        <ele>2002</ele>
        <time>2020-02-19T08:23:58.000Z</time>
      </trkpt>
      <trkpt lat="44.52128" lon="6.81346">
        <ele>2002</ele>
        <time>2020-02-19T08:24:01.000Z</time>
      </trkpt>
      <trkpt lat="44.52126" lon="6.81346">
        <ele>2002</ele>
        <time>2020-02-19T08:24:03.000Z</time>
      </trkpt>
      <trkpt lat="44.52124" lon="6.81355">
        <ele>2002</ele>
        <time>2020-02-19T08:24:24.000Z</time>
      </trkpt>
      <trkpt lat="44.52125" lon="6.81354">
        <ele>2002</ele>
        <time>2020-02-19T08:24:27.000Z</time>
      </trkpt>
      <trkpt lat="44.52125" lon="6.81355">
        <ele>2002</ele>
        <time>2020-02-19T08:24:36.000Z</time>
      </trkpt>
      <trkpt lat="44.52122" lon="6.81354">
        <ele>2002</ele>
        <time>2020-02-19T08:24:41.000Z</time>
      </trkpt>
      <trkpt lat="44.5212" lon="6.81354">
        <ele>2002</ele>
        <time>2020-02-19T08:24:48.000Z</time>
      </trkpt>
      <trkpt lat="44.52126" lon="6.81357">
        <ele>2002</ele>
        <time>2020-02-19T08:24:55.000Z</time>
      </trkpt>
      <trkpt lat="44.52126" lon="6.81357">
        <ele>2002</ele>
        <time>2020-02-19T08:24:58.000Z</time>
      </trkpt>
      <trkpt lat="44.52122" lon="6.81354">
        <ele>2002</ele>
        <time>2020-02-19T08:25:02.000Z</time>
      </trkpt>
      <trkpt lat="44.5211" lon="6.8134">
        <ele>2003</ele>
        <time>2020-02-19T08:25:16.000Z</time>
      </trkpt>
      <trkpt lat="44.52116" lon="6.81348">
        <ele>2003</ele>
        <time>2020-02-19T08:25:24.000Z</time>
      </trkpt>
      <trkpt lat="44.5212" lon="6.81352">
        <ele>2002</ele>
        <time>2020-02-19T08:25:27.000Z</time>
      </trkpt>
      <trkpt lat="44.52119" lon="6.81357">
        <ele>2002</ele>
        <time>2020-02-19T08:25:42.000Z</time>
      </trkpt>
      <trkpt lat="44.5212" lon="6.8136">
        <ele>2002</ele>
        <time>2020-02-19T08:25:48.000Z</time>
      </trkpt>
      <trkpt lat="44.52119" lon="6.81359">
        <ele>2002</ele>
        <time>2020-02-19T08:25:54.000Z</time>
      </trkpt>
      <trkpt lat="44.52118" lon="6.81356">
        <ele>2003</ele>
        <time>2020-02-19T08:26:04.000Z</time>
      </trkpt>
      <trkpt lat="44.52119" lon="6.81357">
        <ele>2003</ele>
        <time>2020-02-19T08:26:07.000Z</time>
      </trkpt>
      <trkpt lat="44.52114" lon="6.81358">
        <ele>2003</ele>
        <time>2020-02-19T08:26:33.000Z</time>
      </trkpt>
      <trkpt lat="44.52113" lon="6.81358">
        <ele>2003</ele>
        <time>2020-02-19T08:26:36.000Z</time>
      </trkpt>
      <trkpt lat="44.52111" lon="6.8136">
        <ele>2003</ele>
        <time>2020-02-19T08:26:40.000Z</time>
      </trkpt>
      <trkpt lat="44.52111" lon="6.81362">
        <ele>2003</ele>
        <time>2020-02-19T08:26:44.000Z</time>
      </trkpt>
      <trkpt lat="44.52107" lon="6.81363">
        <ele>2003</ele>
        <time>2020-02-19T08:26:49.000Z</time>
      </trkpt>
      <trkpt lat="44.52107" lon="6.81364">
        <ele>2003</ele>
        <time>2020-02-19T08:26:51.000Z</time>
      </trkpt>
      <trkpt lat="44.52102" lon="6.81366">
        <ele>2004</ele>
        <time>2020-02-19T08:27:11.000Z</time>
      </trkpt>
      <trkpt lat="44.52101" lon="6.81368">
        <ele>2004</ele>
        <time>2020-02-19T08:27:15.000Z</time>
      </trkpt>
      <trkpt lat="44.52097" lon="6.81372">
        <ele>2004</ele>
        <time>2020-02-19T08:27:22.000Z</time>
      </trkpt>
      <trkpt lat="44.5209" lon="6.81376">
        <ele>2005</ele>
        <time>2020-02-19T08:27:33.000Z</time>
      </trkpt>
      <trkpt lat="44.52087" lon="6.81382">
        <ele>2005</ele>
        <time>2020-02-19T08:27:38.000Z</time>
      </trkpt>
      <trkpt lat="44.52086" lon="6.81383">
        <ele>2005</ele>
        <time>2020-02-19T08:27:40.000Z</time>
      </trkpt>
      <trkpt lat="44.52084" lon="6.81386">
        <ele>2006</ele>
        <time>2020-02-19T08:27:44.000Z</time>
      </trkpt>
      <trkpt lat="44.52078" lon="6.81391">
        <ele>2010</ele>
        <time>2020-02-19T08:27:52.000Z</time>
      </trkpt>
      <trkpt lat="44.52074" lon="6.81394">
        <ele>2011</ele>
        <time>2020-02-19T08:27:57.000Z</time>
      </trkpt>
      <trkpt lat="44.52069" lon="6.81395">
        <ele>2011</ele>
        <time>2020-02-19T08:28:02.000Z</time>
      </trkpt>
      <trkpt lat="44.52062" lon="6.81402">
        <ele>2011</ele>
        <time>2020-02-19T08:28:10.000Z</time>
      </trkpt>
      <trkpt lat="44.52056" lon="6.81409">
        <ele>2011</ele>
        <time>2020-02-19T08:28:15.000Z</time>
      </trkpt>
      <trkpt lat="44.52052" lon="6.81415">
        <ele>2011</ele>
        <time>2020-02-19T08:28:23.000Z</time>
      </trkpt>
      <trkpt lat="44.52049" lon="6.81418">
        <ele>2015</ele>
        <time>2020-02-19T08:28:26.000Z</time>
      </trkpt>
      <trkpt lat="44.52046" lon="6.81421">
        <ele>2015</ele>
        <time>2020-02-19T08:28:30.000Z</time>
      </trkpt>
      <trkpt lat="44.52043" lon="6.81431">
        <ele>2015</ele>
        <time>2020-02-19T08:28:38.000Z</time>
      </trkpt>
      <trkpt lat="44.5204" lon="6.81439">
        <ele>2015</ele>
        <time>2020-02-19T08:28:43.000Z</time>
      </trkpt>
      <trkpt lat="44.52035" lon="6.81451">
        <ele>2015</ele>
        <time>2020-02-19T08:28:51.000Z</time>
      </trkpt>
      <trkpt lat="44.52035" lon="6.81459">
        <ele>2016</ele>
        <time>2020-02-19T08:28:58.000Z</time>
      </trkpt>
      <trkpt lat="44.52036" lon="6.8147">
        <ele>2016</ele>
        <time>2020-02-19T08:29:06.000Z</time>
      </trkpt>
      <trkpt lat="44.52037" lon="6.81477">
        <ele>2016</ele>
        <time>2020-02-19T08:29:12.000Z</time>
      </trkpt>
      <trkpt lat="44.52037" lon="6.81484">
        <ele>2016</ele>
        <time>2020-02-19T08:29:18.000Z</time>
      </trkpt>
      <trkpt lat="44.52036" lon="6.81492">
        <ele>2016</ele>
        <time>2020-02-19T08:29:24.000Z</time>
      </trkpt>
      <trkpt lat="44.52034" lon="6.81505">
        <ele>2019</ele>
        <time>2020-02-19T08:29:34.000Z</time>
      </trkpt>
      <trkpt lat="44.52033" lon="6.81509">
        <ele>2019</ele>
        <time>2020-02-19T08:29:39.000Z</time>
      </trkpt>
      <trkpt lat="44.52028" lon="6.81526">
        <ele>2019</ele>
        <time>2020-02-19T08:29:51.000Z</time>
      </trkpt>
      <trkpt lat="44.52028" lon="6.81533">
        <ele>2020</ele>
        <time>2020-02-19T08:29:55.000Z</time>
      </trkpt>
      <trkpt lat="44.52028" lon="6.81537">
        <ele>2020</ele>
        <time>2020-02-19T08:29:57.000Z</time>
      </trkpt>
      <trkpt lat="44.52028" lon="6.81542">
        <ele>2020</ele>
        <time>2020-02-19T08:30:01.000Z</time>
      </trkpt>
      <trkpt lat="44.52028" lon="6.81555">
        <ele>2021</ele>
        <time>2020-02-19T08:30:11.000Z</time>
      </trkpt>
      <trkpt lat="44.52025" lon="6.81562">
        <ele>2022</ele>
        <time>2020-02-19T08:30:15.000Z</time>
      </trkpt>
      <trkpt lat="44.5202" lon="6.8157">
        <ele>2024</ele>
        <time>2020-02-19T08:30:21.000Z</time>
      </trkpt>
      <trkpt lat="44.52015" lon="6.81577">
        <ele>2026</ele>
        <time>2020-02-19T08:30:27.000Z</time>
      </trkpt>
      <trkpt lat="44.52011" lon="6.81579">
        <ele>2027</ele>
        <time>2020-02-19T08:30:33.000Z</time>
      </trkpt>
      <trkpt lat="44.52008" lon="6.8158">
        <ele>2029</ele>
        <time>2020-02-19T08:30:36.000Z</time>
      </trkpt>
      <trkpt lat="44.52004" lon="6.81583">
        <ele>2031</ele>
        <time>2020-02-19T08:30:40.000Z</time>
      </trkpt>
      <trkpt lat="44.51998" lon="6.81583">
        <ele>2033</ele>
        <time>2020-02-19T08:30:45.000Z</time>
      </trkpt>
      <trkpt lat="44.51993" lon="6.81583">
        <ele>2033</ele>
        <time>2020-02-19T08:30:50.000Z</time>
      </trkpt>
      <trkpt lat="44.51989" lon="6.81582">
        <ele>2033</ele>
        <time>2020-02-19T08:30:54.000Z</time>
      </trkpt>
      <trkpt lat="44.51985" lon="6.8158">
        <ele>2033</ele>
        <time>2020-02-19T08:31:00.000Z</time>
      </trkpt>
      <trkpt lat="44.51983" lon="6.81583">
        <ele>2033</ele>
        <time>2020-02-19T08:31:10.000Z</time>
      </trkpt>
      <trkpt lat="44.51981" lon="6.81583">
        <ele>2033</ele>
        <time>2020-02-19T08:31:13.000Z</time>
      </trkpt>
      <trkpt lat="44.51981" lon="6.81585">
        <ele>2039</ele>
        <time>2020-02-19T08:31:15.000Z</time>
      </trkpt>
      <trkpt lat="44.51982" lon="6.81597">
        <ele>2039</ele>
        <time>2020-02-19T08:31:27.000Z</time>
      </trkpt>
      <trkpt lat="44.51983" lon="6.81604">
        <ele>2040</ele>
        <time>2020-02-19T08:31:36.000Z</time>
      </trkpt>
      <trkpt lat="44.51982" lon="6.81607">
        <ele>2041</ele>
        <time>2020-02-19T08:31:40.000Z</time>
      </trkpt>
      <trkpt lat="44.51979" lon="6.81611">
        <ele>2041</ele>
        <time>2020-02-19T08:31:47.000Z</time>
      </trkpt>
      <trkpt lat="44.51971" lon="6.81612">
        <ele>2042</ele>
        <time>2020-02-19T08:31:59.000Z</time>
      </trkpt>
      <trkpt lat="44.51968" lon="6.81609">
        <ele>2042</ele>
        <time>2020-02-19T08:32:04.000Z</time>
      </trkpt>
      <trkpt lat="44.51964" lon="6.81607">
        <ele>2043</ele>
        <time>2020-02-19T08:32:09.000Z</time>
      </trkpt>
      <trkpt lat="44.51957" lon="6.81604">
        <ele>2043</ele>
        <time>2020-02-19T08:32:19.000Z</time>
      </trkpt>
      <trkpt lat="44.51951" lon="6.81601">
        <ele>2043</ele>
        <time>2020-02-19T08:32:26.000Z</time>
      </trkpt>
      <trkpt lat="44.51946" lon="6.81599">
        <ele>2044</ele>
        <time>2020-02-19T08:32:32.000Z</time>
      </trkpt>
      <trkpt lat="44.51944" lon="6.816">
        <ele>2044</ele>
        <time>2020-02-19T08:32:36.000Z</time>
      </trkpt>
      <trkpt lat="44.51945" lon="6.81606">
        <ele>2044</ele>
        <time>2020-02-19T08:32:44.000Z</time>
      </trkpt>
      <trkpt lat="44.51943" lon="6.81613">
        <ele>2045</ele>
        <time>2020-02-19T08:32:57.000Z</time>
      </trkpt>
      <trkpt lat="44.51947" lon="6.81611">
        <ele>2044</ele>
        <time>2020-02-19T08:33:09.000Z</time>
      </trkpt>
      <trkpt lat="44.51948" lon="6.81609">
        <ele>2044</ele>
        <time>2020-02-19T08:33:13.000Z</time>
      </trkpt>
      <trkpt lat="44.51949" lon="6.81609">
        <ele>2044</ele>
        <time>2020-02-19T08:33:16.000Z</time>
      </trkpt>
      <trkpt lat="44.51951" lon="6.81611">
        <ele>2044</ele>
        <time>2020-02-19T08:33:21.000Z</time>
      </trkpt>
      <trkpt lat="44.51951" lon="6.81619">
        <ele>2044</ele>
        <time>2020-02-19T08:33:28.000Z</time>
      </trkpt>
      <trkpt lat="44.51949" lon="6.81626">
        <ele>2045</ele>
        <time>2020-02-19T08:33:33.000Z</time>
      </trkpt>
      <trkpt lat="44.51946" lon="6.8163">
        <ele>2046</ele>
        <time>2020-02-19T08:33:39.000Z</time>
      </trkpt>
      <trkpt lat="44.51943" lon="6.8163">
        <ele>2046</ele>
        <time>2020-02-19T08:33:44.000Z</time>
      </trkpt>
      <trkpt lat="44.5194" lon="6.8163">
        <ele>2046</ele>
        <time>2020-02-19T08:33:49.000Z</time>
      </trkpt>
      <trkpt lat="44.51934" lon="6.81629">
        <ele>2047</ele>
        <time>2020-02-19T08:33:57.000Z</time>
      </trkpt>
      <trkpt lat="44.51929" lon="6.81626">
        <ele>2047</ele>
        <time>2020-02-19T08:34:02.000Z</time>
      </trkpt>
      <trkpt lat="44.51934" lon="6.81641">
        <ele>2048</ele>
        <time>2020-02-19T08:34:24.000Z</time>
      </trkpt>
      <trkpt lat="44.51927" lon="6.81641">
        <ele>2049</ele>
        <time>2020-02-19T08:34:32.000Z</time>
      </trkpt>
      <trkpt lat="44.51922" lon="6.8164">
        <ele>2049</ele>
        <time>2020-02-19T08:34:37.000Z</time>
      </trkpt>
      <trkpt lat="44.5191" lon="6.81641">
        <ele>2053</ele>
        <time>2020-02-19T08:34:50.000Z</time>
      </trkpt>
      <trkpt lat="44.51904" lon="6.81642">
        <ele>2052</ele>
        <time>2020-02-19T08:34:56.000Z</time>
      </trkpt>
      <trkpt lat="44.51902" lon="6.81643">
        <ele>2052</ele>
        <time>2020-02-19T08:35:00.000Z</time>
      </trkpt>
      <trkpt lat="44.51897" lon="6.8165">
        <ele>2053</ele>
        <time>2020-02-19T08:35:11.000Z</time>
      </trkpt>
      <trkpt lat="44.51893" lon="6.81656">
        <ele>2053</ele>
        <time>2020-02-19T08:35:19.000Z</time>
      </trkpt>
      <trkpt lat="44.51891" lon="6.81658">
        <ele>2053</ele>
        <time>2020-02-19T08:35:21.000Z</time>
      </trkpt>
      <trkpt lat="44.51888" lon="6.81671">
        <ele>2062</ele>
        <time>2020-02-19T08:35:36.000Z</time>
      </trkpt>
      <trkpt lat="44.51895" lon="6.81679">
        <ele>2063</ele>
        <time>2020-02-19T08:35:48.000Z</time>
      </trkpt>
      <trkpt lat="44.519" lon="6.81688">
        <ele>2063</ele>
        <time>2020-02-19T08:36:00.000Z</time>
      </trkpt>
      <trkpt lat="44.51904" lon="6.81711">
        <ele>2066</ele>
        <time>2020-02-19T08:36:22.000Z</time>
      </trkpt>
      <trkpt lat="44.51901" lon="6.81715">
        <ele>2066</ele>
        <time>2020-02-19T08:36:31.000Z</time>
      </trkpt>
      <trkpt lat="44.5189" lon="6.81719">
        <ele>2067</ele>
        <time>2020-02-19T08:36:45.000Z</time>
      </trkpt>
      <trkpt lat="44.51884" lon="6.81716">
        <ele>2066</ele>
        <time>2020-02-19T08:36:51.000Z</time>
      </trkpt>
      <trkpt lat="44.51874" lon="6.81719">
        <ele>2067</ele>
        <time>2020-02-19T08:37:10.000Z</time>
      </trkpt>
      <trkpt lat="44.51872" lon="6.81731">
        <ele>2068</ele>
        <time>2020-02-19T08:37:20.000Z</time>
      </trkpt>
      <trkpt lat="44.51871" lon="6.81746">
        <ele>2069</ele>
        <time>2020-02-19T08:37:35.000Z</time>
      </trkpt>
      <trkpt lat="44.51867" lon="6.8176">
        <ele>2079</ele>
        <time>2020-02-19T08:37:52.000Z</time>
      </trkpt>
      <trkpt lat="44.51859" lon="6.81761">
        <ele>2078</ele>
        <time>2020-02-19T08:38:03.000Z</time>
      </trkpt>
      <trkpt lat="44.51856" lon="6.81761">
        <ele>2078</ele>
        <time>2020-02-19T08:38:06.000Z</time>
      </trkpt>
      <trkpt lat="44.51848" lon="6.81759">
        <ele>2078</ele>
        <time>2020-02-19T08:38:14.000Z</time>
      </trkpt>
      <trkpt lat="44.51837" lon="6.81759">
        <ele>2077</ele>
        <time>2020-02-19T08:38:29.000Z</time>
      </trkpt>
      <trkpt lat="44.51829" lon="6.8177">
        <ele>2078</ele>
        <time>2020-02-19T08:38:44.000Z</time>
      </trkpt>
      <trkpt lat="44.51825" lon="6.81778">
        <ele>2079</ele>
        <time>2020-02-19T08:38:53.000Z</time>
      </trkpt>
      <trkpt lat="44.51824" lon="6.81786">
        <ele>2080</ele>
        <time>2020-02-19T08:39:02.000Z</time>
      </trkpt>
      <trkpt lat="44.5183" lon="6.818">
        <ele>2083</ele>
        <time>2020-02-19T08:39:17.000Z</time>
      </trkpt>
      <trkpt lat="44.51827" lon="6.81812">
        <ele>2085</ele>
        <time>2020-02-19T08:39:34.000Z</time>
      </trkpt>
      <trkpt lat="44.51826" lon="6.81816">
        <ele>2086</ele>
        <time>2020-02-19T08:39:38.000Z</time>
      </trkpt>
      <trkpt lat="44.51823" lon="6.81823">
        <ele>2087</ele>
        <time>2020-02-19T08:39:50.000Z</time>
      </trkpt>
      <trkpt lat="44.51812" lon="6.81839">
        <ele>2095</ele>
        <time>2020-02-19T08:40:08.000Z</time>
      </trkpt>
      <trkpt lat="44.51805" lon="6.81849">
        <ele>2096</ele>
        <time>2020-02-19T08:40:19.000Z</time>
      </trkpt>
      <trkpt lat="44.518" lon="6.81854">
        <ele>2096</ele>
        <time>2020-02-19T08:40:39.000Z</time>
      </trkpt>
      <trkpt lat="44.51797" lon="6.81857">
        <ele>2096</ele>
        <time>2020-02-19T08:40:55.000Z</time>
      </trkpt>
      <trkpt lat="44.51795" lon="6.81861">
        <ele>2096</ele>
        <time>2020-02-19T08:40:59.000Z</time>
      </trkpt>
      <trkpt lat="44.51789" lon="6.8187">
        <ele>2097</ele>
        <time>2020-02-19T08:41:10.000Z</time>
      </trkpt>
      <trkpt lat="44.51787" lon="6.81872">
        <ele>2097</ele>
        <time>2020-02-19T08:41:12.000Z</time>
      </trkpt>
      <trkpt lat="44.51785" lon="6.81875">
        <ele>2098</ele>
        <time>2020-02-19T08:41:18.000Z</time>
      </trkpt>
      <trkpt lat="44.51779" lon="6.81885">
        <ele>2099</ele>
        <time>2020-02-19T08:41:30.000Z</time>
      </trkpt>
      <trkpt lat="44.51779" lon="6.81892">
        <ele>2099</ele>
        <time>2020-02-19T08:41:38.000Z</time>
      </trkpt>
      <trkpt lat="44.51777" lon="6.81903">
        <ele>2101</ele>
        <time>2020-02-19T08:41:50.000Z</time>
      </trkpt>
      <trkpt lat="44.51777" lon="6.81914">
        <ele>2101</ele>
        <time>2020-02-19T08:42:00.000Z</time>
      </trkpt>
      <trkpt lat="44.51776" lon="6.81923">
        <ele>2110</ele>
        <time>2020-02-19T08:42:11.000Z</time>
      </trkpt>
      <trkpt lat="44.51775" lon="6.81925">
        <ele>2110</ele>
        <time>2020-02-19T08:42:19.000Z</time>
      </trkpt>
      <trkpt lat="44.51772" lon="6.81919">
        <ele>2109</ele>
        <time>2020-02-19T08:42:46.000Z</time>
      </trkpt>
      <trkpt lat="44.51772" lon="6.81919">
        <ele>2109</ele>
        <time>2020-02-19T08:42:50.000Z</time>
      </trkpt>
      <trkpt lat="44.51772" lon="6.81918">
        <ele>2109</ele>
        <time>2020-02-19T08:42:53.000Z</time>
      </trkpt>
      <trkpt lat="44.51773" lon="6.81919">
        <ele>2109</ele>
        <time>2020-02-19T08:42:56.000Z</time>
      </trkpt>
      <trkpt lat="44.51771" lon="6.8192">
        <ele>2109</ele>
        <time>2020-02-19T08:43:12.000Z</time>
      </trkpt>
      <trkpt lat="44.51776" lon="6.81922">
        <ele>2110</ele>
        <time>2020-02-19T08:43:30.000Z</time>
      </trkpt>
      <trkpt lat="44.51777" lon="6.81925">
        <ele>2110</ele>
        <time>2020-02-19T08:43:36.000Z</time>
      </trkpt>
      <trkpt lat="44.51776" lon="6.81929">
        <ele>2110</ele>
        <time>2020-02-19T08:43:40.000Z</time>
      </trkpt>
      <trkpt lat="44.51776" lon="6.8193">
        <ele>2110</ele>
        <time>2020-02-19T08:43:42.000Z</time>
      </trkpt>
      <trkpt lat="44.51774" lon="6.81933">
        <ele>2110</ele>
        <time>2020-02-19T08:43:45.000Z</time>
      </trkpt>
      <trkpt lat="44.51771" lon="6.81937">
        <ele>2110</ele>
        <time>2020-02-19T08:43:50.000Z</time>
      </trkpt>
      <trkpt lat="44.5177" lon="6.81941">
        <ele>2111</ele>
        <time>2020-02-19T08:43:55.000Z</time>
      </trkpt>
      <trkpt lat="44.51766" lon="6.8195">
        <ele>2112</ele>
        <time>2020-02-19T08:44:05.000Z</time>
      </trkpt>
      <trkpt lat="44.51766" lon="6.81952">
        <ele>2112</ele>
        <time>2020-02-19T08:44:07.000Z</time>
      </trkpt>
      <trkpt lat="44.5176" lon="6.81962">
        <ele>2113</ele>
        <time>2020-02-19T08:44:16.000Z</time>
      </trkpt>
      <trkpt lat="44.51757" lon="6.81965">
        <ele>2114</ele>
        <time>2020-02-19T08:44:21.000Z</time>
      </trkpt>
      <trkpt lat="44.51754" lon="6.81974">
        <ele>2116</ele>
        <time>2020-02-19T08:44:29.000Z</time>
      </trkpt>
      <trkpt lat="44.51752" lon="6.81979">
        <ele>2117</ele>
        <time>2020-02-19T08:44:32.000Z</time>
      </trkpt>
      <trkpt lat="44.5175" lon="6.81985">
        <ele>2118</ele>
        <time>2020-02-19T08:44:38.000Z</time>
      </trkpt>
      <trkpt lat="44.5175" lon="6.81987">
        <ele>2119</ele>
        <time>2020-02-19T08:44:40.000Z</time>
      </trkpt>
      <trkpt lat="44.51749" lon="6.81992">
        <ele>2120</ele>
        <time>2020-02-19T08:44:45.000Z</time>
      </trkpt>
      <trkpt lat="44.51747" lon="6.81998">
        <ele>2122</ele>
        <time>2020-02-19T08:45:03.000Z</time>
      </trkpt>
      <trkpt lat="44.51747" lon="6.81996">
        <ele>2121</ele>
        <time>2020-02-19T08:45:13.000Z</time>
      </trkpt>
      <trkpt lat="44.51747" lon="6.81997">
        <ele>2122</ele>
        <time>2020-02-19T08:45:17.000Z</time>
      </trkpt>
      <trkpt lat="44.51746" lon="6.81997">
        <ele>2122</ele>
        <time>2020-02-19T08:45:21.000Z</time>
      </trkpt>
      <trkpt lat="44.51746" lon="6.81995">
        <ele>2121</ele>
        <time>2020-02-19T08:45:26.000Z</time>
      </trkpt>
      <trkpt lat="44.51746" lon="6.81996">
        <ele>2121</ele>
        <time>2020-02-19T08:45:31.000Z</time>
      </trkpt>
      <trkpt lat="44.51746" lon="6.81997">
        <ele>2122</ele>
        <time>2020-02-19T08:45:35.000Z</time>
      </trkpt>
      <trkpt lat="44.51747" lon="6.81997">
        <ele>2122</ele>
        <time>2020-02-19T08:45:38.000Z</time>
      </trkpt>
      <trkpt lat="44.51739" lon="6.82007">
        <ele>2125</ele>
        <time>2020-02-19T08:45:50.000Z</time>
      </trkpt>
      <trkpt lat="44.51735" lon="6.82011">
        <ele>2126</ele>
        <time>2020-02-19T08:45:57.000Z</time>
      </trkpt>
      <trkpt lat="44.51732" lon="6.82014">
        <ele>2126</ele>
        <time>2020-02-19T08:46:01.000Z</time>
      </trkpt>
      <trkpt lat="44.51729" lon="6.82019">
        <ele>2127</ele>
        <time>2020-02-19T08:46:04.000Z</time>
      </trkpt>
      <trkpt lat="44.51727" lon="6.82023">
        <ele>2127</ele>
        <time>2020-02-19T08:46:10.000Z</time>
      </trkpt>
      <trkpt lat="44.51725" lon="6.82032">
        <ele>2128</ele>
        <time>2020-02-19T08:46:16.000Z</time>
      </trkpt>
      <trkpt lat="44.51725" lon="6.82037">
        <ele>2128</ele>
        <time>2020-02-19T08:46:22.000Z</time>
      </trkpt>
      <trkpt lat="44.51724" lon="6.82048">
        <ele>2129</ele>
        <time>2020-02-19T08:46:32.000Z</time>
      </trkpt>
      <trkpt lat="44.5172" lon="6.82055">
        <ele>2130</ele>
        <time>2020-02-19T08:46:41.000Z</time>
      </trkpt>
      <trkpt lat="44.51718" lon="6.82059">
        <ele>2130</ele>
        <time>2020-02-19T08:46:45.000Z</time>
      </trkpt>
      <trkpt lat="44.51715" lon="6.82062">
        <ele>2130</ele>
        <time>2020-02-19T08:46:50.000Z</time>
      </trkpt>
      <trkpt lat="44.51714" lon="6.82066">
        <ele>2131</ele>
        <time>2020-02-19T08:46:54.000Z</time>
      </trkpt>
      <trkpt lat="44.51712" lon="6.82077">
        <ele>2131</ele>
        <time>2020-02-19T08:47:03.000Z</time>
      </trkpt>
      <trkpt lat="44.51712" lon="6.82082">
        <ele>2131</ele>
        <time>2020-02-19T08:47:07.000Z</time>
      </trkpt>
      <trkpt lat="44.51708" lon="6.82095">
        <ele>2142</ele>
        <time>2020-02-19T08:47:18.000Z</time>
      </trkpt>
      <trkpt lat="44.51706" lon="6.82099">
        <ele>2143</ele>
        <time>2020-02-19T08:47:23.000Z</time>
      </trkpt>
      <trkpt lat="44.51706" lon="6.82106">
        <ele>2143</ele>
        <time>2020-02-19T08:47:33.000Z</time>
      </trkpt>
      <trkpt lat="44.51705" lon="6.82108">
        <ele>2143</ele>
        <time>2020-02-19T08:47:37.000Z</time>
      </trkpt>
      <trkpt lat="44.51712" lon="6.82115">
        <ele>2144</ele>
        <time>2020-02-19T08:47:52.000Z</time>
      </trkpt>
      <trkpt lat="44.51713" lon="6.82117">
        <ele>2144</ele>
        <time>2020-02-19T08:47:55.000Z</time>
      </trkpt>
      <trkpt lat="44.51716" lon="6.82122">
        <ele>2145</ele>
        <time>2020-02-19T08:48:03.000Z</time>
      </trkpt>
      <trkpt lat="44.51717" lon="6.82126">
        <ele>2145</ele>
        <time>2020-02-19T08:48:11.000Z</time>
      </trkpt>
      <trkpt lat="44.5172" lon="6.82129">
        <ele>2145</ele>
        <time>2020-02-19T08:48:22.000Z</time>
      </trkpt>
      <trkpt lat="44.51727" lon="6.82131">
        <ele>2146</ele>
        <time>2020-02-19T08:48:35.000Z</time>
      </trkpt>
      <trkpt lat="44.51727" lon="6.82139">
        <ele>2147</ele>
        <time>2020-02-19T08:48:46.000Z</time>
      </trkpt>
      <trkpt lat="44.5172" lon="6.8215">
        <ele>2147</ele>
        <time>2020-02-19T08:49:02.000Z</time>
      </trkpt>
      <trkpt lat="44.51713" lon="6.82156">
        <ele>2148</ele>
        <time>2020-02-19T08:49:17.000Z</time>
      </trkpt>
      <trkpt lat="44.51712" lon="6.82159">
        <ele>2148</ele>
        <time>2020-02-19T08:49:20.000Z</time>
      </trkpt>
      <trkpt lat="44.51707" lon="6.82165">
        <ele>2148</ele>
        <time>2020-02-19T08:49:29.000Z</time>
      </trkpt>
      <trkpt lat="44.51701" lon="6.82173">
        <ele>2158</ele>
        <time>2020-02-19T08:49:41.000Z</time>
      </trkpt>
      <trkpt lat="44.51697" lon="6.82179">
        <ele>2158</ele>
        <time>2020-02-19T08:49:50.000Z</time>
      </trkpt>
      <trkpt lat="44.51694" lon="6.82186">
        <ele>2159</ele>
        <time>2020-02-19T08:50:09.000Z</time>
      </trkpt>
      <trkpt lat="44.51694" lon="6.8219">
        <ele>2159</ele>
        <time>2020-02-19T08:50:14.000Z</time>
      </trkpt>
      <trkpt lat="44.51695" lon="6.82197">
        <ele>2160</ele>
        <time>2020-02-19T08:50:24.000Z</time>
      </trkpt>
      <trkpt lat="44.51694" lon="6.82206">
        <ele>2161</ele>
        <time>2020-02-19T08:50:34.000Z</time>
      </trkpt>
      <trkpt lat="44.51691" lon="6.82218">
        <ele>2162</ele>
        <time>2020-02-19T08:50:49.000Z</time>
      </trkpt>
      <trkpt lat="44.51693" lon="6.82227">
        <ele>2163</ele>
        <time>2020-02-19T08:50:58.000Z</time>
      </trkpt>
      <trkpt lat="44.51691" lon="6.8224">
        <ele>2165</ele>
        <time>2020-02-19T08:51:11.000Z</time>
      </trkpt>
      <trkpt lat="44.51688" lon="6.82253">
        <ele>2174</ele>
        <time>2020-02-19T08:51:26.000Z</time>
      </trkpt>
      <trkpt lat="44.51687" lon="6.82259">
        <ele>2174</ele>
        <time>2020-02-19T08:51:32.000Z</time>
      </trkpt>
      <trkpt lat="44.51685" lon="6.82265">
        <ele>2174</ele>
        <time>2020-02-19T08:51:55.000Z</time>
      </trkpt>
      <trkpt lat="44.51684" lon="6.82269">
        <ele>2175</ele>
        <time>2020-02-19T08:52:00.000Z</time>
      </trkpt>
      <trkpt lat="44.51683" lon="6.82275">
        <ele>2175</ele>
        <time>2020-02-19T08:52:10.000Z</time>
      </trkpt>
      <trkpt lat="44.51682" lon="6.82279">
        <ele>2176</ele>
        <time>2020-02-19T08:52:18.000Z</time>
      </trkpt>
      <trkpt lat="44.51681" lon="6.82282">
        <ele>2176</ele>
        <time>2020-02-19T08:52:22.000Z</time>
      </trkpt>
      <trkpt lat="44.5168" lon="6.82291">
        <ele>2177</ele>
        <time>2020-02-19T08:52:35.000Z</time>
      </trkpt>
      <trkpt lat="44.51678" lon="6.82303">
        <ele>2178</ele>
        <time>2020-02-19T08:52:50.000Z</time>
      </trkpt>
      <trkpt lat="44.51675" lon="6.82312">
        <ele>2179</ele>
        <time>2020-02-19T08:53:01.000Z</time>
      </trkpt>
      <trkpt lat="44.51673" lon="6.82316">
        <ele>2180</ele>
        <time>2020-02-19T08:53:10.000Z</time>
      </trkpt>
      <trkpt lat="44.51672" lon="6.82326">
        <ele>2181</ele>
        <time>2020-02-19T08:53:21.000Z</time>
      </trkpt>
      <trkpt lat="44.51671" lon="6.8233">
        <ele>2181</ele>
        <time>2020-02-19T08:53:32.000Z</time>
      </trkpt>
      <trkpt lat="44.51665" lon="6.82335">
        <ele>2183</ele>
        <time>2020-02-19T08:53:51.000Z</time>
      </trkpt>
      <trkpt lat="44.51662" lon="6.82338">
        <ele>2184</ele>
        <time>2020-02-19T08:54:00.000Z</time>
      </trkpt>
      <trkpt lat="44.5166" lon="6.82342">
        <ele>2185</ele>
        <time>2020-02-19T08:54:06.000Z</time>
      </trkpt>
      <trkpt lat="44.51656" lon="6.82347">
        <ele>2187</ele>
        <time>2020-02-19T08:54:13.000Z</time>
      </trkpt>
      <trkpt lat="44.51655" lon="6.8235">
        <ele>2187</ele>
        <time>2020-02-19T08:54:16.000Z</time>
      </trkpt>
      <trkpt lat="44.5165" lon="6.8236">
        <ele>2189</ele>
        <time>2020-02-19T08:54:29.000Z</time>
      </trkpt>
      <trkpt lat="44.51646" lon="6.8237">
        <ele>2191</ele>
        <time>2020-02-19T08:54:39.000Z</time>
      </trkpt>
      <trkpt lat="44.51643" lon="6.82375">
        <ele>2192</ele>
        <time>2020-02-19T08:54:47.000Z</time>
      </trkpt>
      <trkpt lat="44.5164" lon="6.8238">
        <ele>2192</ele>
        <time>2020-02-19T08:54:54.000Z</time>
      </trkpt>
      <trkpt lat="44.51633" lon="6.8239">
        <ele>2193</ele>
        <time>2020-02-19T08:55:07.000Z</time>
      </trkpt>
      <trkpt lat="44.51624" lon="6.82407">
        <ele>2194</ele>
        <time>2020-02-19T08:55:30.000Z</time>
      </trkpt>
      <trkpt lat="44.5162" lon="6.82414">
        <ele>2195</ele>
        <time>2020-02-19T08:55:40.000Z</time>
      </trkpt>
      <trkpt lat="44.51616" lon="6.8242">
        <ele>2206</ele>
        <time>2020-02-19T08:55:47.000Z</time>
      </trkpt>
      <trkpt lat="44.51612" lon="6.82427">
        <ele>2206</ele>
        <time>2020-02-19T08:55:57.000Z</time>
      </trkpt>
      <trkpt lat="44.51609" lon="6.82434">
        <ele>2206</ele>
        <time>2020-02-19T08:56:28.000Z</time>
      </trkpt>
      <trkpt lat="44.51608" lon="6.82432">
        <ele>2206</ele>
        <time>2020-02-19T08:56:40.000Z</time>
      </trkpt>
      <trkpt lat="44.51608" lon="6.82432">
        <ele>2206</ele>
        <time>2020-02-19T08:56:44.000Z</time>
      </trkpt>
      <trkpt lat="44.51608" lon="6.8243">
        <ele>2206</ele>
        <time>2020-02-19T08:56:46.000Z</time>
      </trkpt>
      <trkpt lat="44.51608" lon="6.82431">
        <ele>2206</ele>
        <time>2020-02-19T08:56:55.000Z</time>
      </trkpt>
      <trkpt lat="44.51609" lon="6.82436">
        <ele>2206</ele>
        <time>2020-02-19T08:57:14.000Z</time>
      </trkpt>
      <trkpt lat="44.51607" lon="6.82435">
        <ele>2206</ele>
        <time>2020-02-19T08:57:29.000Z</time>
      </trkpt>
      <trkpt lat="44.51608" lon="6.82435">
        <ele>2206</ele>
        <time>2020-02-19T08:57:43.000Z</time>
      </trkpt>
      <trkpt lat="44.51608" lon="6.82432">
        <ele>2206</ele>
        <time>2020-02-19T08:57:58.000Z</time>
      </trkpt>
      <trkpt lat="44.51608" lon="6.82432">
        <ele>2206</ele>
        <time>2020-02-19T08:58:01.000Z</time>
      </trkpt>
      <trkpt lat="44.51608" lon="6.82432">
        <ele>2206</ele>
        <time>2020-02-19T08:58:03.000Z</time>
      </trkpt>
      <trkpt lat="44.51608" lon="6.82432">
        <ele>2206</ele>
        <time>2020-02-19T08:58:10.000Z</time>
      </trkpt>
      <trkpt lat="44.51608" lon="6.82434">
        <ele>2206</ele>
        <time>2020-02-19T08:58:34.000Z</time>
      </trkpt>
      <trkpt lat="44.51607" lon="6.82435">
        <ele>2206</ele>
        <time>2020-02-19T08:58:47.000Z</time>
      </trkpt>
      <trkpt lat="44.51606" lon="6.82435">
        <ele>2206</ele>
        <time>2020-02-19T08:58:50.000Z</time>
      </trkpt>
      <trkpt lat="44.51608" lon="6.82436">
        <ele>2206</ele>
        <time>2020-02-19T08:59:05.000Z</time>
      </trkpt>
      <trkpt lat="44.51608" lon="6.82435">
        <ele>2206</ele>
        <time>2020-02-19T08:59:18.000Z</time>
      </trkpt>
      <trkpt lat="44.51607" lon="6.82436">
        <ele>2206</ele>
        <time>2020-02-19T08:59:24.000Z</time>
      </trkpt>
      <trkpt lat="44.51604" lon="6.82439">
        <ele>2206</ele>
        <time>2020-02-19T08:59:47.000Z</time>
      </trkpt>
      <trkpt lat="44.51603" lon="6.82436">
        <ele>2206</ele>
        <time>2020-02-19T08:59:54.000Z</time>
      </trkpt>
      <trkpt lat="44.51605" lon="6.82437">
        <ele>2206</ele>
        <time>2020-02-19T09:00:04.000Z</time>
      </trkpt>
      <trkpt lat="44.51605" lon="6.82437">
        <ele>2206</ele>
        <time>2020-02-19T09:00:10.000Z</time>
      </trkpt>
      <trkpt lat="44.51606" lon="6.82436">
        <ele>2206</ele>
        <time>2020-02-19T09:00:32.000Z</time>
      </trkpt>
      <trkpt lat="44.51606" lon="6.82436">
        <ele>2206</ele>
        <time>2020-02-19T09:00:36.000Z</time>
      </trkpt>
      <trkpt lat="44.51606" lon="6.82435">
        <ele>2206</ele>
        <time>2020-02-19T09:00:38.000Z</time>
      </trkpt>
      <trkpt lat="44.51606" lon="6.82433">
        <ele>2206</ele>
        <time>2020-02-19T09:00:46.000Z</time>
      </trkpt>
      <trkpt lat="44.51606" lon="6.82432">
        <ele>2205</ele>
        <time>2020-02-19T09:00:48.000Z</time>
      </trkpt>
      <trkpt lat="44.51607" lon="6.82434">
        <ele>2206</ele>
        <time>2020-02-19T09:00:53.000Z</time>
      </trkpt>
      <trkpt lat="44.51607" lon="6.82435">
        <ele>2206</ele>
        <time>2020-02-19T09:00:56.000Z</time>
      </trkpt>
      <trkpt lat="44.51606" lon="6.82436">
        <ele>2206</ele>
        <time>2020-02-19T09:01:04.000Z</time>
      </trkpt>
      <trkpt lat="44.51606" lon="6.82436">
        <ele>2206</ele>
        <time>2020-02-19T09:01:08.000Z</time>
      </trkpt>
      <trkpt lat="44.51607" lon="6.82436">
        <ele>2206</ele>
        <time>2020-02-19T09:01:15.000Z</time>
      </trkpt>
      <trkpt lat="44.51607" lon="6.82436">
        <ele>2206</ele>
        <time>2020-02-19T09:01:18.000Z</time>
      </trkpt>
      <trkpt lat="44.51607" lon="6.82433">
        <ele>2206</ele>
        <time>2020-02-19T09:01:28.000Z</time>
      </trkpt>
      <trkpt lat="44.51607" lon="6.82432">
        <ele>2206</ele>
        <time>2020-02-19T09:01:31.000Z</time>
      </trkpt>
      <trkpt lat="44.51606" lon="6.82438">
        <ele>2206</ele>
        <time>2020-02-19T09:01:38.000Z</time>
      </trkpt>
      <trkpt lat="44.51606" lon="6.82437">
        <ele>2206</ele>
        <time>2020-02-19T09:01:47.000Z</time>
      </trkpt>
      <trkpt lat="44.51607" lon="6.82437">
        <ele>2206</ele>
        <time>2020-02-19T09:01:51.000Z</time>
      </trkpt>
      <trkpt lat="44.51606" lon="6.82436">
        <ele>2206</ele>
        <time>2020-02-19T09:01:54.000Z</time>
      </trkpt>
      <trkpt lat="44.51607" lon="6.82436">
        <ele>2206</ele>
        <time>2020-02-19T09:01:56.000Z</time>
      </trkpt>
      <trkpt lat="44.51607" lon="6.82435">
        <ele>2206</ele>
        <time>2020-02-19T09:02:09.000Z</time>
      </trkpt>
      <trkpt lat="44.51607" lon="6.82435">
        <ele>2206</ele>
        <time>2020-02-19T09:02:11.000Z</time>
      </trkpt>
      <trkpt lat="44.51607" lon="6.82434">
        <ele>2206</ele>
        <time>2020-02-19T09:02:20.000Z</time>
      </trkpt>
      <trkpt lat="44.51606" lon="6.82434">
        <ele>2206</ele>
        <time>2020-02-19T09:02:27.000Z</time>
      </trkpt>
      <trkpt lat="44.51606" lon="6.82433">
        <ele>2206</ele>
        <time>2020-02-19T09:02:29.000Z</time>
      </trkpt>
      <trkpt lat="44.51606" lon="6.82434">
        <ele>2206</ele>
        <time>2020-02-19T09:02:32.000Z</time>
      </trkpt>
      <trkpt lat="44.51606" lon="6.82434">
        <ele>2206</ele>
        <time>2020-02-19T09:02:36.000Z</time>
      </trkpt>
      <trkpt lat="44.51606" lon="6.82433">
        <ele>2206</ele>
        <time>2020-02-19T09:02:42.000Z</time>
      </trkpt>
      <trkpt lat="44.51606" lon="6.82433">
        <ele>2206</ele>
        <time>2020-02-19T09:02:47.000Z</time>
      </trkpt>
      <trkpt lat="44.51607" lon="6.82433">
        <ele>2206</ele>
        <time>2020-02-19T09:02:55.000Z</time>
      </trkpt>
      <trkpt lat="44.51607" lon="6.82433">
        <ele>2206</ele>
        <time>2020-02-19T09:02:58.000Z</time>
      </trkpt>
      <trkpt lat="44.51607" lon="6.82433">
        <ele>2206</ele>
        <time>2020-02-19T09:03:06.000Z</time>
      </trkpt>
      <trkpt lat="44.51607" lon="6.82433">
        <ele>2206</ele>
        <time>2020-02-19T09:03:09.000Z</time>
      </trkpt>
      <trkpt lat="44.51608" lon="6.82432">
        <ele>2206</ele>
        <time>2020-02-19T09:03:13.000Z</time>
      </trkpt>
      <trkpt lat="44.51608" lon="6.82432">
        <ele>2206</ele>
        <time>2020-02-19T09:03:19.000Z</time>
      </trkpt>
      <trkpt lat="44.51608" lon="6.82433">
        <ele>2206</ele>
        <time>2020-02-19T09:03:21.000Z</time>
      </trkpt>
      <trkpt lat="44.51608" lon="6.82433">
        <ele>2206</ele>
        <time>2020-02-19T09:03:24.000Z</time>
      </trkpt>
      <trkpt lat="44.51608" lon="6.82433">
        <ele>2206</ele>
        <time>2020-02-19T09:03:28.000Z</time>
      </trkpt>
      <trkpt lat="44.51608" lon="6.82431">
        <ele>2206</ele>
        <time>2020-02-19T09:03:42.000Z</time>
      </trkpt>
      <trkpt lat="44.51608" lon="6.82431">
        <ele>2206</ele>
        <time>2020-02-19T09:03:46.000Z</time>
      </trkpt>
      <trkpt lat="44.51608" lon="6.82431">
        <ele>2206</ele>
        <time>2020-02-19T09:03:50.000Z</time>
      </trkpt>
      <trkpt lat="44.51608" lon="6.82432">
        <ele>2206</ele>
        <time>2020-02-19T09:03:53.000Z</time>
      </trkpt>
      <trkpt lat="44.51607" lon="6.82432">
        <ele>2206</ele>
        <time>2020-02-19T09:04:00.000Z</time>
      </trkpt>
      <trkpt lat="44.51606" lon="6.82433">
        <ele>2206</ele>
        <time>2020-02-19T09:04:02.000Z</time>
      </trkpt>
      <trkpt lat="44.51607" lon="6.82433">
        <ele>2206</ele>
        <time>2020-02-19T09:04:04.000Z</time>
      </trkpt>
      <trkpt lat="44.51607" lon="6.82434">
        <ele>2206</ele>
        <time>2020-02-19T09:04:14.000Z</time>
      </trkpt>
      <trkpt lat="44.51607" lon="6.82434">
        <ele>2206</ele>
        <time>2020-02-19T09:04:16.000Z</time>
      </trkpt>
      <trkpt lat="44.51607" lon="6.82434">
        <ele>2206</ele>
        <time>2020-02-19T09:04:18.000Z</time>
      </trkpt>
      <trkpt lat="44.51607" lon="6.82433">
        <ele>2206</ele>
        <time>2020-02-19T09:04:31.000Z</time>
      </trkpt>
      <trkpt lat="44.51606" lon="6.82433">
        <ele>2205</ele>
        <time>2020-02-19T09:05:00.000Z</time>
      </trkpt>
      <trkpt lat="44.51606" lon="6.82433">
        <ele>2206</ele>
        <time>2020-02-19T09:05:06.000Z</time>
      </trkpt>
      <trkpt lat="44.51605" lon="6.82432">
        <ele>2205</ele>
        <time>2020-02-19T09:05:09.000Z</time>
      </trkpt>
      <trkpt lat="44.51605" lon="6.82434">
        <ele>2206</ele>
        <time>2020-02-19T09:05:15.000Z</time>
      </trkpt>
      <trkpt lat="44.51605" lon="6.82435">
        <ele>2206</ele>
        <time>2020-02-19T09:05:20.000Z</time>
      </trkpt>
      <trkpt lat="44.51605" lon="6.82435">
        <ele>2206</ele>
        <time>2020-02-19T09:05:26.000Z</time>
      </trkpt>
      <trkpt lat="44.51606" lon="6.82435">
        <ele>2206</ele>
        <time>2020-02-19T09:05:31.000Z</time>
      </trkpt>
      <trkpt lat="44.51607" lon="6.82436">
        <ele>2206</ele>
        <time>2020-02-19T09:05:34.000Z</time>
      </trkpt>
      <trkpt lat="44.51606" lon="6.82436">
        <ele>2206</ele>
        <time>2020-02-19T09:05:42.000Z</time>
      </trkpt>
      <trkpt lat="44.51605" lon="6.82437">
        <ele>2206</ele>
        <time>2020-02-19T09:05:51.000Z</time>
      </trkpt>
      <trkpt lat="44.51605" lon="6.82436">
        <ele>2206</ele>
        <time>2020-02-19T09:05:56.000Z</time>
      </trkpt>
      <trkpt lat="44.51606" lon="6.82435">
        <ele>2206</ele>
        <time>2020-02-19T09:06:14.000Z</time>
      </trkpt>
      <trkpt lat="44.51606" lon="6.82434">
        <ele>2206</ele>
        <time>2020-02-19T09:06:16.000Z</time>
      </trkpt>
      <trkpt lat="44.51605" lon="6.82435">
        <ele>2206</ele>
        <time>2020-02-19T09:06:22.000Z</time>
      </trkpt>
      <trkpt lat="44.51601" lon="6.82443">
        <ele>2206</ele>
        <time>2020-02-19T09:06:30.000Z</time>
      </trkpt>
      <trkpt lat="44.51596" lon="6.82451">
        <ele>2207</ele>
        <time>2020-02-19T09:06:36.000Z</time>
      </trkpt>
      <trkpt lat="44.51593" lon="6.82456">
        <ele>2208</ele>
        <time>2020-02-19T09:06:42.000Z</time>
      </trkpt>
      <trkpt lat="44.51589" lon="6.8246">
        <ele>2208</ele>
        <time>2020-02-19T09:06:47.000Z</time>
      </trkpt>
      <trkpt lat="44.51586" lon="6.82464">
        <ele>2209</ele>
        <time>2020-02-19T09:06:52.000Z</time>
      </trkpt>
      <trkpt lat="44.51579" lon="6.82472">
        <ele>2204</ele>
        <time>2020-02-19T09:07:01.000Z</time>
      </trkpt>
      <trkpt lat="44.51574" lon="6.82478">
        <ele>2205</ele>
        <time>2020-02-19T09:07:07.000Z</time>
      </trkpt>
      <trkpt lat="44.5157" lon="6.82483">
        <ele>2205</ele>
        <time>2020-02-19T09:07:12.000Z</time>
      </trkpt>
      <trkpt lat="44.51564" lon="6.82491">
        <ele>2206</ele>
        <time>2020-02-19T09:07:23.000Z</time>
      </trkpt>
      <trkpt lat="44.5156" lon="6.82495">
        <ele>2205</ele>
        <time>2020-02-19T09:07:31.000Z</time>
      </trkpt>
      <trkpt lat="44.51557" lon="6.82498">
        <ele>2205</ele>
        <time>2020-02-19T09:07:38.000Z</time>
      </trkpt>
      <trkpt lat="44.51555" lon="6.82502">
        <ele>2212</ele>
        <time>2020-02-19T09:07:43.000Z</time>
      </trkpt>
      <trkpt lat="44.51553" lon="6.82504">
        <ele>2212</ele>
        <time>2020-02-19T09:07:45.000Z</time>
      </trkpt>
      <trkpt lat="44.51548" lon="6.82511">
        <ele>2212</ele>
        <time>2020-02-19T09:07:54.000Z</time>
      </trkpt>
      <trkpt lat="44.51545" lon="6.82517">
        <ele>2212</ele>
        <time>2020-02-19T09:08:01.000Z</time>
      </trkpt>
      <trkpt lat="44.51545" lon="6.82519">
        <ele>2212</ele>
        <time>2020-02-19T09:08:04.000Z</time>
      </trkpt>
      <trkpt lat="44.51544" lon="6.82523">
        <ele>2212</ele>
        <time>2020-02-19T09:08:20.000Z</time>
      </trkpt>
      <trkpt lat="44.51543" lon="6.82522">
        <ele>2212</ele>
        <time>2020-02-19T09:08:24.000Z</time>
      </trkpt>
      <trkpt lat="44.5154" lon="6.82527">
        <ele>2212</ele>
        <time>2020-02-19T09:08:29.000Z</time>
      </trkpt>
      <trkpt lat="44.51539" lon="6.8253">
        <ele>2212</ele>
        <time>2020-02-19T09:08:33.000Z</time>
      </trkpt>
      <trkpt lat="44.51535" lon="6.82549">
        <ele>2212</ele>
        <time>2020-02-19T09:08:46.000Z</time>
      </trkpt>
      <trkpt lat="44.51533" lon="6.82553">
        <ele>2212</ele>
        <time>2020-02-19T09:08:49.000Z</time>
      </trkpt>
      <trkpt lat="44.51527" lon="6.82565">
        <ele>2212</ele>
        <time>2020-02-19T09:09:00.000Z</time>
      </trkpt>
      <trkpt lat="44.51527" lon="6.82568">
        <ele>2212</ele>
        <time>2020-02-19T09:09:03.000Z</time>
      </trkpt>
      <trkpt lat="44.51525" lon="6.82569">
        <ele>2212</ele>
        <time>2020-02-19T09:09:06.000Z</time>
      </trkpt>
      <trkpt lat="44.51524" lon="6.82571">
        <ele>2212</ele>
        <time>2020-02-19T09:09:10.000Z</time>
      </trkpt>
      <trkpt lat="44.51523" lon="6.82579">
        <ele>2212</ele>
        <time>2020-02-19T09:09:19.000Z</time>
      </trkpt>
      <trkpt lat="44.5152" lon="6.82588">
        <ele>2218</ele>
        <time>2020-02-19T09:09:26.000Z</time>
      </trkpt>
      <trkpt lat="44.51518" lon="6.8259">
        <ele>2218</ele>
        <time>2020-02-19T09:09:29.000Z</time>
      </trkpt>
      <trkpt lat="44.5152" lon="6.82599">
        <ele>2220</ele>
        <time>2020-02-19T09:09:39.000Z</time>
      </trkpt>
      <trkpt lat="44.51517" lon="6.82605">
        <ele>2220</ele>
        <time>2020-02-19T09:09:46.000Z</time>
      </trkpt>
      <trkpt lat="44.51514" lon="6.82607">
        <ele>2220</ele>
        <time>2020-02-19T09:09:52.000Z</time>
      </trkpt>
      <trkpt lat="44.51513" lon="6.8261">
        <ele>2221</ele>
        <time>2020-02-19T09:09:55.000Z</time>
      </trkpt>
      <trkpt lat="44.51505" lon="6.82621">
        <ele>2222</ele>
        <time>2020-02-19T09:10:08.000Z</time>
      </trkpt>
      <trkpt lat="44.51499" lon="6.82628">
        <ele>2214</ele>
        <time>2020-02-19T09:10:19.000Z</time>
      </trkpt>
      <trkpt lat="44.51497" lon="6.8263">
        <ele>2214</ele>
        <time>2020-02-19T09:10:21.000Z</time>
      </trkpt>
      <trkpt lat="44.51496" lon="6.82632">
        <ele>2214</ele>
        <time>2020-02-19T09:10:29.000Z</time>
      </trkpt>
      <trkpt lat="44.5149" lon="6.82643">
        <ele>2216</ele>
        <time>2020-02-19T09:10:41.000Z</time>
      </trkpt>
      <trkpt lat="44.51488" lon="6.82646">
        <ele>2216</ele>
        <time>2020-02-19T09:10:47.000Z</time>
      </trkpt>
      <trkpt lat="44.51479" lon="6.82662">
        <ele>2217</ele>
        <time>2020-02-19T09:11:07.000Z</time>
      </trkpt>
      <trkpt lat="44.51473" lon="6.8267">
        <ele>2223</ele>
        <time>2020-02-19T09:11:20.000Z</time>
      </trkpt>
      <trkpt lat="44.51473" lon="6.82671">
        <ele>2223</ele>
        <time>2020-02-19T09:11:42.000Z</time>
      </trkpt>
      <trkpt lat="44.51472" lon="6.8267">
        <ele>2223</ele>
        <time>2020-02-19T09:11:47.000Z</time>
      </trkpt>
      <trkpt lat="44.51472" lon="6.82674">
        <ele>2223</ele>
        <time>2020-02-19T09:12:08.000Z</time>
      </trkpt>
      <trkpt lat="44.5147" lon="6.82678">
        <ele>2223</ele>
        <time>2020-02-19T09:12:12.000Z</time>
      </trkpt>
      <trkpt lat="44.5147" lon="6.82679">
        <ele>2223</ele>
        <time>2020-02-19T09:12:14.000Z</time>
      </trkpt>
      <trkpt lat="44.51469" lon="6.82681">
        <ele>2223</ele>
        <time>2020-02-19T09:12:16.000Z</time>
      </trkpt>
      <trkpt lat="44.51464" lon="6.82689">
        <ele>2223</ele>
        <time>2020-02-19T09:12:24.000Z</time>
      </trkpt>
      <trkpt lat="44.51462" lon="6.82695">
        <ele>2223</ele>
        <time>2020-02-19T09:12:31.000Z</time>
      </trkpt>
      <trkpt lat="44.51458" lon="6.827">
        <ele>2223</ele>
        <time>2020-02-19T09:12:37.000Z</time>
      </trkpt>
      <trkpt lat="44.51455" lon="6.82704">
        <ele>2223</ele>
        <time>2020-02-19T09:12:41.000Z</time>
      </trkpt>
      <trkpt lat="44.51449" lon="6.82714">
        <ele>2223</ele>
        <time>2020-02-19T09:12:52.000Z</time>
      </trkpt>
      <trkpt lat="44.51446" lon="6.8272">
        <ele>2223</ele>
        <time>2020-02-19T09:13:00.000Z</time>
      </trkpt>
      <trkpt lat="44.5144" lon="6.82733">
        <ele>2222</ele>
        <time>2020-02-19T09:13:14.000Z</time>
      </trkpt>
      <trkpt lat="44.51438" lon="6.82738">
        <ele>2222</ele>
        <time>2020-02-19T09:13:21.000Z</time>
      </trkpt>
      <trkpt lat="44.51433" lon="6.82753">
        <ele>2228</ele>
        <time>2020-02-19T09:13:36.000Z</time>
      </trkpt>
      <trkpt lat="44.5143" lon="6.8276">
        <ele>2228</ele>
        <time>2020-02-19T09:13:43.000Z</time>
      </trkpt>
      <trkpt lat="44.51427" lon="6.82765">
        <ele>2229</ele>
        <time>2020-02-19T09:13:49.000Z</time>
      </trkpt>
      <trkpt lat="44.51423" lon="6.82775">
        <ele>2231</ele>
        <time>2020-02-19T09:13:59.000Z</time>
      </trkpt>
      <trkpt lat="44.51418" lon="6.82787">
        <ele>2234</ele>
        <time>2020-02-19T09:14:12.000Z</time>
      </trkpt>
      <trkpt lat="44.51415" lon="6.82795">
        <ele>2222</ele>
        <time>2020-02-19T09:14:22.000Z</time>
      </trkpt>
      <trkpt lat="44.51414" lon="6.828">
        <ele>2223</ele>
        <time>2020-02-19T09:14:26.000Z</time>
      </trkpt>
      <trkpt lat="44.51411" lon="6.8281">
        <ele>2225</ele>
        <time>2020-02-19T09:14:35.000Z</time>
      </trkpt>
      <trkpt lat="44.51411" lon="6.82813">
        <ele>2226</ele>
        <time>2020-02-19T09:14:38.000Z</time>
      </trkpt>
      <trkpt lat="44.51409" lon="6.8282">
        <ele>2228</ele>
        <time>2020-02-19T09:14:48.000Z</time>
      </trkpt>
      <trkpt lat="44.51397" lon="6.8285">
        <ele>2236</ele>
        <time>2020-02-19T09:15:20.000Z</time>
      </trkpt>
      <trkpt lat="44.5139" lon="6.82852">
        <ele>2236</ele>
        <time>2020-02-19T09:15:28.000Z</time>
      </trkpt>
      <trkpt lat="44.51381" lon="6.82856">
        <ele>2236</ele>
        <time>2020-02-19T09:15:42.000Z</time>
      </trkpt>
      <trkpt lat="44.51376" lon="6.82864">
        <ele>2236</ele>
        <time>2020-02-19T09:15:52.000Z</time>
      </trkpt>
      <trkpt lat="44.51373" lon="6.82874">
        <ele>2237</ele>
        <time>2020-02-19T09:16:05.000Z</time>
      </trkpt>
      <trkpt lat="44.51373" lon="6.82883">
        <ele>2238</ele>
        <time>2020-02-19T09:16:13.000Z</time>
      </trkpt>
      <trkpt lat="44.51372" lon="6.82888">
        <ele>2238</ele>
        <time>2020-02-19T09:16:20.000Z</time>
      </trkpt>
      <trkpt lat="44.5136" lon="6.82913">
        <ele>2239</ele>
        <time>2020-02-19T09:16:53.000Z</time>
      </trkpt>
      <trkpt lat="44.51358" lon="6.82934">
        <ele>2249</ele>
        <time>2020-02-19T09:17:16.000Z</time>
      </trkpt>
      <trkpt lat="44.51357" lon="6.82939">
        <ele>2249</ele>
        <time>2020-02-19T09:17:21.000Z</time>
      </trkpt>
      <trkpt lat="44.5135" lon="6.82952">
        <ele>2250</ele>
        <time>2020-02-19T09:17:35.000Z</time>
      </trkpt>
      <trkpt lat="44.51343" lon="6.82968">
        <ele>2250</ele>
        <time>2020-02-19T09:17:54.000Z</time>
      </trkpt>
      <trkpt lat="44.51337" lon="6.8298">
        <ele>2250</ele>
        <time>2020-02-19T09:18:10.000Z</time>
      </trkpt>
      <trkpt lat="44.51333" lon="6.8299">
        <ele>2243</ele>
        <time>2020-02-19T09:18:23.000Z</time>
      </trkpt>
      <trkpt lat="44.51328" lon="6.83">
        <ele>2246</ele>
        <time>2020-02-19T09:18:35.000Z</time>
      </trkpt>
      <trkpt lat="44.51327" lon="6.83006">
        <ele>2247</ele>
        <time>2020-02-19T09:18:49.000Z</time>
      </trkpt>
      <trkpt lat="44.51326" lon="6.83012">
        <ele>2247</ele>
        <time>2020-02-19T09:19:09.000Z</time>
      </trkpt>
      <trkpt lat="44.51325" lon="6.83019">
        <ele>2247</ele>
        <time>2020-02-19T09:19:15.000Z</time>
      </trkpt>
      <trkpt lat="44.51325" lon="6.83026">
        <ele>2248</ele>
        <time>2020-02-19T09:19:22.000Z</time>
      </trkpt>
      <trkpt lat="44.51324" lon="6.83028">
        <ele>2248</ele>
        <time>2020-02-19T09:19:24.000Z</time>
      </trkpt>
      <trkpt lat="44.51323" lon="6.83036">
        <ele>2249</ele>
        <time>2020-02-19T09:19:31.000Z</time>
      </trkpt>
      <trkpt lat="44.5132" lon="6.83044">
        <ele>2250</ele>
        <time>2020-02-19T09:19:40.000Z</time>
      </trkpt>
      <trkpt lat="44.51317" lon="6.83051">
        <ele>2251</ele>
        <time>2020-02-19T09:19:47.000Z</time>
      </trkpt>
      <trkpt lat="44.51316" lon="6.8306">
        <ele>2252</ele>
        <time>2020-02-19T09:19:55.000Z</time>
      </trkpt>
      <trkpt lat="44.51314" lon="6.83071">
        <ele>2253</ele>
        <time>2020-02-19T09:20:07.000Z</time>
      </trkpt>
      <trkpt lat="44.5131" lon="6.83086">
        <ele>2260</ele>
        <time>2020-02-19T09:20:22.000Z</time>
      </trkpt>
      <trkpt lat="44.51307" lon="6.83097">
        <ele>2260</ele>
        <time>2020-02-19T09:20:34.000Z</time>
      </trkpt>
      <trkpt lat="44.51307" lon="6.83101">
        <ele>2260</ele>
        <time>2020-02-19T09:20:38.000Z</time>
      </trkpt>
      <trkpt lat="44.51306" lon="6.83104">
        <ele>2260</ele>
        <time>2020-02-19T09:20:42.000Z</time>
      </trkpt>
      <trkpt lat="44.51303" lon="6.83113">
        <ele>2260</ele>
        <time>2020-02-19T09:20:52.000Z</time>
      </trkpt>
      <trkpt lat="44.51302" lon="6.83116">
        <ele>2260</ele>
        <time>2020-02-19T09:20:56.000Z</time>
      </trkpt>
      <trkpt lat="44.51301" lon="6.83122">
        <ele>2260</ele>
        <time>2020-02-19T09:21:04.000Z</time>
      </trkpt>
      <trkpt lat="44.513" lon="6.83129">
        <ele>2261</ele>
        <time>2020-02-19T09:21:10.000Z</time>
      </trkpt>
      <trkpt lat="44.51296" lon="6.83141">
        <ele>2261</ele>
        <time>2020-02-19T09:21:21.000Z</time>
      </trkpt>
      <trkpt lat="44.51295" lon="6.83146">
        <ele>2261</ele>
        <time>2020-02-19T09:21:25.000Z</time>
      </trkpt>
      <trkpt lat="44.51293" lon="6.83154">
        <ele>2262</ele>
        <time>2020-02-19T09:21:30.000Z</time>
      </trkpt>
      <trkpt lat="44.51291" lon="6.83161">
        <ele>2262</ele>
        <time>2020-02-19T09:21:36.000Z</time>
      </trkpt>
      <trkpt lat="44.51288" lon="6.83171">
        <ele>2270</ele>
        <time>2020-02-19T09:21:44.000Z</time>
      </trkpt>
      <trkpt lat="44.51284" lon="6.83177">
        <ele>2270</ele>
        <time>2020-02-19T09:21:50.000Z</time>
      </trkpt>
      <trkpt lat="44.51281" lon="6.83185">
        <ele>2270</ele>
        <time>2020-02-19T09:21:57.000Z</time>
      </trkpt>
      <trkpt lat="44.51277" lon="6.83196">
        <ele>2271</ele>
        <time>2020-02-19T09:22:05.000Z</time>
      </trkpt>
      <trkpt lat="44.51271" lon="6.8321">
        <ele>2272</ele>
        <time>2020-02-19T09:22:18.000Z</time>
      </trkpt>
      <trkpt lat="44.51268" lon="6.83214">
        <ele>2272</ele>
        <time>2020-02-19T09:22:23.000Z</time>
      </trkpt>
      <trkpt lat="44.51265" lon="6.83217">
        <ele>2272</ele>
        <time>2020-02-19T09:22:27.000Z</time>
      </trkpt>
      <trkpt lat="44.51262" lon="6.83227">
        <ele>2272</ele>
        <time>2020-02-19T09:22:35.000Z</time>
      </trkpt>
      <trkpt lat="44.5126" lon="6.83233">
        <ele>2272</ele>
        <time>2020-02-19T09:22:40.000Z</time>
      </trkpt>
      <trkpt lat="44.51254" lon="6.83242">
        <ele>2272</ele>
        <time>2020-02-19T09:22:49.000Z</time>
      </trkpt>
      <trkpt lat="44.51246" lon="6.83256">
        <ele>2271</ele>
        <time>2020-02-19T09:23:11.000Z</time>
      </trkpt>
      <trkpt lat="44.51246" lon="6.83259">
        <ele>2272</ele>
        <time>2020-02-19T09:23:13.000Z</time>
      </trkpt>
      <trkpt lat="44.51241" lon="6.83273">
        <ele>2273</ele>
        <time>2020-02-19T09:23:25.000Z</time>
      </trkpt>
      <trkpt lat="44.51239" lon="6.8328">
        <ele>2273</ele>
        <time>2020-02-19T09:23:32.000Z</time>
      </trkpt>
      <trkpt lat="44.51229" lon="6.83296">
        <ele>2274</ele>
        <time>2020-02-19T09:23:44.000Z</time>
      </trkpt>
      <trkpt lat="44.51226" lon="6.83314">
        <ele>2276</ele>
        <time>2020-02-19T09:23:58.000Z</time>
      </trkpt>
      <trkpt lat="44.51222" lon="6.83321">
        <ele>2277</ele>
        <time>2020-02-19T09:24:04.000Z</time>
      </trkpt>
      <trkpt lat="44.51215" lon="6.83342">
        <ele>2287</ele>
        <time>2020-02-19T09:24:19.000Z</time>
      </trkpt>
      <trkpt lat="44.51206" lon="6.83371">
        <ele>2288</ele>
        <time>2020-02-19T09:24:42.000Z</time>
      </trkpt>
      <trkpt lat="44.51204" lon="6.83373">
        <ele>2288</ele>
        <time>2020-02-19T09:24:45.000Z</time>
      </trkpt>
      <trkpt lat="44.512" lon="6.83381">
        <ele>2289</ele>
        <time>2020-02-19T09:24:53.000Z</time>
      </trkpt>
      <trkpt lat="44.51199" lon="6.83388">
        <ele>2289</ele>
        <time>2020-02-19T09:24:59.000Z</time>
      </trkpt>
      <trkpt lat="44.51196" lon="6.83397">
        <ele>2289</ele>
        <time>2020-02-19T09:25:06.000Z</time>
      </trkpt>
      <trkpt lat="44.51194" lon="6.83401">
        <ele>2289</ele>
        <time>2020-02-19T09:25:11.000Z</time>
      </trkpt>
      <trkpt lat="44.5119" lon="6.83409">
        <ele>2289</ele>
        <time>2020-02-19T09:25:20.000Z</time>
      </trkpt>
      <trkpt lat="44.51187" lon="6.83417">
        <ele>2299</ele>
        <time>2020-02-19T09:25:29.000Z</time>
      </trkpt>
      <trkpt lat="44.51185" lon="6.83418">
        <ele>2298</ele>
        <time>2020-02-19T09:25:44.000Z</time>
      </trkpt>
      <trkpt lat="44.5118" lon="6.83425">
        <ele>2297</ele>
        <time>2020-02-19T09:25:53.000Z</time>
      </trkpt>
      <trkpt lat="44.51175" lon="6.83432">
        <ele>2298</ele>
        <time>2020-02-19T09:26:01.000Z</time>
      </trkpt>
      <trkpt lat="44.51164" lon="6.83454">
        <ele>2292</ele>
        <time>2020-02-19T09:26:27.000Z</time>
      </trkpt>
      <trkpt lat="44.5116" lon="6.8346">
        <ele>2292</ele>
        <time>2020-02-19T09:26:36.000Z</time>
      </trkpt>
      <trkpt lat="44.51159" lon="6.83463">
        <ele>2293</ele>
        <time>2020-02-19T09:26:39.000Z</time>
      </trkpt>
      <trkpt lat="44.51156" lon="6.83469">
        <ele>2294</ele>
        <time>2020-02-19T09:26:50.000Z</time>
      </trkpt>
      <trkpt lat="44.51152" lon="6.83477">
        <ele>2295</ele>
        <time>2020-02-19T09:27:00.000Z</time>
      </trkpt>
      <trkpt lat="44.51148" lon="6.83483">
        <ele>2296</ele>
        <time>2020-02-19T09:27:07.000Z</time>
      </trkpt>
      <trkpt lat="44.51147" lon="6.83486">
        <ele>2296</ele>
        <time>2020-02-19T09:27:10.000Z</time>
      </trkpt>
      <trkpt lat="44.51146" lon="6.83495">
        <ele>2297</ele>
        <time>2020-02-19T09:27:21.000Z</time>
      </trkpt>
      <trkpt lat="44.51145" lon="6.83496">
        <ele>2297</ele>
        <time>2020-02-19T09:27:25.000Z</time>
      </trkpt>
      <trkpt lat="44.51144" lon="6.83498">
        <ele>2297</ele>
        <time>2020-02-19T09:27:27.000Z</time>
      </trkpt>
      <trkpt lat="44.51137" lon="6.83517">
        <ele>2307</ele>
        <time>2020-02-19T09:27:54.000Z</time>
      </trkpt>
      <trkpt lat="44.51137" lon="6.83518">
        <ele>2308</ele>
        <time>2020-02-19T09:27:56.000Z</time>
      </trkpt>
      <trkpt lat="44.51137" lon="6.83519">
        <ele>2308</ele>
        <time>2020-02-19T09:28:00.000Z</time>
      </trkpt>
      <trkpt lat="44.51135" lon="6.83523">
        <ele>2308</ele>
        <time>2020-02-19T09:28:08.000Z</time>
      </trkpt>
      <trkpt lat="44.51127" lon="6.83532">
        <ele>2308</ele>
        <time>2020-02-19T09:28:23.000Z</time>
      </trkpt>
      <trkpt lat="44.51125" lon="6.83535">
        <ele>2308</ele>
        <time>2020-02-19T09:28:26.000Z</time>
      </trkpt>
      <trkpt lat="44.51124" lon="6.83538">
        <ele>2308</ele>
        <time>2020-02-19T09:28:29.000Z</time>
      </trkpt>
      <trkpt lat="44.51122" lon="6.83544">
        <ele>2309</ele>
        <time>2020-02-19T09:28:36.000Z</time>
      </trkpt>
      <trkpt lat="44.51119" lon="6.83549">
        <ele>2309</ele>
        <time>2020-02-19T09:28:42.000Z</time>
      </trkpt>
      <trkpt lat="44.51118" lon="6.83552">
        <ele>2309</ele>
        <time>2020-02-19T09:28:45.000Z</time>
      </trkpt>
      <trkpt lat="44.51117" lon="6.83555">
        <ele>2309</ele>
        <time>2020-02-19T09:28:47.000Z</time>
      </trkpt>
      <trkpt lat="44.51116" lon="6.83559">
        <ele>2309</ele>
        <time>2020-02-19T09:28:50.000Z</time>
      </trkpt>
      <trkpt lat="44.51115" lon="6.83561">
        <ele>2309</ele>
        <time>2020-02-19T09:28:52.000Z</time>
      </trkpt>
      <trkpt lat="44.51113" lon="6.83564">
        <ele>2309</ele>
        <time>2020-02-19T09:28:55.000Z</time>
      </trkpt>
      <trkpt lat="44.51112" lon="6.83567">
        <ele>2309</ele>
        <time>2020-02-19T09:28:57.000Z</time>
      </trkpt>
      <trkpt lat="44.51107" lon="6.83574">
        <ele>2308</ele>
        <time>2020-02-19T09:29:03.000Z</time>
      </trkpt>
      <trkpt lat="44.51098" lon="6.83588">
        <ele>2315</ele>
        <time>2020-02-19T09:29:16.000Z</time>
      </trkpt>
      <trkpt lat="44.51094" lon="6.83593">
        <ele>2314</ele>
        <time>2020-02-19T09:29:22.000Z</time>
      </trkpt>
      <trkpt lat="44.51093" lon="6.83596">
        <ele>2315</ele>
        <time>2020-02-19T09:29:25.000Z</time>
      </trkpt>
      <trkpt lat="44.51091" lon="6.83602">
        <ele>2317</ele>
        <time>2020-02-19T09:29:30.000Z</time>
      </trkpt>
      <trkpt lat="44.51088" lon="6.83605">
        <ele>2317</ele>
        <time>2020-02-19T09:29:35.000Z</time>
      </trkpt>
      <trkpt lat="44.51086" lon="6.83609">
        <ele>2319</ele>
        <time>2020-02-19T09:29:41.000Z</time>
      </trkpt>
      <trkpt lat="44.51083" lon="6.83616">
        <ele>2320</ele>
        <time>2020-02-19T09:29:49.000Z</time>
      </trkpt>
      <trkpt lat="44.51083" lon="6.83625">
        <ele>2307</ele>
        <time>2020-02-19T09:29:59.000Z</time>
      </trkpt>
      <trkpt lat="44.51083" lon="6.83629">
        <ele>2307</ele>
        <time>2020-02-19T09:30:03.000Z</time>
      </trkpt>
      <trkpt lat="44.51087" lon="6.83637">
        <ele>2324</ele>
        <time>2020-02-19T09:30:13.000Z</time>
      </trkpt>
      <trkpt lat="44.51087" lon="6.8365">
        <ele>2323</ele>
        <time>2020-02-19T09:30:33.000Z</time>
      </trkpt>
      <trkpt lat="44.51093" lon="6.83647">
        <ele>2324</ele>
        <time>2020-02-19T09:30:53.000Z</time>
      </trkpt>
      <trkpt lat="44.51096" lon="6.83644">
        <ele>2325</ele>
        <time>2020-02-19T09:31:06.000Z</time>
      </trkpt>
      <trkpt lat="44.51109" lon="6.83636">
        <ele>2326</ele>
        <time>2020-02-19T09:31:32.000Z</time>
      </trkpt>
      <trkpt lat="44.5111" lon="6.83636">
        <ele>2326</ele>
        <time>2020-02-19T09:31:35.000Z</time>
      </trkpt>
      <trkpt lat="44.51111" lon="6.83634">
        <ele>2327</ele>
        <time>2020-02-19T09:31:40.000Z</time>
      </trkpt>
      <trkpt lat="44.5111" lon="6.83633">
        <ele>2326</ele>
        <time>2020-02-19T09:31:52.000Z</time>
      </trkpt>
      <trkpt lat="44.5111" lon="6.83634">
        <ele>2326</ele>
        <time>2020-02-19T09:32:13.000Z</time>
      </trkpt>
      <trkpt lat="44.51106" lon="6.83633">
        <ele>2326</ele>
        <time>2020-02-19T09:32:28.000Z</time>
      </trkpt>
      <trkpt lat="44.51107" lon="6.83634">
        <ele>2326</ele>
        <time>2020-02-19T09:32:36.000Z</time>
      </trkpt>
      <trkpt lat="44.51106" lon="6.83635">
        <ele>2326</ele>
        <time>2020-02-19T09:32:42.000Z</time>
      </trkpt>
      <trkpt lat="44.51106" lon="6.83635">
        <ele>2326</ele>
        <time>2020-02-19T09:32:47.000Z</time>
      </trkpt>
      <trkpt lat="44.51107" lon="6.83636">
        <ele>2326</ele>
        <time>2020-02-19T09:32:51.000Z</time>
      </trkpt>
      <trkpt lat="44.51105" lon="6.83636">
        <ele>2326</ele>
        <time>2020-02-19T09:33:01.000Z</time>
      </trkpt>
      <trkpt lat="44.51101" lon="6.83636">
        <ele>2325</ele>
        <time>2020-02-19T09:33:11.000Z</time>
      </trkpt>
      <trkpt lat="44.51104" lon="6.8364">
        <ele>2326</ele>
        <time>2020-02-19T09:33:25.000Z</time>
      </trkpt>
      <trkpt lat="44.51108" lon="6.83638">
        <ele>2326</ele>
        <time>2020-02-19T09:33:33.000Z</time>
      </trkpt>
      <trkpt lat="44.51096" lon="6.83628">
        <ele>2324</ele>
        <time>2020-02-19T09:33:37.000Z</time>
      </trkpt>
      <trkpt lat="44.51104" lon="6.83633">
        <ele>2325</ele>
        <time>2020-02-19T09:33:49.000Z</time>
      </trkpt>
      <trkpt lat="44.51104" lon="6.83633">
        <ele>2325</ele>
        <time>2020-02-19T09:33:51.000Z</time>
      </trkpt>
      <trkpt lat="44.51105" lon="6.83634">
        <ele>2326</ele>
        <time>2020-02-19T09:33:53.000Z</time>
      </trkpt>
      <trkpt lat="44.51107" lon="6.83637">
        <ele>2326</ele>
        <time>2020-02-19T09:34:00.000Z</time>
      </trkpt>
      <trkpt lat="44.51108" lon="6.83638">
        <ele>2326</ele>
        <time>2020-02-19T09:34:20.000Z</time>
      </trkpt>
      <trkpt lat="44.51107" lon="6.8364">
        <ele>2326</ele>
        <time>2020-02-19T09:34:31.000Z</time>
      </trkpt>
      <trkpt lat="44.51106" lon="6.8364">
        <ele>2326</ele>
        <time>2020-02-19T09:34:35.000Z</time>
      </trkpt>
      <trkpt lat="44.51105" lon="6.8364">
        <ele>2326</ele>
        <time>2020-02-19T09:34:42.000Z</time>
      </trkpt>
      <trkpt lat="44.51105" lon="6.8364">
        <ele>2326</ele>
        <time>2020-02-19T09:34:47.000Z</time>
      </trkpt>
      <trkpt lat="44.51107" lon="6.83642">
        <ele>2326</ele>
        <time>2020-02-19T09:34:52.000Z</time>
      </trkpt>
      <trkpt lat="44.51107" lon="6.83643">
        <ele>2326</ele>
        <time>2020-02-19T09:35:00.000Z</time>
      </trkpt>
      <trkpt lat="44.51102" lon="6.83642">
        <ele>2326</ele>
        <time>2020-02-19T09:35:16.000Z</time>
      </trkpt>
      <trkpt lat="44.51102" lon="6.83642">
        <ele>2325</ele>
        <time>2020-02-19T09:35:20.000Z</time>
      </trkpt>
      <trkpt lat="44.51102" lon="6.83638">
        <ele>2325</ele>
        <time>2020-02-19T09:35:29.000Z</time>
      </trkpt>
      <trkpt lat="44.51105" lon="6.83634">
        <ele>2326</ele>
        <time>2020-02-19T09:35:46.000Z</time>
      </trkpt>
      <trkpt lat="44.51106" lon="6.83635">
        <ele>2326</ele>
        <time>2020-02-19T09:35:53.000Z</time>
      </trkpt>
      <trkpt lat="44.51108" lon="6.83637">
        <ele>2326</ele>
        <time>2020-02-19T09:36:04.000Z</time>
      </trkpt>
      <trkpt lat="44.51109" lon="6.83638">
        <ele>2326</ele>
        <time>2020-02-19T09:36:07.000Z</time>
      </trkpt>
      <trkpt lat="44.51108" lon="6.83638">
        <ele>2326</ele>
        <time>2020-02-19T09:36:21.000Z</time>
      </trkpt>
      <trkpt lat="44.51107" lon="6.83638">
        <ele>2326</ele>
        <time>2020-02-19T09:36:25.000Z</time>
      </trkpt>
      <trkpt lat="44.51108" lon="6.83637">
        <ele>2326</ele>
        <time>2020-02-19T09:36:28.000Z</time>
      </trkpt>
      <trkpt lat="44.51104" lon="6.83638">
        <ele>2326</ele>
        <time>2020-02-19T09:36:43.000Z</time>
      </trkpt>
      <trkpt lat="44.51104" lon="6.83638">
        <ele>2326</ele>
        <time>2020-02-19T09:36:48.000Z</time>
      </trkpt>
      <trkpt lat="44.51105" lon="6.83638">
        <ele>2326</ele>
        <time>2020-02-19T09:36:53.000Z</time>
      </trkpt>
      <trkpt lat="44.51105" lon="6.83638">
        <ele>2326</ele>
        <time>2020-02-19T09:36:55.000Z</time>
      </trkpt>
      <trkpt lat="44.51107" lon="6.83637">
        <ele>2326</ele>
        <time>2020-02-19T09:37:04.000Z</time>
      </trkpt>
      <trkpt lat="44.51108" lon="6.83642">
        <ele>2327</ele>
        <time>2020-02-19T09:37:18.000Z</time>
      </trkpt>
      <trkpt lat="44.51109" lon="6.83644">
        <ele>2327</ele>
        <time>2020-02-19T09:37:21.000Z</time>
      </trkpt>
      <trkpt lat="44.51111" lon="6.83645">
        <ele>2327</ele>
        <time>2020-02-19T09:37:25.000Z</time>
      </trkpt>
      <trkpt lat="44.51111" lon="6.83645">
        <ele>2327</ele>
        <time>2020-02-19T09:37:41.000Z</time>
      </trkpt>
      <trkpt lat="44.51113" lon="6.83648">
        <ele>2328</ele>
        <time>2020-02-19T09:38:00.000Z</time>
      </trkpt>
      <trkpt lat="44.51111" lon="6.83648">
        <ele>2327</ele>
        <time>2020-02-19T09:38:06.000Z</time>
      </trkpt>
      <trkpt lat="44.51111" lon="6.83648">
        <ele>2327</ele>
        <time>2020-02-19T09:38:44.000Z</time>
      </trkpt>
      <trkpt lat="44.5111" lon="6.83648">
        <ele>2327</ele>
        <time>2020-02-19T09:38:51.000Z</time>
      </trkpt>
      <trkpt lat="44.5111" lon="6.83649">
        <ele>2327</ele>
        <time>2020-02-19T09:39:01.000Z</time>
      </trkpt>
      <trkpt lat="44.51113" lon="6.83647">
        <ele>2328</ele>
        <time>2020-02-19T09:39:17.000Z</time>
      </trkpt>
      <trkpt lat="44.51112" lon="6.8365">
        <ele>2328</ele>
        <time>2020-02-19T09:39:44.000Z</time>
      </trkpt>
      <trkpt lat="44.51111" lon="6.8365">
        <ele>2328</ele>
        <time>2020-02-19T09:39:47.000Z</time>
      </trkpt>
      <trkpt lat="44.5111" lon="6.8365">
        <ele>2327</ele>
        <time>2020-02-19T09:39:53.000Z</time>
      </trkpt>
      <trkpt lat="44.5111" lon="6.8365">
        <ele>2327</ele>
        <time>2020-02-19T09:39:56.000Z</time>
      </trkpt>
      <trkpt lat="44.5111" lon="6.83649">
        <ele>2327</ele>
        <time>2020-02-19T09:39:59.000Z</time>
      </trkpt>
      <trkpt lat="44.51112" lon="6.8365">
        <ele>2328</ele>
        <time>2020-02-19T09:40:16.000Z</time>
      </trkpt>
      <trkpt lat="44.51112" lon="6.83651">
        <ele>2328</ele>
        <time>2020-02-19T09:40:20.000Z</time>
      </trkpt>
      <trkpt lat="44.51112" lon="6.83649">
        <ele>2328</ele>
        <time>2020-02-19T09:40:37.000Z</time>
      </trkpt>
      <trkpt lat="44.51113" lon="6.83648">
        <ele>2328</ele>
        <time>2020-02-19T09:40:41.000Z</time>
      </trkpt>
      <trkpt lat="44.51112" lon="6.83651">
        <ele>2328</ele>
        <time>2020-02-19T09:40:51.000Z</time>
      </trkpt>
      <trkpt lat="44.51112" lon="6.8365">
        <ele>2328</ele>
        <time>2020-02-19T09:41:00.000Z</time>
      </trkpt>
      <trkpt lat="44.51113" lon="6.83649">
        <ele>2328</ele>
        <time>2020-02-19T09:41:04.000Z</time>
      </trkpt>
      <trkpt lat="44.51114" lon="6.8365">
        <ele>2328</ele>
        <time>2020-02-19T09:41:14.000Z</time>
      </trkpt>
      <trkpt lat="44.51113" lon="6.83649">
        <ele>2328</ele>
        <time>2020-02-19T09:41:17.000Z</time>
      </trkpt>
      <trkpt lat="44.51113" lon="6.83649">
        <ele>2328</ele>
        <time>2020-02-19T09:41:28.000Z</time>
      </trkpt>
      <trkpt lat="44.51112" lon="6.83648">
        <ele>2328</ele>
        <time>2020-02-19T09:41:34.000Z</time>
      </trkpt>
      <trkpt lat="44.51112" lon="6.8365">
        <ele>2328</ele>
        <time>2020-02-19T09:41:44.000Z</time>
      </trkpt>
      <trkpt lat="44.51112" lon="6.83651">
        <ele>2328</ele>
        <time>2020-02-19T09:41:49.000Z</time>
      </trkpt>
      <trkpt lat="44.51114" lon="6.83648">
        <ele>2328</ele>
        <time>2020-02-19T09:41:57.000Z</time>
      </trkpt>
      <trkpt lat="44.51115" lon="6.83647">
        <ele>2328</ele>
        <time>2020-02-19T09:42:00.000Z</time>
      </trkpt>
      <trkpt lat="44.51113" lon="6.83648">
        <ele>2328</ele>
        <time>2020-02-19T09:42:07.000Z</time>
      </trkpt>
      <trkpt lat="44.51113" lon="6.83649">
        <ele>2328</ele>
        <time>2020-02-19T09:42:12.000Z</time>
      </trkpt>
      <trkpt lat="44.51114" lon="6.83649">
        <ele>2328</ele>
        <time>2020-02-19T09:42:21.000Z</time>
      </trkpt>
      <trkpt lat="44.51115" lon="6.8365">
        <ele>2328</ele>
        <time>2020-02-19T09:42:25.000Z</time>
      </trkpt>
      <trkpt lat="44.51114" lon="6.8365">
        <ele>2328</ele>
        <time>2020-02-19T09:42:29.000Z</time>
      </trkpt>
      <trkpt lat="44.51113" lon="6.83649">
        <ele>2328</ele>
        <time>2020-02-19T09:42:33.000Z</time>
      </trkpt>
      <trkpt lat="44.51114" lon="6.83649">
        <ele>2328</ele>
        <time>2020-02-19T09:42:36.000Z</time>
      </trkpt>
      <trkpt lat="44.51114" lon="6.8365">
        <ele>2328</ele>
        <time>2020-02-19T09:42:41.000Z</time>
      </trkpt>
      <trkpt lat="44.51114" lon="6.83652">
        <ele>2328</ele>
        <time>2020-02-19T09:42:46.000Z</time>
      </trkpt>
      <trkpt lat="44.51112" lon="6.83649">
        <ele>2328</ele>
        <time>2020-02-19T09:43:02.000Z</time>
      </trkpt>
      <trkpt lat="44.51114" lon="6.83647">
        <ele>2328</ele>
        <time>2020-02-19T09:43:21.000Z</time>
      </trkpt>
      <trkpt lat="44.51115" lon="6.83648">
        <ele>2328</ele>
        <time>2020-02-19T09:43:29.000Z</time>
      </trkpt>
      <trkpt lat="44.51114" lon="6.83648">
        <ele>2328</ele>
        <time>2020-02-19T09:43:34.000Z</time>
      </trkpt>
      <trkpt lat="44.51114" lon="6.83646">
        <ele>2328</ele>
        <time>2020-02-19T09:43:48.000Z</time>
      </trkpt>
      <trkpt lat="44.51114" lon="6.83647">
        <ele>2328</ele>
        <time>2020-02-19T09:43:53.000Z</time>
      </trkpt>
      <trkpt lat="44.51113" lon="6.83646">
        <ele>2328</ele>
        <time>2020-02-19T09:44:12.000Z</time>
      </trkpt>
      <trkpt lat="44.51112" lon="6.83648">
        <ele>2328</ele>
        <time>2020-02-19T09:44:19.000Z</time>
      </trkpt>
      <trkpt lat="44.51111" lon="6.8365">
        <ele>2327</ele>
        <time>2020-02-19T09:44:27.000Z</time>
      </trkpt>
      <trkpt lat="44.51114" lon="6.83654">
        <ele>2328</ele>
        <time>2020-02-19T09:44:37.000Z</time>
      </trkpt>
      <trkpt lat="44.51113" lon="6.83652">
        <ele>2328</ele>
        <time>2020-02-19T09:44:52.000Z</time>
      </trkpt>
      <trkpt lat="44.51114" lon="6.83656">
        <ele>2328</ele>
        <time>2020-02-19T09:45:10.000Z</time>
      </trkpt>
      <trkpt lat="44.51112" lon="6.83659">
        <ele>2328</ele>
        <time>2020-02-19T09:45:23.000Z</time>
      </trkpt>
      <trkpt lat="44.51113" lon="6.83663">
        <ele>2328</ele>
        <time>2020-02-19T09:45:29.000Z</time>
      </trkpt>
      <trkpt lat="44.51114" lon="6.83666">
        <ele>2329</ele>
        <time>2020-02-19T09:45:33.000Z</time>
      </trkpt>
      <trkpt lat="44.51116" lon="6.83673">
        <ele>2337</ele>
        <time>2020-02-19T09:45:43.000Z</time>
      </trkpt>
      <trkpt lat="44.5112" lon="6.83675">
        <ele>2338</ele>
        <time>2020-02-19T09:45:51.000Z</time>
      </trkpt>
      <trkpt lat="44.51124" lon="6.83682">
        <ele>2340</ele>
        <time>2020-02-19T09:46:02.000Z</time>
      </trkpt>
      <trkpt lat="44.5113" lon="6.83697">
        <ele>2341</ele>
        <time>2020-02-19T09:46:26.000Z</time>
      </trkpt>
      <trkpt lat="44.51129" lon="6.83702">
        <ele>2341</ele>
        <time>2020-02-19T09:46:34.000Z</time>
      </trkpt>
      <trkpt lat="44.51129" lon="6.83706">
        <ele>2341</ele>
        <time>2020-02-19T09:46:52.000Z</time>
      </trkpt>
      <trkpt lat="44.51131" lon="6.83705">
        <ele>2342</ele>
        <time>2020-02-19T09:46:56.000Z</time>
      </trkpt>
      <trkpt lat="44.51137" lon="6.83706">
        <ele>2343</ele>
        <time>2020-02-19T09:47:05.000Z</time>
      </trkpt>
      <trkpt lat="44.51137" lon="6.83705">
        <ele>2343</ele>
        <time>2020-02-19T09:47:07.000Z</time>
      </trkpt>
      <trkpt lat="44.51138" lon="6.83705">
        <ele>2343</ele>
        <time>2020-02-19T09:47:09.000Z</time>
      </trkpt>
      <trkpt lat="44.51138" lon="6.83715">
        <ele>2343</ele>
        <time>2020-02-19T09:47:25.000Z</time>
      </trkpt>
      <trkpt lat="44.51136" lon="6.83718">
        <ele>2343</ele>
        <time>2020-02-19T09:47:30.000Z</time>
      </trkpt>
      <trkpt lat="44.51135" lon="6.8372">
        <ele>2343</ele>
        <time>2020-02-19T09:47:40.000Z</time>
      </trkpt>
      <trkpt lat="44.51135" lon="6.83724">
        <ele>2344</ele>
        <time>2020-02-19T09:47:51.000Z</time>
      </trkpt>
      <trkpt lat="44.51136" lon="6.83726">
        <ele>2344</ele>
        <time>2020-02-19T09:47:55.000Z</time>
      </trkpt>
      <trkpt lat="44.51138" lon="6.83729">
        <ele>2344</ele>
        <time>2020-02-19T09:48:02.000Z</time>
      </trkpt>
      <trkpt lat="44.51139" lon="6.83737">
        <ele>2345</ele>
        <time>2020-02-19T09:48:16.000Z</time>
      </trkpt>
      <trkpt lat="44.51151" lon="6.83733">
        <ele>2348</ele>
        <time>2020-02-19T09:48:38.000Z</time>
      </trkpt>
      <trkpt lat="44.51152" lon="6.83733">
        <ele>2348</ele>
        <time>2020-02-19T09:49:18.000Z</time>
      </trkpt>
      <trkpt lat="44.5116" lon="6.8373">
        <ele>2349</ele>
        <time>2020-02-19T09:49:28.000Z</time>
      </trkpt>
      <trkpt lat="44.51166" lon="6.8373">
        <ele>2350</ele>
        <time>2020-02-19T09:49:36.000Z</time>
      </trkpt>
      <trkpt lat="44.51167" lon="6.8373">
        <ele>2368</ele>
        <time>2020-02-19T09:49:39.000Z</time>
      </trkpt>
      <trkpt lat="44.51168" lon="6.83735">
        <ele>2367</ele>
        <time>2020-02-19T09:49:43.000Z</time>
      </trkpt>
      <trkpt lat="44.51168" lon="6.83741">
        <ele>2365</ele>
        <time>2020-02-19T09:49:47.000Z</time>
      </trkpt>
      <trkpt lat="44.51169" lon="6.83747">
        <ele>2362</ele>
        <time>2020-02-19T09:49:52.000Z</time>
      </trkpt>
      <trkpt lat="44.51168" lon="6.8375">
        <ele>2360</ele>
        <time>2020-02-19T09:49:56.000Z</time>
      </trkpt>
      <trkpt lat="44.51168" lon="6.83756">
        <ele>2364</ele>
        <time>2020-02-19T09:50:02.000Z</time>
      </trkpt>
      <trkpt lat="44.51168" lon="6.83759">
        <ele>2365</ele>
        <time>2020-02-19T09:50:04.000Z</time>
      </trkpt>
      <trkpt lat="44.51166" lon="6.83769">
        <ele>2353</ele>
        <time>2020-02-19T09:50:14.000Z</time>
      </trkpt>
      <trkpt lat="44.51163" lon="6.83779">
        <ele>2352</ele>
        <time>2020-02-19T09:50:25.000Z</time>
      </trkpt>
      <trkpt lat="44.51162" lon="6.83787">
        <ele>2352</ele>
        <time>2020-02-19T09:50:38.000Z</time>
      </trkpt>
      <trkpt lat="44.51164" lon="6.83797">
        <ele>2352</ele>
        <time>2020-02-19T09:50:53.000Z</time>
      </trkpt>
      <trkpt lat="44.51166" lon="6.83803">
        <ele>2353</ele>
        <time>2020-02-19T09:51:01.000Z</time>
      </trkpt>
      <trkpt lat="44.51166" lon="6.83807">
        <ele>2354</ele>
        <time>2020-02-19T09:51:06.000Z</time>
      </trkpt>
      <trkpt lat="44.51167" lon="6.8381">
        <ele>2354</ele>
        <time>2020-02-19T09:51:11.000Z</time>
      </trkpt>
      <trkpt lat="44.51172" lon="6.8382">
        <ele>2370</ele>
        <time>2020-02-19T09:51:27.000Z</time>
      </trkpt>
      <trkpt lat="44.51176" lon="6.83837">
        <ele>2370</ele>
        <time>2020-02-19T09:51:55.000Z</time>
      </trkpt>
      <trkpt lat="44.51176" lon="6.83843">
        <ele>2373</ele>
        <time>2020-02-19T09:52:03.000Z</time>
      </trkpt>
      <trkpt lat="44.51181" lon="6.83844">
        <ele>2375</ele>
        <time>2020-02-19T09:52:09.000Z</time>
      </trkpt>
      <trkpt lat="44.51185" lon="6.83839">
        <ele>2376</ele>
        <time>2020-02-19T09:52:17.000Z</time>
      </trkpt>
      <trkpt lat="44.51197" lon="6.83829">
        <ele>2377</ele>
        <time>2020-02-19T09:52:35.000Z</time>
      </trkpt>
      <trkpt lat="44.51202" lon="6.83828">
        <ele>2379</ele>
        <time>2020-02-19T09:52:42.000Z</time>
      </trkpt>
      <trkpt lat="44.51206" lon="6.83823">
        <ele>2380</ele>
        <time>2020-02-19T09:52:52.000Z</time>
      </trkpt>
      <trkpt lat="44.51218" lon="6.83809">
        <ele>2383</ele>
        <time>2020-02-19T09:53:21.000Z</time>
      </trkpt>
      <trkpt lat="44.51228" lon="6.83801">
        <ele>2385</ele>
        <time>2020-02-19T09:53:36.000Z</time>
      </trkpt>
      <trkpt lat="44.51236" lon="6.83802">
        <ele>2387</ele>
        <time>2020-02-19T09:53:53.000Z</time>
      </trkpt>
      <trkpt lat="44.51235" lon="6.83806">
        <ele>2387</ele>
        <time>2020-02-19T09:54:23.000Z</time>
      </trkpt>
      <trkpt lat="44.51234" lon="6.83813">
        <ele>2388</ele>
        <time>2020-02-19T09:54:34.000Z</time>
      </trkpt>
      <trkpt lat="44.51237" lon="6.83824">
        <ele>2390</ele>
        <time>2020-02-19T09:54:56.000Z</time>
      </trkpt>
      <trkpt lat="44.51235" lon="6.83835">
        <ele>2393</ele>
        <time>2020-02-19T09:55:15.000Z</time>
      </trkpt>
      <trkpt lat="44.51237" lon="6.83854">
        <ele>2392</ele>
        <time>2020-02-19T09:55:41.000Z</time>
      </trkpt>
      <trkpt lat="44.51238" lon="6.83865">
        <ele>2391</ele>
        <time>2020-02-19T09:55:54.000Z</time>
      </trkpt>
      <trkpt lat="44.51243" lon="6.83871">
        <ele>2392</ele>
        <time>2020-02-19T09:56:03.000Z</time>
      </trkpt>
      <trkpt lat="44.51245" lon="6.83879">
        <ele>2393</ele>
        <time>2020-02-19T09:56:11.000Z</time>
      </trkpt>
      <trkpt lat="44.51244" lon="6.83882">
        <ele>2394</ele>
        <time>2020-02-19T09:56:15.000Z</time>
      </trkpt>
      <trkpt lat="44.51245" lon="6.83884">
        <ele>2394</ele>
        <time>2020-02-19T09:56:18.000Z</time>
      </trkpt>
      <trkpt lat="44.51247" lon="6.83897">
        <ele>2398</ele>
        <time>2020-02-19T09:56:36.000Z</time>
      </trkpt>
      <trkpt lat="44.51249" lon="6.83905">
        <ele>2402</ele>
        <time>2020-02-19T09:57:12.000Z</time>
      </trkpt>
      <trkpt lat="44.51252" lon="6.83898">
        <ele>2416</ele>
        <time>2020-02-19T09:57:23.000Z</time>
      </trkpt>
      <trkpt lat="44.51254" lon="6.83892">
        <ele>2417</ele>
        <time>2020-02-19T09:57:31.000Z</time>
      </trkpt>
      <trkpt lat="44.51255" lon="6.83889">
        <ele>2417</ele>
        <time>2020-02-19T09:57:39.000Z</time>
      </trkpt>
      <trkpt lat="44.51259" lon="6.83883">
        <ele>2418</ele>
        <time>2020-02-19T09:57:49.000Z</time>
      </trkpt>
      <trkpt lat="44.5126" lon="6.83881">
        <ele>2418</ele>
        <time>2020-02-19T09:57:56.000Z</time>
      </trkpt>
      <trkpt lat="44.51268" lon="6.83875">
        <ele>2419</ele>
        <time>2020-02-19T09:58:22.000Z</time>
      </trkpt>
      <trkpt lat="44.51275" lon="6.83866">
        <ele>2419</ele>
        <time>2020-02-19T09:58:39.000Z</time>
      </trkpt>
      <trkpt lat="44.51276" lon="6.83858">
        <ele>2419</ele>
        <time>2020-02-19T09:58:51.000Z</time>
      </trkpt>
      <trkpt lat="44.51283" lon="6.83854">
        <ele>2420</ele>
        <time>2020-02-19T09:59:06.000Z</time>
      </trkpt>
      <trkpt lat="44.51289" lon="6.83851">
        <ele>2422</ele>
        <time>2020-02-19T09:59:16.000Z</time>
      </trkpt>
      <trkpt lat="44.51297" lon="6.83842">
        <ele>2425</ele>
        <time>2020-02-19T09:59:31.000Z</time>
      </trkpt>
      <trkpt lat="44.51299" lon="6.83839">
        <ele>2425</ele>
        <time>2020-02-19T09:59:40.000Z</time>
      </trkpt>
      <trkpt lat="44.51306" lon="6.83838">
        <ele>2428</ele>
        <time>2020-02-19T10:00:05.000Z</time>
      </trkpt>
      <trkpt lat="44.51312" lon="6.83833">
        <ele>2430</ele>
        <time>2020-02-19T10:00:29.000Z</time>
      </trkpt>
      <trkpt lat="44.51309" lon="6.83829">
        <ele>2428</ele>
        <time>2020-02-19T10:00:52.000Z</time>
      </trkpt>
      <trkpt lat="44.51309" lon="6.83832">
        <ele>2428</ele>
        <time>2020-02-19T10:01:05.000Z</time>
      </trkpt>
      <trkpt lat="44.51305" lon="6.83832">
        <ele>2427</ele>
        <time>2020-02-19T10:01:31.000Z</time>
      </trkpt>
      <trkpt lat="44.51305" lon="6.8383">
        <ele>2427</ele>
        <time>2020-02-19T10:01:40.000Z</time>
      </trkpt>
      <trkpt lat="44.51306" lon="6.83829">
        <ele>2427</ele>
        <time>2020-02-19T10:01:43.000Z</time>
      </trkpt>
      <trkpt lat="44.51308" lon="6.83833">
        <ele>2428</ele>
        <time>2020-02-19T10:01:53.000Z</time>
      </trkpt>
      <trkpt lat="44.51306" lon="6.83833">
        <ele>2427</ele>
        <time>2020-02-19T10:02:09.000Z</time>
      </trkpt>
      <trkpt lat="44.51309" lon="6.83832">
        <ele>2428</ele>
        <time>2020-02-19T10:02:20.000Z</time>
      </trkpt>
      <trkpt lat="44.51307" lon="6.83835">
        <ele>2428</ele>
        <time>2020-02-19T10:02:29.000Z</time>
      </trkpt>
      <trkpt lat="44.51307" lon="6.83835">
        <ele>2428</ele>
        <time>2020-02-19T10:02:37.000Z</time>
      </trkpt>
      <trkpt lat="44.51309" lon="6.83831">
        <ele>2429</ele>
        <time>2020-02-19T10:02:58.000Z</time>
      </trkpt>
      <trkpt lat="44.51313" lon="6.83833">
        <ele>2430</ele>
        <time>2020-02-19T10:03:14.000Z</time>
      </trkpt>
      <trkpt lat="44.51313" lon="6.83837">
        <ele>2431</ele>
        <time>2020-02-19T10:03:18.000Z</time>
      </trkpt>
      <trkpt lat="44.51313" lon="6.83849">
        <ele>2430</ele>
        <time>2020-02-19T10:03:28.000Z</time>
      </trkpt>
      <trkpt lat="44.51313" lon="6.83853">
        <ele>2429</ele>
        <time>2020-02-19T10:03:32.000Z</time>
      </trkpt>
      <trkpt lat="44.51312" lon="6.83856">
        <ele>2429</ele>
        <time>2020-02-19T10:03:35.000Z</time>
      </trkpt>
      <trkpt lat="44.51311" lon="6.8386">
        <ele>2428</ele>
        <time>2020-02-19T10:03:39.000Z</time>
      </trkpt>
      <trkpt lat="44.51311" lon="6.83865">
        <ele>2428</ele>
        <time>2020-02-19T10:03:46.000Z</time>
      </trkpt>
      <trkpt lat="44.51309" lon="6.83872">
        <ele>2428</ele>
        <time>2020-02-19T10:03:54.000Z</time>
      </trkpt>
      <trkpt lat="44.51311" lon="6.83874">
        <ele>2428</ele>
        <time>2020-02-19T10:03:57.000Z</time>
      </trkpt>
      <trkpt lat="44.51312" lon="6.83885">
        <ele>2429</ele>
        <time>2020-02-19T10:04:07.000Z</time>
      </trkpt>
      <trkpt lat="44.51312" lon="6.83888">
        <ele>2429</ele>
        <time>2020-02-19T10:04:10.000Z</time>
      </trkpt>
      <trkpt lat="44.51311" lon="6.83891">
        <ele>2429</ele>
        <time>2020-02-19T10:04:13.000Z</time>
      </trkpt>
      <trkpt lat="44.51311" lon="6.83894">
        <ele>2429</ele>
        <time>2020-02-19T10:04:15.000Z</time>
      </trkpt>
      <trkpt lat="44.51311" lon="6.83897">
        <ele>2430</ele>
        <time>2020-02-19T10:04:20.000Z</time>
      </trkpt>
      <trkpt lat="44.51313" lon="6.83903">
        <ele>2431</ele>
        <time>2020-02-19T10:04:27.000Z</time>
      </trkpt>
      <trkpt lat="44.51315" lon="6.8391">
        <ele>2433</ele>
        <time>2020-02-19T10:04:34.000Z</time>
      </trkpt>
      <trkpt lat="44.51316" lon="6.83917">
        <ele>2437</ele>
        <time>2020-02-19T10:04:41.000Z</time>
      </trkpt>
      <trkpt lat="44.51316" lon="6.8392">
        <ele>2437</ele>
        <time>2020-02-19T10:04:45.000Z</time>
      </trkpt>
      <trkpt lat="44.51316" lon="6.83919">
        <ele>2437</ele>
        <time>2020-02-19T10:04:48.000Z</time>
      </trkpt>
      <trkpt lat="44.51315" lon="6.83923">
        <ele>2437</ele>
        <time>2020-02-19T10:04:57.000Z</time>
      </trkpt>
      <trkpt lat="44.51319" lon="6.83926">
        <ele>2438</ele>
        <time>2020-02-19T10:05:07.000Z</time>
      </trkpt>
      <trkpt lat="44.51326" lon="6.83933">
        <ele>2438</ele>
        <time>2020-02-19T10:05:28.000Z</time>
      </trkpt>
      <trkpt lat="44.51327" lon="6.83933">
        <ele>2438</ele>
        <time>2020-02-19T10:05:31.000Z</time>
      </trkpt>
      <trkpt lat="44.5133" lon="6.83934">
        <ele>2439</ele>
        <time>2020-02-19T10:05:36.000Z</time>
      </trkpt>
      <trkpt lat="44.51335" lon="6.83935">
        <ele>2453</ele>
        <time>2020-02-19T10:05:43.000Z</time>
      </trkpt>
      <trkpt lat="44.51345" lon="6.83936">
        <ele>2454</ele>
        <time>2020-02-19T10:05:57.000Z</time>
      </trkpt>
      <trkpt lat="44.51349" lon="6.83937">
        <ele>2455</ele>
        <time>2020-02-19T10:06:04.000Z</time>
      </trkpt>
      <trkpt lat="44.51349" lon="6.83937">
        <ele>2455</ele>
        <time>2020-02-19T10:06:10.000Z</time>
      </trkpt>
      <trkpt lat="44.51348" lon="6.83939">
        <ele>2455</ele>
        <time>2020-02-19T10:06:33.000Z</time>
      </trkpt>
      <trkpt lat="44.51346" lon="6.8394">
        <ele>2455</ele>
        <time>2020-02-19T10:06:45.000Z</time>
      </trkpt>
      <trkpt lat="44.51347" lon="6.83937">
        <ele>2455</ele>
        <time>2020-02-19T10:06:57.000Z</time>
      </trkpt>
      <trkpt lat="44.51347" lon="6.83936">
        <ele>2455</ele>
        <time>2020-02-19T10:07:04.000Z</time>
      </trkpt>
      <trkpt lat="44.51344" lon="6.83938">
        <ele>2455</ele>
        <time>2020-02-19T10:07:22.000Z</time>
      </trkpt>
      <trkpt lat="44.51347" lon="6.83937">
        <ele>2455</ele>
        <time>2020-02-19T10:07:38.000Z</time>
      </trkpt>
      <trkpt lat="44.51346" lon="6.83936">
        <ele>2455</ele>
        <time>2020-02-19T10:07:51.000Z</time>
      </trkpt>
      <trkpt lat="44.51346" lon="6.8394">
        <ele>2455</ele>
        <time>2020-02-19T10:08:02.000Z</time>
      </trkpt>
      <trkpt lat="44.51346" lon="6.83944">
        <ele>2456</ele>
        <time>2020-02-19T10:08:13.000Z</time>
      </trkpt>
      <trkpt lat="44.51351" lon="6.83934">
        <ele>2455</ele>
        <time>2020-02-19T10:08:31.000Z</time>
      </trkpt>
      <trkpt lat="44.51349" lon="6.83935">
        <ele>2455</ele>
        <time>2020-02-19T10:08:36.000Z</time>
      </trkpt>
      <trkpt lat="44.51351" lon="6.83935">
        <ele>2455</ele>
        <time>2020-02-19T10:08:47.000Z</time>
      </trkpt>
      <trkpt lat="44.51351" lon="6.83934">
        <ele>2455</ele>
        <time>2020-02-19T10:08:53.000Z</time>
      </trkpt>
      <trkpt lat="44.51347" lon="6.83932">
        <ele>2454</ele>
        <time>2020-02-19T10:09:08.000Z</time>
      </trkpt>
      <trkpt lat="44.51347" lon="6.83932">
        <ele>2454</ele>
        <time>2020-02-19T10:09:10.000Z</time>
      </trkpt>
      <trkpt lat="44.51341" lon="6.83936">
        <ele>2453</ele>
        <time>2020-02-19T10:09:19.000Z</time>
      </trkpt>
      <trkpt lat="44.51349" lon="6.8394">
        <ele>2456</ele>
        <time>2020-02-19T10:09:41.000Z</time>
      </trkpt>
      <trkpt lat="44.51349" lon="6.83937">
        <ele>2455</ele>
        <time>2020-02-19T10:09:51.000Z</time>
      </trkpt>
      <trkpt lat="44.51348" lon="6.8394">
        <ele>2455</ele>
        <time>2020-02-19T10:10:01.000Z</time>
      </trkpt>
      <trkpt lat="44.51352" lon="6.83941">
        <ele>2456</ele>
        <time>2020-02-19T10:10:19.000Z</time>
      </trkpt>
      <trkpt lat="44.5135" lon="6.8394">
        <ele>2456</ele>
        <time>2020-02-19T10:10:22.000Z</time>
      </trkpt>
      <trkpt lat="44.51349" lon="6.8394">
        <ele>2456</ele>
        <time>2020-02-19T10:10:29.000Z</time>
      </trkpt>
      <trkpt lat="44.51349" lon="6.83939">
        <ele>2455</ele>
        <time>2020-02-19T10:10:34.000Z</time>
      </trkpt>
      <trkpt lat="44.51349" lon="6.83938">
        <ele>2455</ele>
        <time>2020-02-19T10:10:40.000Z</time>
      </trkpt>
      <trkpt lat="44.51349" lon="6.8394">
        <ele>2456</ele>
        <time>2020-02-19T10:10:55.000Z</time>
      </trkpt>
      <trkpt lat="44.51349" lon="6.83941">
        <ele>2456</ele>
        <time>2020-02-19T10:10:59.000Z</time>
      </trkpt>
      <trkpt lat="44.5135" lon="6.83933">
        <ele>2455</ele>
        <time>2020-02-19T10:11:10.000Z</time>
      </trkpt>
      <trkpt lat="44.5135" lon="6.83932">
        <ele>2455</ele>
        <time>2020-02-19T10:11:15.000Z</time>
      </trkpt>
      <trkpt lat="44.5135" lon="6.83932">
        <ele>2454</ele>
        <time>2020-02-19T10:11:24.000Z</time>
      </trkpt>
      <trkpt lat="44.51347" lon="6.83936">
        <ele>2455</ele>
        <time>2020-02-19T10:11:39.000Z</time>
      </trkpt>
      <trkpt lat="44.51347" lon="6.83936">
        <ele>2455</ele>
        <time>2020-02-19T10:11:41.000Z</time>
      </trkpt>
      <trkpt lat="44.51347" lon="6.83938">
        <ele>2455</ele>
        <time>2020-02-19T10:11:45.000Z</time>
      </trkpt>
      <trkpt lat="44.51348" lon="6.83938">
        <ele>2455</ele>
        <time>2020-02-19T10:11:57.000Z</time>
      </trkpt>
      <trkpt lat="44.51348" lon="6.83943">
        <ele>2456</ele>
        <time>2020-02-19T10:12:17.000Z</time>
      </trkpt>
      <trkpt lat="44.51347" lon="6.83939">
        <ele>2455</ele>
        <time>2020-02-19T10:12:35.000Z</time>
      </trkpt>
      <trkpt lat="44.51345" lon="6.83938">
        <ele>2455</ele>
        <time>2020-02-19T10:12:54.000Z</time>
      </trkpt>
      <trkpt lat="44.51346" lon="6.83939">
        <ele>2455</ele>
        <time>2020-02-19T10:13:04.000Z</time>
      </trkpt>
      <trkpt lat="44.51346" lon="6.83936">
        <ele>2454</ele>
        <time>2020-02-19T10:13:10.000Z</time>
      </trkpt>
      <trkpt lat="44.51347" lon="6.83939">
        <ele>2455</ele>
        <time>2020-02-19T10:13:23.000Z</time>
      </trkpt>
      <trkpt lat="44.51348" lon="6.83939">
        <ele>2455</ele>
        <time>2020-02-19T10:13:35.000Z</time>
      </trkpt>
      <trkpt lat="44.51348" lon="6.83936">
        <ele>2455</ele>
        <time>2020-02-19T10:13:58.000Z</time>
      </trkpt>
      <trkpt lat="44.51348" lon="6.83936">
        <ele>2455</ele>
        <time>2020-02-19T10:14:00.000Z</time>
      </trkpt>
      <trkpt lat="44.51348" lon="6.83937">
        <ele>2455</ele>
        <time>2020-02-19T10:14:04.000Z</time>
      </trkpt>
      <trkpt lat="44.51347" lon="6.83937">
        <ele>2455</ele>
        <time>2020-02-19T10:14:09.000Z</time>
      </trkpt>
      <trkpt lat="44.51346" lon="6.8393">
        <ele>2453</ele>
        <time>2020-02-19T10:14:18.000Z</time>
      </trkpt>
      <trkpt lat="44.51345" lon="6.8393">
        <ele>2453</ele>
        <time>2020-02-19T10:14:30.000Z</time>
      </trkpt>
      <trkpt lat="44.51344" lon="6.83931">
        <ele>2453</ele>
        <time>2020-02-19T10:14:33.000Z</time>
      </trkpt>
      <trkpt lat="44.51342" lon="6.83933">
        <ele>2453</ele>
        <time>2020-02-19T10:14:35.000Z</time>
      </trkpt>
      <trkpt lat="44.51339" lon="6.83935">
        <ele>2453</ele>
        <time>2020-02-19T10:14:41.000Z</time>
      </trkpt>
      <trkpt lat="44.51348" lon="6.8394">
        <ele>2455</ele>
        <time>2020-02-19T10:14:51.000Z</time>
      </trkpt>
      <trkpt lat="44.51351" lon="6.83948">
        <ele>2457</ele>
        <time>2020-02-19T10:15:04.000Z</time>
      </trkpt>
      <trkpt lat="44.5135" lon="6.83938">
        <ele>2456</ele>
        <time>2020-02-19T10:15:29.000Z</time>
      </trkpt>
      <trkpt lat="44.51351" lon="6.83938">
        <ele>2456</ele>
        <time>2020-02-19T10:15:36.000Z</time>
      </trkpt>
      <trkpt lat="44.5135" lon="6.83934">
        <ele>2455</ele>
        <time>2020-02-19T10:15:40.000Z</time>
      </trkpt>
      <trkpt lat="44.5135" lon="6.83934">
        <ele>2455</ele>
        <time>2020-02-19T10:15:57.000Z</time>
      </trkpt>
      <trkpt lat="44.5135" lon="6.83936">
        <ele>2455</ele>
        <time>2020-02-19T10:16:05.000Z</time>
      </trkpt>
      <trkpt lat="44.51355" lon="6.83933">
        <ele>2456</ele>
        <time>2020-02-19T10:16:25.000Z</time>
      </trkpt>
      <trkpt lat="44.51358" lon="6.83933">
        <ele>2456</ele>
        <time>2020-02-19T10:16:28.000Z</time>
      </trkpt>
      <trkpt lat="44.51363" lon="6.83933">
        <ele>2458</ele>
        <time>2020-02-19T10:16:36.000Z</time>
      </trkpt>
      <trkpt lat="44.51368" lon="6.83934">
        <ele>2459</ele>
        <time>2020-02-19T10:16:43.000Z</time>
      </trkpt>
      <trkpt lat="44.5137" lon="6.83933">
        <ele>2459</ele>
        <time>2020-02-19T10:16:48.000Z</time>
      </trkpt>
      <trkpt lat="44.51372" lon="6.83934">
        <ele>2460</ele>
        <time>2020-02-19T10:16:52.000Z</time>
      </trkpt>
      <trkpt lat="44.51382" lon="6.8394">
        <ele>2462</ele>
        <time>2020-02-19T10:17:09.000Z</time>
      </trkpt>
      <trkpt lat="44.51387" lon="6.8394">
        <ele>2462</ele>
        <time>2020-02-19T10:17:24.000Z</time>
      </trkpt>
      <trkpt lat="44.51397" lon="6.8394">
        <ele>2464</ele>
        <time>2020-02-19T10:17:43.000Z</time>
      </trkpt>
      <trkpt lat="44.51408" lon="6.83941">
        <ele>2465</ele>
        <time>2020-02-19T10:18:02.000Z</time>
      </trkpt>
      <trkpt lat="44.51422" lon="6.83945">
        <ele>2480</ele>
        <time>2020-02-19T10:18:23.000Z</time>
      </trkpt>
      <trkpt lat="44.51433" lon="6.83939">
        <ele>2480</ele>
        <time>2020-02-19T10:18:43.000Z</time>
      </trkpt>
      <trkpt lat="44.51443" lon="6.83939">
        <ele>2482</ele>
        <time>2020-02-19T10:18:58.000Z</time>
      </trkpt>
      <trkpt lat="44.51452" lon="6.83939">
        <ele>2484</ele>
        <time>2020-02-19T10:19:10.000Z</time>
      </trkpt>
      <trkpt lat="44.51459" lon="6.8394">
        <ele>2485</ele>
        <time>2020-02-19T10:19:21.000Z</time>
      </trkpt>
      <trkpt lat="44.51471" lon="6.83937">
        <ele>2487</ele>
        <time>2020-02-19T10:19:37.000Z</time>
      </trkpt>
      <trkpt lat="44.51478" lon="6.83935">
        <ele>2489</ele>
        <time>2020-02-19T10:19:48.000Z</time>
      </trkpt>
      <trkpt lat="44.51493" lon="6.83932">
        <ele>2491</ele>
        <time>2020-02-19T10:20:12.000Z</time>
      </trkpt>
      <trkpt lat="44.51498" lon="6.83935">
        <ele>2491</ele>
        <time>2020-02-19T10:20:27.000Z</time>
      </trkpt>
      <trkpt lat="44.51507" lon="6.83937">
        <ele>2501</ele>
        <time>2020-02-19T10:20:41.000Z</time>
      </trkpt>
      <trkpt lat="44.51513" lon="6.83937">
        <ele>2501</ele>
        <time>2020-02-19T10:20:51.000Z</time>
      </trkpt>
      <trkpt lat="44.5151" lon="6.8394">
        <ele>2501</ele>
        <time>2020-02-19T10:21:12.000Z</time>
      </trkpt>
      <trkpt lat="44.51511" lon="6.83938">
        <ele>2501</ele>
        <time>2020-02-19T10:21:16.000Z</time>
      </trkpt>
      <trkpt lat="44.51517" lon="6.83934">
        <ele>2501</ele>
        <time>2020-02-19T10:21:28.000Z</time>
      </trkpt>
      <trkpt lat="44.51519" lon="6.83935">
        <ele>2502</ele>
        <time>2020-02-19T10:21:41.000Z</time>
      </trkpt>
      <trkpt lat="44.51526" lon="6.83937">
        <ele>2502</ele>
        <time>2020-02-19T10:21:50.000Z</time>
      </trkpt>
      <trkpt lat="44.51532" lon="6.83938">
        <ele>2503</ele>
        <time>2020-02-19T10:21:57.000Z</time>
      </trkpt>
      <trkpt lat="44.51537" lon="6.83936">
        <ele>2504</ele>
        <time>2020-02-19T10:22:02.000Z</time>
      </trkpt>
      <trkpt lat="44.51545" lon="6.83939">
        <ele>2504</ele>
        <time>2020-02-19T10:22:12.000Z</time>
      </trkpt>
      <trkpt lat="44.51547" lon="6.8394">
        <ele>2505</ele>
        <time>2020-02-19T10:22:15.000Z</time>
      </trkpt>
      <trkpt lat="44.51553" lon="6.83938">
        <ele>2505</ele>
        <time>2020-02-19T10:22:38.000Z</time>
      </trkpt>
      <trkpt lat="44.51562" lon="6.83949">
        <ele>2506</ele>
        <time>2020-02-19T10:22:56.000Z</time>
      </trkpt>
      <trkpt lat="44.51566" lon="6.83952">
        <ele>2506</ele>
        <time>2020-02-19T10:23:00.000Z</time>
      </trkpt>
      <trkpt lat="44.51574" lon="6.83954">
        <ele>2506</ele>
        <time>2020-02-19T10:23:07.000Z</time>
      </trkpt>
      <trkpt lat="44.51578" lon="6.83955">
        <ele>2506</ele>
        <time>2020-02-19T10:23:10.000Z</time>
      </trkpt>
      <trkpt lat="44.5159" lon="6.83955">
        <ele>2516</ele>
        <time>2020-02-19T10:23:21.000Z</time>
      </trkpt>
      <trkpt lat="44.51599" lon="6.83959">
        <ele>2517</ele>
        <time>2020-02-19T10:23:31.000Z</time>
      </trkpt>
      <trkpt lat="44.51601" lon="6.83959">
        <ele>2517</ele>
        <time>2020-02-19T10:23:34.000Z</time>
      </trkpt>
      <trkpt lat="44.51603" lon="6.83958">
        <ele>2517</ele>
        <time>2020-02-19T10:23:36.000Z</time>
      </trkpt>
      <trkpt lat="44.51607" lon="6.83958">
        <ele>2517</ele>
        <time>2020-02-19T10:23:43.000Z</time>
      </trkpt>
      <trkpt lat="44.51608" lon="6.8396">
        <ele>2517</ele>
        <time>2020-02-19T10:23:47.000Z</time>
      </trkpt>
      <trkpt lat="44.5161" lon="6.83965">
        <ele>2517</ele>
        <time>2020-02-19T10:24:02.000Z</time>
      </trkpt>
      <trkpt lat="44.51601" lon="6.83947">
        <ele>2517</ele>
        <time>2020-02-19T10:24:23.000Z</time>
      </trkpt>
      <trkpt lat="44.516" lon="6.83946">
        <ele>2517</ele>
        <time>2020-02-19T10:24:29.000Z</time>
      </trkpt>
      <trkpt lat="44.51603" lon="6.83952">
        <ele>2517</ele>
        <time>2020-02-19T10:24:35.000Z</time>
      </trkpt>
      <trkpt lat="44.51603" lon="6.83951">
        <ele>2517</ele>
        <time>2020-02-19T10:24:38.000Z</time>
      </trkpt>
      <trkpt lat="44.51603" lon="6.83963">
        <ele>2517</ele>
        <time>2020-02-19T10:25:03.000Z</time>
      </trkpt>
      <trkpt lat="44.51601" lon="6.83962">
        <ele>2517</ele>
        <time>2020-02-19T10:25:07.000Z</time>
      </trkpt>
      <trkpt lat="44.51603" lon="6.83965">
        <ele>2517</ele>
        <time>2020-02-19T10:25:16.000Z</time>
      </trkpt>
      <trkpt lat="44.51603" lon="6.83964">
        <ele>2517</ele>
        <time>2020-02-19T10:25:38.000Z</time>
      </trkpt>
      <trkpt lat="44.51602" lon="6.83966">
        <ele>2516</ele>
        <time>2020-02-19T10:26:02.000Z</time>
      </trkpt>
      <trkpt lat="44.51601" lon="6.83966">
        <ele>2516</ele>
        <time>2020-02-19T10:26:08.000Z</time>
      </trkpt>
      <trkpt lat="44.51604" lon="6.83966">
        <ele>2517</ele>
        <time>2020-02-19T10:26:21.000Z</time>
      </trkpt>
      <trkpt lat="44.51608" lon="6.83962">
        <ele>2517</ele>
        <time>2020-02-19T10:26:45.000Z</time>
      </trkpt>
      <trkpt lat="44.51607" lon="6.83961">
        <ele>2517</ele>
        <time>2020-02-19T10:26:52.000Z</time>
      </trkpt>
      <trkpt lat="44.51605" lon="6.83959">
        <ele>2517</ele>
        <time>2020-02-19T10:27:03.000Z</time>
      </trkpt>
      <trkpt lat="44.51605" lon="6.8396">
        <ele>2517</ele>
        <time>2020-02-19T10:27:08.000Z</time>
      </trkpt>
      <trkpt lat="44.51605" lon="6.8396">
        <ele>2517</ele>
        <time>2020-02-19T10:27:18.000Z</time>
      </trkpt>
      <trkpt lat="44.51605" lon="6.83964">
        <ele>2517</ele>
        <time>2020-02-19T10:27:25.000Z</time>
      </trkpt>
      <trkpt lat="44.51609" lon="6.83966">
        <ele>2517</ele>
        <time>2020-02-19T10:27:30.000Z</time>
      </trkpt>
      <trkpt lat="44.51609" lon="6.83965">
        <ele>2517</ele>
        <time>2020-02-19T10:27:41.000Z</time>
      </trkpt>
      <trkpt lat="44.51606" lon="6.83959">
        <ele>2517</ele>
        <time>2020-02-19T10:27:45.000Z</time>
      </trkpt>
      <trkpt lat="44.51605" lon="6.83961">
        <ele>2517</ele>
        <time>2020-02-19T10:27:55.000Z</time>
      </trkpt>
      <trkpt lat="44.51605" lon="6.83961">
        <ele>2517</ele>
        <time>2020-02-19T10:28:04.000Z</time>
      </trkpt>
      <trkpt lat="44.51605" lon="6.83962">
        <ele>2517</ele>
        <time>2020-02-19T10:28:11.000Z</time>
      </trkpt>
      <trkpt lat="44.51605" lon="6.83962">
        <ele>2517</ele>
        <time>2020-02-19T10:28:14.000Z</time>
      </trkpt>
      <trkpt lat="44.51605" lon="6.83962">
        <ele>2517</ele>
        <time>2020-02-19T10:28:19.000Z</time>
      </trkpt>
      <trkpt lat="44.516" lon="6.83964">
        <ele>2517</ele>
        <time>2020-02-19T10:28:33.000Z</time>
      </trkpt>
      <trkpt lat="44.51603" lon="6.83966">
        <ele>2517</ele>
        <time>2020-02-19T10:28:57.000Z</time>
      </trkpt>
      <trkpt lat="44.51602" lon="6.83965">
        <ele>2517</ele>
        <time>2020-02-19T10:29:03.000Z</time>
      </trkpt>
      <trkpt lat="44.51608" lon="6.83968">
        <ele>2517</ele>
        <time>2020-02-19T10:29:16.000Z</time>
      </trkpt>
      <trkpt lat="44.51606" lon="6.83964">
        <ele>2517</ele>
        <time>2020-02-19T10:29:25.000Z</time>
      </trkpt>
      <trkpt lat="44.51604" lon="6.83961">
        <ele>2517</ele>
        <time>2020-02-19T10:29:36.000Z</time>
      </trkpt>
      <trkpt lat="44.51602" lon="6.83962">
        <ele>2517</ele>
        <time>2020-02-19T10:29:44.000Z</time>
      </trkpt>
      <trkpt lat="44.51601" lon="6.83963">
        <ele>2517</ele>
        <time>2020-02-19T10:29:49.000Z</time>
      </trkpt>
      <trkpt lat="44.51603" lon="6.83963">
        <ele>2517</ele>
        <time>2020-02-19T10:29:57.000Z</time>
      </trkpt>
      <trkpt lat="44.51608" lon="6.83969">
        <ele>2517</ele>
        <time>2020-02-19T10:30:14.000Z</time>
      </trkpt>
      <trkpt lat="44.51609" lon="6.83965">
        <ele>2517</ele>
        <time>2020-02-19T10:30:24.000Z</time>
      </trkpt>
      <trkpt lat="44.51613" lon="6.83968">
        <ele>2518</ele>
        <time>2020-02-19T10:30:28.000Z</time>
      </trkpt>
      <trkpt lat="44.51616" lon="6.83972">
        <ele>2517</ele>
        <time>2020-02-19T10:30:33.000Z</time>
      </trkpt>
      <trkpt lat="44.51615" lon="6.8397">
        <ele>2518</ele>
        <time>2020-02-19T10:30:36.000Z</time>
      </trkpt>
      <trkpt lat="44.51613" lon="6.83967">
        <ele>2518</ele>
        <time>2020-02-19T10:30:39.000Z</time>
      </trkpt>
      <trkpt lat="44.51609" lon="6.83962">
        <ele>2517</ele>
        <time>2020-02-19T10:30:45.000Z</time>
      </trkpt>
      <trkpt lat="44.5161" lon="6.8396">
        <ele>2518</ele>
        <time>2020-02-19T10:30:53.000Z</time>
      </trkpt>
      <trkpt lat="44.5161" lon="6.8396">
        <ele>2518</ele>
        <time>2020-02-19T10:30:57.000Z</time>
      </trkpt>
      <trkpt lat="44.51611" lon="6.83958">
        <ele>2518</ele>
        <time>2020-02-19T10:31:01.000Z</time>
      </trkpt>
      <trkpt lat="44.5161" lon="6.83959">
        <ele>2518</ele>
        <time>2020-02-19T10:31:15.000Z</time>
      </trkpt>
      <trkpt lat="44.51606" lon="6.83956">
        <ele>2517</ele>
        <time>2020-02-19T10:31:28.000Z</time>
      </trkpt>
      <trkpt lat="44.51608" lon="6.83957">
        <ele>2518</ele>
        <time>2020-02-19T10:31:36.000Z</time>
      </trkpt>
      <trkpt lat="44.51607" lon="6.83966">
        <ele>2517</ele>
        <time>2020-02-19T10:31:51.000Z</time>
      </trkpt>
      <trkpt lat="44.51609" lon="6.83963">
        <ele>2517</ele>
        <time>2020-02-19T10:32:12.000Z</time>
      </trkpt>
      <trkpt lat="44.51611" lon="6.83964">
        <ele>2517</ele>
        <time>2020-02-19T10:32:26.000Z</time>
      </trkpt>
      <trkpt lat="44.51613" lon="6.83965">
        <ele>2518</ele>
        <time>2020-02-19T10:32:33.000Z</time>
      </trkpt>
      <trkpt lat="44.51611" lon="6.83976">
        <ele>2517</ele>
        <time>2020-02-19T10:32:51.000Z</time>
      </trkpt>
      <trkpt lat="44.51612" lon="6.83971">
        <ele>2517</ele>
        <time>2020-02-19T10:32:57.000Z</time>
      </trkpt>
      <trkpt lat="44.51616" lon="6.83966">
        <ele>2518</ele>
        <time>2020-02-19T10:33:02.000Z</time>
      </trkpt>
      <trkpt lat="44.51626" lon="6.8395">
        <ele>2520</ele>
        <time>2020-02-19T10:33:16.000Z</time>
      </trkpt>
      <trkpt lat="44.51633" lon="6.83947">
        <ele>2521</ele>
        <time>2020-02-19T10:33:23.000Z</time>
      </trkpt>
      <trkpt lat="44.51636" lon="6.83949">
        <ele>2521</ele>
        <time>2020-02-19T10:33:29.000Z</time>
      </trkpt>
      <trkpt lat="44.51638" lon="6.83949">
        <ele>2521</ele>
        <time>2020-02-19T10:33:31.000Z</time>
      </trkpt>
      <trkpt lat="44.5165" lon="6.83953">
        <ele>2522</ele>
        <time>2020-02-19T10:33:45.000Z</time>
      </trkpt>
      <trkpt lat="44.51659" lon="6.83957">
        <ele>2523</ele>
        <time>2020-02-19T10:34:02.000Z</time>
      </trkpt>
      <trkpt lat="44.51662" lon="6.83958">
        <ele>2522</ele>
        <time>2020-02-19T10:34:06.000Z</time>
      </trkpt>
      <trkpt lat="44.51666" lon="6.83961">
        <ele>2522</ele>
        <time>2020-02-19T10:34:16.000Z</time>
      </trkpt>
      <trkpt lat="44.51675" lon="6.83964">
        <ele>2530</ele>
        <time>2020-02-19T10:34:27.000Z</time>
      </trkpt>
      <trkpt lat="44.51679" lon="6.83966">
        <ele>2530</ele>
        <time>2020-02-19T10:34:33.000Z</time>
      </trkpt>
      <trkpt lat="44.51681" lon="6.83967">
        <ele>2530</ele>
        <time>2020-02-19T10:34:48.000Z</time>
      </trkpt>
      <trkpt lat="44.51687" lon="6.83973">
        <ele>2530</ele>
        <time>2020-02-19T10:34:59.000Z</time>
      </trkpt>
      <trkpt lat="44.51701" lon="6.83986">
        <ele>2531</ele>
        <time>2020-02-19T10:35:19.000Z</time>
      </trkpt>
      <trkpt lat="44.51705" lon="6.83987">
        <ele>2532</ele>
        <time>2020-02-19T10:35:23.000Z</time>
      </trkpt>
      <trkpt lat="44.51713" lon="6.83994">
        <ele>2533</ele>
        <time>2020-02-19T10:35:35.000Z</time>
      </trkpt>
      <trkpt lat="44.51718" lon="6.84002">
        <ele>2530</ele>
        <time>2020-02-19T10:35:44.000Z</time>
      </trkpt>
      <trkpt lat="44.51724" lon="6.84007">
        <ele>2531</ele>
        <time>2020-02-19T10:35:52.000Z</time>
      </trkpt>
      <trkpt lat="44.51726" lon="6.84013">
        <ele>2531</ele>
        <time>2020-02-19T10:35:59.000Z</time>
      </trkpt>
      <trkpt lat="44.51731" lon="6.84023">
        <ele>2530</ele>
        <time>2020-02-19T10:36:11.000Z</time>
      </trkpt>
      <trkpt lat="44.51736" lon="6.84032">
        <ele>2529</ele>
        <time>2020-02-19T10:36:22.000Z</time>
      </trkpt>
      <trkpt lat="44.51739" lon="6.84038">
        <ele>2529</ele>
        <time>2020-02-19T10:36:30.000Z</time>
      </trkpt>
      <trkpt lat="44.51742" lon="6.84042">
        <ele>2528</ele>
        <time>2020-02-19T10:36:36.000Z</time>
      </trkpt>
      <trkpt lat="44.51745" lon="6.84047">
        <ele>2528</ele>
        <time>2020-02-19T10:36:43.000Z</time>
      </trkpt>
      <trkpt lat="44.51745" lon="6.84055">
        <ele>2527</ele>
        <time>2020-02-19T10:36:53.000Z</time>
      </trkpt>
      <trkpt lat="44.51752" lon="6.84061">
        <ele>2531</ele>
        <time>2020-02-19T10:37:03.000Z</time>
      </trkpt>
      <trkpt lat="44.51763" lon="6.8408">
        <ele>2528</ele>
        <time>2020-02-19T10:37:24.000Z</time>
      </trkpt>
      <trkpt lat="44.51769" lon="6.84086">
        <ele>2530</ele>
        <time>2020-02-19T10:37:32.000Z</time>
      </trkpt>
      <trkpt lat="44.51778" lon="6.84099">
        <ele>2532</ele>
        <time>2020-02-19T10:37:58.000Z</time>
      </trkpt>
      <trkpt lat="44.51781" lon="6.84109">
        <ele>2534</ele>
        <time>2020-02-19T10:38:13.000Z</time>
      </trkpt>
      <trkpt lat="44.5179" lon="6.8413">
        <ele>2536</ele>
        <time>2020-02-19T10:38:41.000Z</time>
      </trkpt>
      <trkpt lat="44.51793" lon="6.8415">
        <ele>2538</ele>
        <time>2020-02-19T10:39:01.000Z</time>
      </trkpt>
      <trkpt lat="44.51797" lon="6.84165">
        <ele>2540</ele>
        <time>2020-02-19T10:39:15.000Z</time>
      </trkpt>
      <trkpt lat="44.51799" lon="6.84178">
        <ele>2545</ele>
        <time>2020-02-19T10:39:27.000Z</time>
      </trkpt>
      <trkpt lat="44.51819" lon="6.84189">
        <ele>2547</ele>
        <time>2020-02-19T10:39:53.000Z</time>
      </trkpt>
      <trkpt lat="44.51824" lon="6.84192">
        <ele>2548</ele>
        <time>2020-02-19T10:40:03.000Z</time>
      </trkpt>
      <trkpt lat="44.51828" lon="6.84194">
        <ele>2548</ele>
        <time>2020-02-19T10:40:16.000Z</time>
      </trkpt>
      <trkpt lat="44.5183" lon="6.84196">
        <ele>2548</ele>
        <time>2020-02-19T10:40:21.000Z</time>
      </trkpt>
      <trkpt lat="44.51839" lon="6.84202">
        <ele>2552</ele>
        <time>2020-02-19T10:40:31.000Z</time>
      </trkpt>
      <trkpt lat="44.51841" lon="6.84204">
        <ele>2552</ele>
        <time>2020-02-19T10:40:38.000Z</time>
      </trkpt>
      <trkpt lat="44.51844" lon="6.84207">
        <ele>2552</ele>
        <time>2020-02-19T10:40:44.000Z</time>
      </trkpt>
      <trkpt lat="44.51854" lon="6.8421">
        <ele>2552</ele>
        <time>2020-02-19T10:40:54.000Z</time>
      </trkpt>
      <trkpt lat="44.51855" lon="6.84212">
        <ele>2552</ele>
        <time>2020-02-19T10:40:59.000Z</time>
      </trkpt>
      <trkpt lat="44.51858" lon="6.84213">
        <ele>2552</ele>
        <time>2020-02-19T10:41:07.000Z</time>
      </trkpt>
      <trkpt lat="44.5186" lon="6.84215">
        <ele>2552</ele>
        <time>2020-02-19T10:41:15.000Z</time>
      </trkpt>
      <trkpt lat="44.51869" lon="6.84213">
        <ele>2552</ele>
        <time>2020-02-19T10:41:38.000Z</time>
      </trkpt>
      <trkpt lat="44.51879" lon="6.84211">
        <ele>2552</ele>
        <time>2020-02-19T10:41:53.000Z</time>
      </trkpt>
      <trkpt lat="44.51886" lon="6.84211">
        <ele>2552</ele>
        <time>2020-02-19T10:42:15.000Z</time>
      </trkpt>
      <trkpt lat="44.51892" lon="6.84212">
        <ele>2552</ele>
        <time>2020-02-19T10:42:23.000Z</time>
      </trkpt>
      <trkpt lat="44.51892" lon="6.84213">
        <ele>2552</ele>
        <time>2020-02-19T10:42:30.000Z</time>
      </trkpt>
      <trkpt lat="44.51896" lon="6.84213">
        <ele>2552</ele>
        <time>2020-02-19T10:42:48.000Z</time>
      </trkpt>
      <trkpt lat="44.51899" lon="6.84216">
        <ele>2552</ele>
        <time>2020-02-19T10:43:00.000Z</time>
      </trkpt>
      <trkpt lat="44.51898" lon="6.84217">
        <ele>2552</ele>
        <time>2020-02-19T10:43:08.000Z</time>
      </trkpt>
      <trkpt lat="44.51895" lon="6.84212">
        <ele>2552</ele>
        <time>2020-02-19T10:43:18.000Z</time>
      </trkpt>
      <trkpt lat="44.51889" lon="6.842">
        <ele>2552</ele>
        <time>2020-02-19T10:43:28.000Z</time>
      </trkpt>
      <trkpt lat="44.51882" lon="6.84189">
        <ele>2553</ele>
        <time>2020-02-19T10:43:38.000Z</time>
      </trkpt>
      <trkpt lat="44.51875" lon="6.84179">
        <ele>2553</ele>
        <time>2020-02-19T10:43:48.000Z</time>
      </trkpt>
      <trkpt lat="44.51872" lon="6.84172">
        <ele>2553</ele>
        <time>2020-02-19T10:44:00.000Z</time>
      </trkpt>
      <trkpt lat="44.51869" lon="6.84168">
        <ele>2553</ele>
        <time>2020-02-19T10:44:14.000Z</time>
      </trkpt>
      <trkpt lat="44.51864" lon="6.84159">
        <ele>2555</ele>
        <time>2020-02-19T10:44:21.000Z</time>
      </trkpt>
      <trkpt lat="44.51864" lon="6.84158">
        <ele>2555</ele>
        <time>2020-02-19T10:44:26.000Z</time>
      </trkpt>
      <trkpt lat="44.51868" lon="6.8416">
        <ele>2555</ele>
        <time>2020-02-19T10:44:30.000Z</time>
      </trkpt>
      <trkpt lat="44.5187" lon="6.84161">
        <ele>2555</ele>
        <time>2020-02-19T10:44:32.000Z</time>
      </trkpt>
      <trkpt lat="44.51873" lon="6.84166">
        <ele>2555</ele>
        <time>2020-02-19T10:44:38.000Z</time>
      </trkpt>
      <trkpt lat="44.51879" lon="6.84175">
        <ele>2553</ele>
        <time>2020-02-19T10:44:46.000Z</time>
      </trkpt>
      <trkpt lat="44.5188" lon="6.84176">
        <ele>2553</ele>
        <time>2020-02-19T10:44:48.000Z</time>
      </trkpt>
      <trkpt lat="44.51878" lon="6.84179">
        <ele>2553</ele>
        <time>2020-02-19T10:45:01.000Z</time>
      </trkpt>
      <trkpt lat="44.51878" lon="6.8418">
        <ele>2553</ele>
        <time>2020-02-19T10:45:12.000Z</time>
      </trkpt>
      <trkpt lat="44.51876" lon="6.84177">
        <ele>2553</ele>
        <time>2020-02-19T10:45:16.000Z</time>
      </trkpt>
      <trkpt lat="44.5187" lon="6.84171">
        <ele>2553</ele>
        <time>2020-02-19T10:45:24.000Z</time>
      </trkpt>
      <trkpt lat="44.51869" lon="6.84159">
        <ele>2555</ele>
        <time>2020-02-19T10:45:38.000Z</time>
      </trkpt>
      <trkpt lat="44.51874" lon="6.84151">
        <ele>2555</ele>
        <time>2020-02-19T10:46:11.000Z</time>
      </trkpt>
      <trkpt lat="44.51872" lon="6.84138">
        <ele>2555</ele>
        <time>2020-02-19T10:46:25.000Z</time>
      </trkpt>
      <trkpt lat="44.51865" lon="6.84131">
        <ele>2555</ele>
        <time>2020-02-19T10:46:33.000Z</time>
      </trkpt>
      <trkpt lat="44.51859" lon="6.84121">
        <ele>2555</ele>
        <time>2020-02-19T10:46:46.000Z</time>
      </trkpt>
      <trkpt lat="44.51863" lon="6.84119">
        <ele>2555</ele>
        <time>2020-02-19T10:46:57.000Z</time>
      </trkpt>
      <trkpt lat="44.5188" lon="6.84125">
        <ele>2555</ele>
        <time>2020-02-19T10:47:12.000Z</time>
      </trkpt>
      <trkpt lat="44.51875" lon="6.84124">
        <ele>2555</ele>
        <time>2020-02-19T10:47:33.000Z</time>
      </trkpt>
      <trkpt lat="44.51875" lon="6.84122">
        <ele>2555</ele>
        <time>2020-02-19T10:47:43.000Z</time>
      </trkpt>
      <trkpt lat="44.51874" lon="6.84122">
        <ele>2555</ele>
        <time>2020-02-19T10:47:50.000Z</time>
      </trkpt>
      <trkpt lat="44.51877" lon="6.84124">
        <ele>2555</ele>
        <time>2020-02-19T10:47:57.000Z</time>
      </trkpt>
      <trkpt lat="44.51879" lon="6.84121">
        <ele>2555</ele>
        <time>2020-02-19T10:48:16.000Z</time>
      </trkpt>
      <trkpt lat="44.51878" lon="6.84119">
        <ele>2555</ele>
        <time>2020-02-19T10:48:21.000Z</time>
      </trkpt>
      <trkpt lat="44.51883" lon="6.84124">
        <ele>2555</ele>
        <time>2020-02-19T10:48:27.000Z</time>
      </trkpt>
      <trkpt lat="44.51881" lon="6.84129">
        <ele>2555</ele>
        <time>2020-02-19T10:48:46.000Z</time>
      </trkpt>
      <trkpt lat="44.5188" lon="6.84131">
        <ele>2555</ele>
        <time>2020-02-19T10:49:00.000Z</time>
      </trkpt>
      <trkpt lat="44.5188" lon="6.84131">
        <ele>2555</ele>
        <time>2020-02-19T10:49:08.000Z</time>
      </trkpt>
      <trkpt lat="44.51878" lon="6.8413">
        <ele>2555</ele>
        <time>2020-02-19T10:49:16.000Z</time>
      </trkpt>
      <trkpt lat="44.51876" lon="6.84129">
        <ele>2555</ele>
        <time>2020-02-19T10:49:21.000Z</time>
      </trkpt>
      <trkpt lat="44.51876" lon="6.84129">
        <ele>2555</ele>
        <time>2020-02-19T10:49:25.000Z</time>
      </trkpt>
      <trkpt lat="44.51875" lon="6.84129">
        <ele>2555</ele>
        <time>2020-02-19T10:49:27.000Z</time>
      </trkpt>
      <trkpt lat="44.51885" lon="6.84134">
        <ele>2555</ele>
        <time>2020-02-19T10:49:38.000Z</time>
      </trkpt>
      <trkpt lat="44.51883" lon="6.84132">
        <ele>2555</ele>
        <time>2020-02-19T10:49:45.000Z</time>
      </trkpt>
      <trkpt lat="44.51882" lon="6.84131">
        <ele>2555</ele>
        <time>2020-02-19T10:49:49.000Z</time>
      </trkpt>
      <trkpt lat="44.51881" lon="6.84128">
        <ele>2555</ele>
        <time>2020-02-19T10:49:56.000Z</time>
      </trkpt>
      <trkpt lat="44.51895" lon="6.84133">
        <ele>2555</ele>
        <time>2020-02-19T10:50:06.000Z</time>
      </trkpt>
      <trkpt lat="44.51903" lon="6.84127">
        <ele>2555</ele>
        <time>2020-02-19T10:50:23.000Z</time>
      </trkpt>
      <trkpt lat="44.51899" lon="6.84128">
        <ele>2555</ele>
        <time>2020-02-19T10:50:26.000Z</time>
      </trkpt>
      <trkpt lat="44.5189" lon="6.84126">
        <ele>2555</ele>
        <time>2020-02-19T10:50:31.000Z</time>
      </trkpt>
      <trkpt lat="44.51881" lon="6.84126">
        <ele>2555</ele>
        <time>2020-02-19T10:50:54.000Z</time>
      </trkpt>
      <trkpt lat="44.51881" lon="6.84126">
        <ele>2555</ele>
        <time>2020-02-19T10:51:00.000Z</time>
      </trkpt>
      <trkpt lat="44.51889" lon="6.84128">
        <ele>2555</ele>
        <time>2020-02-19T10:51:10.000Z</time>
      </trkpt>
      <trkpt lat="44.5189" lon="6.84126">
        <ele>2555</ele>
        <time>2020-02-19T10:51:20.000Z</time>
      </trkpt>
      <trkpt lat="44.51896" lon="6.84126">
        <ele>2555</ele>
        <time>2020-02-19T10:51:32.000Z</time>
      </trkpt>
      <trkpt lat="44.51881" lon="6.84125">
        <ele>2555</ele>
        <time>2020-02-19T10:51:40.000Z</time>
      </trkpt>
      <trkpt lat="44.5188" lon="6.84119">
        <ele>2555</ele>
        <time>2020-02-19T10:51:51.000Z</time>
      </trkpt>
      <trkpt lat="44.51882" lon="6.84119">
        <ele>2555</ele>
        <time>2020-02-19T10:51:55.000Z</time>
      </trkpt>
      <trkpt lat="44.51885" lon="6.84119">
        <ele>2555</ele>
        <time>2020-02-19T10:52:00.000Z</time>
      </trkpt>
      <trkpt lat="44.51891" lon="6.84126">
        <ele>2555</ele>
        <time>2020-02-19T10:52:13.000Z</time>
      </trkpt>
      <trkpt lat="44.51892" lon="6.84126">
        <ele>2555</ele>
        <time>2020-02-19T10:52:15.000Z</time>
      </trkpt>
      <trkpt lat="44.51897" lon="6.8413">
        <ele>2555</ele>
        <time>2020-02-19T10:52:23.000Z</time>
      </trkpt>
      <trkpt lat="44.51902" lon="6.84134">
        <ele>2555</ele>
        <time>2020-02-19T10:52:33.000Z</time>
      </trkpt>
      <trkpt lat="44.51907" lon="6.84138">
        <ele>2555</ele>
        <time>2020-02-19T10:52:42.000Z</time>
      </trkpt>
      <trkpt lat="44.51913" lon="6.84141">
        <ele>2555</ele>
        <time>2020-02-19T10:52:51.000Z</time>
      </trkpt>
      <trkpt lat="44.51921" lon="6.84145">
        <ele>2676.6000976562</ele>
        <time>2020-02-19T10:53:02.000Z</time>
      </trkpt>
      <trkpt lat="44.51925" lon="6.84147">
        <ele>2677.3999023438</ele>
        <time>2020-02-19T10:53:10.000Z</time>
      </trkpt>
      <trkpt lat="44.51928" lon="6.8415">
        <ele>2678</ele>
        <time>2020-02-19T10:53:15.000Z</time>
      </trkpt>
      <trkpt lat="44.51932" lon="6.84153">
        <ele>2679.1999511719</ele>
        <time>2020-02-19T10:53:23.000Z</time>
      </trkpt>
      <trkpt lat="44.51936" lon="6.84157">
        <ele>2680.6000976562</ele>
        <time>2020-02-19T10:53:30.000Z</time>
      </trkpt>
      <trkpt lat="44.51938" lon="6.84158">
        <ele>2681.1999511719</ele>
        <time>2020-02-19T10:53:34.000Z</time>
      </trkpt>
      <trkpt lat="44.5194" lon="6.84156">
        <ele>2682.3999023438</ele>
        <time>2020-02-19T10:53:39.000Z</time>
      </trkpt>
      <trkpt lat="44.5195" lon="6.84155">
        <ele>2685.8000488281</ele>
        <time>2020-02-19T10:54:03.000Z</time>
      </trkpt>
      <trkpt lat="44.51964" lon="6.84143">
        <ele>2687.8000488281</ele>
        <time>2020-02-19T10:54:24.000Z</time>
      </trkpt>
      <trkpt lat="44.51978" lon="6.84142">
        <ele>2688.6000976562</ele>
        <time>2020-02-19T10:54:35.000Z</time>
      </trkpt>
      <trkpt lat="44.51982" lon="6.84141">
        <ele>2689</ele>
        <time>2020-02-19T10:54:42.000Z</time>
      </trkpt>
      <trkpt lat="44.51987" lon="6.84142">
        <ele>2690</ele>
        <time>2020-02-19T10:54:48.000Z</time>
      </trkpt>
      <trkpt lat="44.51991" lon="6.84146">
        <ele>2692</ele>
        <time>2020-02-19T10:55:02.000Z</time>
      </trkpt>
      <trkpt lat="44.51991" lon="6.84146">
        <ele>2692.1999511719</ele>
        <time>2020-02-19T10:55:04.000Z</time>
      </trkpt>
      <trkpt lat="44.52009" lon="6.84151">
        <ele>2695.3999023438</ele>
        <time>2020-02-19T10:55:29.000Z</time>
      </trkpt>
      <trkpt lat="44.52015" lon="6.84152">
        <ele>2697.1999511719</ele>
        <time>2020-02-19T10:55:47.000Z</time>
      </trkpt>
      <trkpt lat="44.52017" lon="6.84154">
        <ele>2697.8000488281</ele>
        <time>2020-02-19T10:55:51.000Z</time>
      </trkpt>
      <trkpt lat="44.52018" lon="6.84156">
        <ele>2699.6000976562</ele>
        <time>2020-02-19T10:56:03.000Z</time>
      </trkpt>
      <trkpt lat="44.52029" lon="6.84162">
        <ele>2702.6000976562</ele>
        <time>2020-02-19T10:56:29.000Z</time>
      </trkpt>
      <trkpt lat="44.52036" lon="6.84165">
        <ele>2704.8000488281</ele>
        <time>2020-02-19T10:56:47.000Z</time>
      </trkpt>
      <trkpt lat="44.52039" lon="6.84171">
        <ele>2705.6000976562</ele>
        <time>2020-02-19T10:57:13.000Z</time>
      </trkpt>
      <trkpt lat="44.52039" lon="6.84172">
        <ele>2706</ele>
        <time>2020-02-19T10:57:27.000Z</time>
      </trkpt>
      <trkpt lat="44.52036" lon="6.84165">
        <ele>2706.8000488281</ele>
        <time>2020-02-19T10:57:33.000Z</time>
      </trkpt>
      <trkpt lat="44.52033" lon="6.84155">
        <ele>2707.8000488281</ele>
        <time>2020-02-19T10:57:40.000Z</time>
      </trkpt>
      <trkpt lat="44.52031" lon="6.84147">
        <ele>2709.1999511719</ele>
        <time>2020-02-19T10:57:45.000Z</time>
      </trkpt>
      <trkpt lat="44.52029" lon="6.84139">
        <ele>2710.6000976562</ele>
        <time>2020-02-19T10:57:53.000Z</time>
      </trkpt>
      <trkpt lat="44.52029" lon="6.84136">
        <ele>2711</ele>
        <time>2020-02-19T10:57:56.000Z</time>
      </trkpt>
      <trkpt lat="44.52033" lon="6.8413">
        <ele>2712.1999511719</ele>
        <time>2020-02-19T10:58:06.000Z</time>
      </trkpt>
      <trkpt lat="44.52036" lon="6.8412">
        <ele>2713.1999511719</ele>
        <time>2020-02-19T10:58:23.000Z</time>
      </trkpt>
      <trkpt lat="44.52036" lon="6.8412">
        <ele>2714.3999023438</ele>
        <time>2020-02-19T10:58:35.000Z</time>
      </trkpt>
      <trkpt lat="44.52038" lon="6.84121">
        <ele>2714.6000976562</ele>
        <time>2020-02-19T10:58:37.000Z</time>
      </trkpt>
      <trkpt lat="44.5204" lon="6.84124">
        <ele>2714.8000488281</ele>
        <time>2020-02-19T10:58:40.000Z</time>
      </trkpt>
      <trkpt lat="44.52043" lon="6.84127">
        <ele>2715.6000976562</ele>
        <time>2020-02-19T10:58:43.000Z</time>
      </trkpt>
      <trkpt lat="44.52044" lon="6.84129">
        <ele>2716</ele>
        <time>2020-02-19T10:58:45.000Z</time>
      </trkpt>
      <trkpt lat="44.52046" lon="6.84134">
        <ele>2716.3999023438</ele>
        <time>2020-02-19T10:58:50.000Z</time>
      </trkpt>
      <trkpt lat="44.52048" lon="6.84137">
        <ele>2716.8000488281</ele>
        <time>2020-02-19T10:58:53.000Z</time>
      </trkpt>
      <trkpt lat="44.52055" lon="6.84146">
        <ele>2718.6000976562</ele>
        <time>2020-02-19T10:59:07.000Z</time>
      </trkpt>
      <trkpt lat="44.52061" lon="6.84151">
        <ele>2719.8000488281</ele>
        <time>2020-02-19T10:59:21.000Z</time>
      </trkpt>
      <trkpt lat="44.52063" lon="6.84154">
        <ele>2720.3999023438</ele>
        <time>2020-02-19T10:59:25.000Z</time>
      </trkpt>
      <trkpt lat="44.52071" lon="6.84162">
        <ele>2721.8000488281</ele>
        <time>2020-02-19T10:59:42.000Z</time>
      </trkpt>
      <trkpt lat="44.52077" lon="6.84169">
        <ele>2723</ele>
        <time>2020-02-19T10:59:57.000Z</time>
      </trkpt>
      <trkpt lat="44.52086" lon="6.8418">
        <ele>2725</ele>
        <time>2020-02-19T11:00:19.000Z</time>
      </trkpt>
      <trkpt lat="44.52092" lon="6.8419">
        <ele>2726.8000488281</ele>
        <time>2020-02-19T11:00:37.000Z</time>
      </trkpt>
      <trkpt lat="44.521" lon="6.84195">
        <ele>2728</ele>
        <time>2020-02-19T11:00:48.000Z</time>
      </trkpt>
      <trkpt lat="44.5211" lon="6.84213">
        <ele>2730.3999023438</ele>
        <time>2020-02-19T11:01:17.000Z</time>
      </trkpt>
      <trkpt lat="44.52111" lon="6.84216">
        <ele>2731.3999023438</ele>
        <time>2020-02-19T11:01:23.000Z</time>
      </trkpt>
      <trkpt lat="44.52116" lon="6.84232">
        <ele>2733.6000976562</ele>
        <time>2020-02-19T11:01:44.000Z</time>
      </trkpt>
      <trkpt lat="44.52121" lon="6.84234">
        <ele>2735</ele>
        <time>2020-02-19T11:01:53.000Z</time>
      </trkpt>
      <trkpt lat="44.52131" lon="6.84238">
        <ele>2736.6000976562</ele>
        <time>2020-02-19T11:02:10.000Z</time>
      </trkpt>
      <trkpt lat="44.52136" lon="6.84248">
        <ele>2738</ele>
        <time>2020-02-19T11:02:25.000Z</time>
      </trkpt>
      <trkpt lat="44.52146" lon="6.84252">
        <ele>2739.8000488281</ele>
        <time>2020-02-19T11:02:39.000Z</time>
      </trkpt>
      <trkpt lat="44.52149" lon="6.84252">
        <ele>2741</ele>
        <time>2020-02-19T11:02:46.000Z</time>
      </trkpt>
      <trkpt lat="44.52156" lon="6.84255">
        <ele>2742.6000976562</ele>
        <time>2020-02-19T11:02:56.000Z</time>
      </trkpt>
      <trkpt lat="44.52159" lon="6.84255">
        <ele>2743</ele>
        <time>2020-02-19T11:03:05.000Z</time>
      </trkpt>
      <trkpt lat="44.52161" lon="6.84256">
        <ele>2743.3999023438</ele>
        <time>2020-02-19T11:03:09.000Z</time>
      </trkpt>
      <trkpt lat="44.52162" lon="6.84257">
        <ele>2743.6000976562</ele>
        <time>2020-02-19T11:03:11.000Z</time>
      </trkpt>
      <trkpt lat="44.52163" lon="6.84257">
        <ele>2743.8000488281</ele>
        <time>2020-02-19T11:03:13.000Z</time>
      </trkpt>
      <trkpt lat="44.5217" lon="6.84259">
        <ele>2744.6000976562</ele>
        <time>2020-02-19T11:03:22.000Z</time>
      </trkpt>
      <trkpt lat="44.52175" lon="6.8426">
        <ele>2745.1999511719</ele>
        <time>2020-02-19T11:03:29.000Z</time>
      </trkpt>
      <trkpt lat="44.52177" lon="6.84261">
        <ele>2745.3999023438</ele>
        <time>2020-02-19T11:03:31.000Z</time>
      </trkpt>
      <trkpt lat="44.5218" lon="6.84264">
        <ele>2746.1999511719</ele>
        <time>2020-02-19T11:03:39.000Z</time>
      </trkpt>
      <trkpt lat="44.52184" lon="6.84266">
        <ele>2747.8000488281</ele>
        <time>2020-02-19T11:03:50.000Z</time>
      </trkpt>
      <trkpt lat="44.52189" lon="6.84268">
        <ele>2749.3999023438</ele>
        <time>2020-02-19T11:04:01.000Z</time>
      </trkpt>
      <trkpt lat="44.52204" lon="6.84271">
        <ele>2751.6000976562</ele>
        <time>2020-02-19T11:04:16.000Z</time>
      </trkpt>
      <trkpt lat="44.5221" lon="6.84272">
        <ele>2752.8000488281</ele>
        <time>2020-02-19T11:04:22.000Z</time>
      </trkpt>
      <trkpt lat="44.52215" lon="6.8427">
        <ele>2753.8000488281</ele>
        <time>2020-02-19T11:04:37.000Z</time>
      </trkpt>
      <trkpt lat="44.52217" lon="6.84276">
        <ele>2754.1999511719</ele>
        <time>2020-02-19T11:04:46.000Z</time>
      </trkpt>
      <trkpt lat="44.52225" lon="6.8428">
        <ele>2755.8000488281</ele>
        <time>2020-02-19T11:04:58.000Z</time>
      </trkpt>
      <trkpt lat="44.52231" lon="6.84284">
        <ele>2756.3999023438</ele>
        <time>2020-02-19T11:05:05.000Z</time>
      </trkpt>
      <trkpt lat="44.52234" lon="6.84284">
        <ele>2756.6000976562</ele>
        <time>2020-02-19T11:05:07.000Z</time>
      </trkpt>
      <trkpt lat="44.52236" lon="6.84285">
        <ele>2757.3999023438</ele>
        <time>2020-02-19T11:05:11.000Z</time>
      </trkpt>
      <trkpt lat="44.52242" lon="6.84287">
        <ele>2758.3999023438</ele>
        <time>2020-02-19T11:05:17.000Z</time>
      </trkpt>
      <trkpt lat="44.52247" lon="6.84288">
        <ele>2759</ele>
        <time>2020-02-19T11:05:23.000Z</time>
      </trkpt>
      <trkpt lat="44.52251" lon="6.8429">
        <ele>2759.6000976562</ele>
        <time>2020-02-19T11:05:28.000Z</time>
      </trkpt>
      <trkpt lat="44.52252" lon="6.84292">
        <ele>2760</ele>
        <time>2020-02-19T11:05:34.000Z</time>
      </trkpt>
      <trkpt lat="44.52254" lon="6.84293">
        <ele>2760.3999023438</ele>
        <time>2020-02-19T11:05:37.000Z</time>
      </trkpt>
      <trkpt lat="44.52271" lon="6.84296">
        <ele>2763.1999511719</ele>
        <time>2020-02-19T11:06:02.000Z</time>
      </trkpt>
      <trkpt lat="44.52287" lon="6.84303">
        <ele>2765.1999511719</ele>
        <time>2020-02-19T11:06:19.000Z</time>
      </trkpt>
      <trkpt lat="44.52299" lon="6.84309">
        <ele>2767.1999511719</ele>
        <time>2020-02-19T11:06:32.000Z</time>
      </trkpt>
      <trkpt lat="44.52309" lon="6.84312">
        <ele>2769.3999023438</ele>
        <time>2020-02-19T11:06:44.000Z</time>
      </trkpt>
      <trkpt lat="44.52307" lon="6.84313">
        <ele>2769.8000488281</ele>
        <time>2020-02-19T11:07:07.000Z</time>
      </trkpt>
      <trkpt lat="44.52304" lon="6.84313">
        <ele>2769.3999023438</ele>
        <time>2020-02-19T11:07:13.000Z</time>
      </trkpt>
      <trkpt lat="44.52316" lon="6.84318">
        <ele>2770.3999023438</ele>
        <time>2020-02-19T11:07:36.000Z</time>
      </trkpt>
      <trkpt lat="44.52324" lon="6.84317">
        <ele>2771.6000976562</ele>
        <time>2020-02-19T11:07:49.000Z</time>
      </trkpt>
      <trkpt lat="44.52328" lon="6.84317">
        <ele>2771.6000976562</ele>
        <time>2020-02-19T11:08:02.000Z</time>
      </trkpt>
      <trkpt lat="44.52332" lon="6.84315">
        <ele>2772</ele>
        <time>2020-02-19T11:08:10.000Z</time>
      </trkpt>
      <trkpt lat="44.52342" lon="6.84316">
        <ele>2773.1999511719</ele>
        <time>2020-02-19T11:08:27.000Z</time>
      </trkpt>
      <trkpt lat="44.52347" lon="6.84317">
        <ele>2773.6000976562</ele>
        <time>2020-02-19T11:08:31.000Z</time>
      </trkpt>
      <trkpt lat="44.52349" lon="6.84318">
        <ele>2774</ele>
        <time>2020-02-19T11:08:36.000Z</time>
      </trkpt>
      <trkpt lat="44.52354" lon="6.84324">
        <ele>2775.6000976562</ele>
        <time>2020-02-19T11:08:56.000Z</time>
      </trkpt>
      <trkpt lat="44.52367" lon="6.84322">
        <ele>2777.8000488281</ele>
        <time>2020-02-19T11:09:13.000Z</time>
      </trkpt>
      <trkpt lat="44.52372" lon="6.84321">
        <ele>2779</ele>
        <time>2020-02-19T11:09:20.000Z</time>
      </trkpt>
      <trkpt lat="44.5238" lon="6.84321">
        <ele>2779.8000488281</ele>
        <time>2020-02-19T11:09:39.000Z</time>
      </trkpt>
      <trkpt lat="44.52389" lon="6.84322">
        <ele>2781.6000976562</ele>
        <time>2020-02-19T11:10:03.000Z</time>
      </trkpt>
      <trkpt lat="44.52395" lon="6.84321">
        <ele>2782</ele>
        <time>2020-02-19T11:10:10.000Z</time>
      </trkpt>
      <trkpt lat="44.52404" lon="6.84322">
        <ele>2783</ele>
        <time>2020-02-19T11:10:25.000Z</time>
      </trkpt>
      <trkpt lat="44.52407" lon="6.84323">
        <ele>2783.6000976562</ele>
        <time>2020-02-19T11:10:30.000Z</time>
      </trkpt>
      <trkpt lat="44.52417" lon="6.84326">
        <ele>2785.1999511719</ele>
        <time>2020-02-19T11:10:47.000Z</time>
      </trkpt>
      <trkpt lat="44.52423" lon="6.84329">
        <ele>2786.6000976562</ele>
        <time>2020-02-19T11:11:00.000Z</time>
      </trkpt>
      <trkpt lat="44.52421" lon="6.84341">
        <ele>2787.8000488281</ele>
        <time>2020-02-19T11:11:20.000Z</time>
      </trkpt>
      <trkpt lat="44.52427" lon="6.84344">
        <ele>2788.3999023438</ele>
        <time>2020-02-19T11:11:27.000Z</time>
      </trkpt>
      <trkpt lat="44.52431" lon="6.84351">
        <ele>2789.1999511719</ele>
        <time>2020-02-19T11:11:36.000Z</time>
      </trkpt>
      <trkpt lat="44.52436" lon="6.84353">
        <ele>2790.3999023438</ele>
        <time>2020-02-19T11:11:50.000Z</time>
      </trkpt>
      <trkpt lat="44.52446" lon="6.8436">
        <ele>2792</ele>
        <time>2020-02-19T11:12:02.000Z</time>
      </trkpt>
      <trkpt lat="44.52449" lon="6.8437">
        <ele>2792.6000976562</ele>
        <time>2020-02-19T11:12:18.000Z</time>
      </trkpt>
      <trkpt lat="44.5245" lon="6.84372">
        <ele>2793</ele>
        <time>2020-02-19T11:12:21.000Z</time>
      </trkpt>
      <trkpt lat="44.52451" lon="6.84373">
        <ele>2793.6000976562</ele>
        <time>2020-02-19T11:12:24.000Z</time>
      </trkpt>
      <trkpt lat="44.52452" lon="6.84375">
        <ele>2794</ele>
        <time>2020-02-19T11:12:27.000Z</time>
      </trkpt>
      <trkpt lat="44.52456" lon="6.84388">
        <ele>2795.3999023438</ele>
        <time>2020-02-19T11:12:41.000Z</time>
      </trkpt>
      <trkpt lat="44.5246" lon="6.84396">
        <ele>2796.1999511719</ele>
        <time>2020-02-19T11:12:50.000Z</time>
      </trkpt>
      <trkpt lat="44.52465" lon="6.84402">
        <ele>2797.3999023438</ele>
        <time>2020-02-19T11:13:00.000Z</time>
      </trkpt>
      <trkpt lat="44.52466" lon="6.84403">
        <ele>2797.8000488281</ele>
        <time>2020-02-19T11:13:06.000Z</time>
      </trkpt>
      <trkpt lat="44.5247" lon="6.84413">
        <ele>2800</ele>
        <time>2020-02-19T11:13:28.000Z</time>
      </trkpt>
      <trkpt lat="44.52468" lon="6.84422">
        <ele>2800.8000488281</ele>
        <time>2020-02-19T11:13:59.000Z</time>
      </trkpt>
      <trkpt lat="44.52471" lon="6.84429">
        <ele>2801.6000976562</ele>
        <time>2020-02-19T11:14:07.000Z</time>
      </trkpt>
      <trkpt lat="44.52475" lon="6.84433">
        <ele>2803.3999023438</ele>
        <time>2020-02-19T11:14:15.000Z</time>
      </trkpt>
      <trkpt lat="44.52474" lon="6.84434">
        <ele>2804.1999511719</ele>
        <time>2020-02-19T11:14:22.000Z</time>
      </trkpt>
      <trkpt lat="44.5247" lon="6.84425">
        <ele>2803.6000976562</ele>
        <time>2020-02-19T11:14:45.000Z</time>
      </trkpt>
      <trkpt lat="44.5247" lon="6.84425">
        <ele>2803.3999023438</ele>
        <time>2020-02-19T11:14:48.000Z</time>
      </trkpt>
      <trkpt lat="44.52475" lon="6.84431">
        <ele>2804</ele>
        <time>2020-02-19T11:15:07.000Z</time>
      </trkpt>
      <trkpt lat="44.52483" lon="6.84429">
        <ele>2804.8000488281</ele>
        <time>2020-02-19T11:15:22.000Z</time>
      </trkpt>
      <trkpt lat="44.52484" lon="6.8443">
        <ele>2805.1999511719</ele>
        <time>2020-02-19T11:15:24.000Z</time>
      </trkpt>
      <trkpt lat="44.52488" lon="6.84434">
        <ele>2806.3999023438</ele>
        <time>2020-02-19T11:15:31.000Z</time>
      </trkpt>
      <trkpt lat="44.52492" lon="6.84438">
        <ele>2808.8000488281</ele>
        <time>2020-02-19T11:15:45.000Z</time>
      </trkpt>
      <trkpt lat="44.52493" lon="6.84441">
        <ele>2809.1999511719</ele>
        <time>2020-02-19T11:15:52.000Z</time>
      </trkpt>
      <trkpt lat="44.52492" lon="6.84441">
        <ele>2809.8000488281</ele>
        <time>2020-02-19T11:15:57.000Z</time>
      </trkpt>
      <trkpt lat="44.52492" lon="6.84437">
        <ele>2810.1999511719</ele>
        <time>2020-02-19T11:16:21.000Z</time>
      </trkpt>
      <trkpt lat="44.52495" lon="6.84439">
        <ele>2810.3999023438</ele>
        <time>2020-02-19T11:16:31.000Z</time>
      </trkpt>
      <trkpt lat="44.52498" lon="6.8444">
        <ele>2811</ele>
        <time>2020-02-19T11:16:35.000Z</time>
      </trkpt>
      <trkpt lat="44.525" lon="6.8444">
        <ele>2811.6000976562</ele>
        <time>2020-02-19T11:16:38.000Z</time>
      </trkpt>
      <trkpt lat="44.52507" lon="6.8444">
        <ele>2813</ele>
        <time>2020-02-19T11:16:45.000Z</time>
      </trkpt>
      <trkpt lat="44.52511" lon="6.8444">
        <ele>2813.3999023438</ele>
        <time>2020-02-19T11:16:51.000Z</time>
      </trkpt>
      <trkpt lat="44.52513" lon="6.84438">
        <ele>2814.3999023438</ele>
        <time>2020-02-19T11:16:56.000Z</time>
      </trkpt>
      <trkpt lat="44.52515" lon="6.84435">
        <ele>2815.3999023438</ele>
        <time>2020-02-19T11:17:03.000Z</time>
      </trkpt>
      <trkpt lat="44.52518" lon="6.84431">
        <ele>2816.6000976562</ele>
        <time>2020-02-19T11:17:08.000Z</time>
      </trkpt>
      <trkpt lat="44.52525" lon="6.84424">
        <ele>2817.6000976562</ele>
        <time>2020-02-19T11:17:16.000Z</time>
      </trkpt>
      <trkpt lat="44.52525" lon="6.84423">
        <ele>2818.8000488281</ele>
        <time>2020-02-19T11:17:23.000Z</time>
      </trkpt>
      <trkpt lat="44.52527" lon="6.84413">
        <ele>2819.8000488281</ele>
        <time>2020-02-19T11:17:38.000Z</time>
      </trkpt>
      <trkpt lat="44.52528" lon="6.84412">
        <ele>2820.8000488281</ele>
        <time>2020-02-19T11:17:41.000Z</time>
      </trkpt>
      <trkpt lat="44.52529" lon="6.8441">
        <ele>2821.3999023438</ele>
        <time>2020-02-19T11:17:45.000Z</time>
      </trkpt>
      <trkpt lat="44.5253" lon="6.84402">
        <ele>2822</ele>
        <time>2020-02-19T11:17:52.000Z</time>
      </trkpt>
      <trkpt lat="44.52531" lon="6.84394">
        <ele>2823.3999023438</ele>
        <time>2020-02-19T11:17:59.000Z</time>
      </trkpt>
      <trkpt lat="44.52533" lon="6.84384">
        <ele>2825.3999023438</ele>
        <time>2020-02-19T11:18:11.000Z</time>
      </trkpt>
      <trkpt lat="44.52534" lon="6.84379">
        <ele>2827.3999023438</ele>
        <time>2020-02-19T11:18:19.000Z</time>
      </trkpt>
      <trkpt lat="44.52535" lon="6.84369">
        <ele>2829.1999511719</ele>
        <time>2020-02-19T11:18:31.000Z</time>
      </trkpt>
      <trkpt lat="44.52536" lon="6.84364">
        <ele>2830.6000976562</ele>
        <time>2020-02-19T11:18:39.000Z</time>
      </trkpt>
      <trkpt lat="44.52537" lon="6.8436">
        <ele>2831.8000488281</ele>
        <time>2020-02-19T11:18:45.000Z</time>
      </trkpt>
      <trkpt lat="44.52542" lon="6.84357">
        <ele>2833</ele>
        <time>2020-02-19T11:19:02.000Z</time>
      </trkpt>
      <trkpt lat="44.52542" lon="6.84358">
        <ele>2833.3999023438</ele>
        <time>2020-02-19T11:19:26.000Z</time>
      </trkpt>
      <trkpt lat="44.52546" lon="6.8436">
        <ele>2834.1999511719</ele>
        <time>2020-02-19T11:19:32.000Z</time>
      </trkpt>
      <trkpt lat="44.5255" lon="6.84362">
        <ele>2834.8000488281</ele>
        <time>2020-02-19T11:19:37.000Z</time>
      </trkpt>
      <trkpt lat="44.52554" lon="6.84362">
        <ele>2836</ele>
        <time>2020-02-19T11:19:43.000Z</time>
      </trkpt>
      <trkpt lat="44.52559" lon="6.84364">
        <ele>2837</ele>
        <time>2020-02-19T11:19:51.000Z</time>
      </trkpt>
      <trkpt lat="44.52562" lon="6.84367">
        <ele>2837.6000976562</ele>
        <time>2020-02-19T11:19:59.000Z</time>
      </trkpt>
      <trkpt lat="44.52565" lon="6.84368">
        <ele>2838.1999511719</ele>
        <time>2020-02-19T11:20:03.000Z</time>
      </trkpt>
      <trkpt lat="44.52568" lon="6.84369">
        <ele>2839</ele>
        <time>2020-02-19T11:20:08.000Z</time>
      </trkpt>
      <trkpt lat="44.5257" lon="6.8437">
        <ele>2839.3999023438</ele>
        <time>2020-02-19T11:20:10.000Z</time>
      </trkpt>
      <trkpt lat="44.52577" lon="6.84372">
        <ele>2841.3999023438</ele>
        <time>2020-02-19T11:20:20.000Z</time>
      </trkpt>
      <trkpt lat="44.5258" lon="6.84373">
        <ele>2842.3999023438</ele>
        <time>2020-02-19T11:20:25.000Z</time>
      </trkpt>
      <trkpt lat="44.52588" lon="6.8437">
        <ele>2843.8000488281</ele>
        <time>2020-02-19T11:20:52.000Z</time>
      </trkpt>
      <trkpt lat="44.52591" lon="6.84366">
        <ele>2844.6000976562</ele>
        <time>2020-02-19T11:20:58.000Z</time>
      </trkpt>
      <trkpt lat="44.52595" lon="6.84362">
        <ele>2845</ele>
        <time>2020-02-19T11:21:05.000Z</time>
      </trkpt>
      <trkpt lat="44.52597" lon="6.84362">
        <ele>2846.1999511719</ele>
        <time>2020-02-19T11:21:27.000Z</time>
      </trkpt>
      <trkpt lat="44.52597" lon="6.84362">
        <ele>2846.1999511719</ele>
        <time>2020-02-19T11:21:34.000Z</time>
      </trkpt>
      <trkpt lat="44.52597" lon="6.84362">
        <ele>2846</ele>
        <time>2020-02-19T11:21:40.000Z</time>
      </trkpt>
      <trkpt lat="44.52597" lon="6.84363">
        <ele>2846</ele>
        <time>2020-02-19T11:21:52.000Z</time>
      </trkpt>
      <trkpt lat="44.52598" lon="6.84362">
        <ele>2846</ele>
        <time>2020-02-19T11:22:15.000Z</time>
      </trkpt>
      <trkpt lat="44.52597" lon="6.84362">
        <ele>2846</ele>
        <time>2020-02-19T11:22:21.000Z</time>
      </trkpt>
      <trkpt lat="44.52595" lon="6.84361">
        <ele>2846.3999023438</ele>
        <time>2020-02-19T11:22:31.000Z</time>
      </trkpt>
      <trkpt lat="44.52594" lon="6.84361">
        <ele>2846.3999023438</ele>
        <time>2020-02-19T11:22:33.000Z</time>
      </trkpt>
      <trkpt lat="44.52597" lon="6.84361">
        <ele>2846.1999511719</ele>
        <time>2020-02-19T11:22:49.000Z</time>
      </trkpt>
      <trkpt lat="44.52594" lon="6.84361">
        <ele>2846.1999511719</ele>
        <time>2020-02-19T11:23:05.000Z</time>
      </trkpt>
      <trkpt lat="44.52594" lon="6.84362">
        <ele>2846.1999511719</ele>
        <time>2020-02-19T11:23:07.000Z</time>
      </trkpt>
      <trkpt lat="44.52594" lon="6.84361">
        <ele>2846.1999511719</ele>
        <time>2020-02-19T11:23:12.000Z</time>
      </trkpt>
      <trkpt lat="44.52594" lon="6.84362">
        <ele>2846.1999511719</ele>
        <time>2020-02-19T11:23:17.000Z</time>
      </trkpt>
      <trkpt lat="44.52595" lon="6.84363">
        <ele>2846.1999511719</ele>
        <time>2020-02-19T11:23:20.000Z</time>
      </trkpt>
      <trkpt lat="44.52597" lon="6.84364">
        <ele>2846.1999511719</ele>
        <time>2020-02-19T11:23:30.000Z</time>
      </trkpt>
      <trkpt lat="44.52597" lon="6.84364">
        <ele>2846.1999511719</ele>
        <time>2020-02-19T11:23:47.000Z</time>
      </trkpt>
      <trkpt lat="44.52596" lon="6.84363">
        <ele>2846.1999511719</ele>
        <time>2020-02-19T11:24:07.000Z</time>
      </trkpt>
      <trkpt lat="44.52592" lon="6.84362">
        <ele>2846.1999511719</ele>
        <time>2020-02-19T11:24:24.000Z</time>
      </trkpt>
      <trkpt lat="44.52591" lon="6.84362">
        <ele>2846.1999511719</ele>
        <time>2020-02-19T11:24:37.000Z</time>
      </trkpt>
      <trkpt lat="44.52593" lon="6.84362">
        <ele>2846.1999511719</ele>
        <time>2020-02-19T11:24:59.000Z</time>
      </trkpt>
      <trkpt lat="44.52592" lon="6.84362">
        <ele>2846.1999511719</ele>
        <time>2020-02-19T11:25:04.000Z</time>
      </trkpt>
      <trkpt lat="44.52593" lon="6.84362">
        <ele>2846.1999511719</ele>
        <time>2020-02-19T11:25:09.000Z</time>
      </trkpt>
      <trkpt lat="44.52593" lon="6.84363">
        <ele>2846.1999511719</ele>
        <time>2020-02-19T11:25:22.000Z</time>
      </trkpt>
      <trkpt lat="44.52593" lon="6.84361">
        <ele>2846.1999511719</ele>
        <time>2020-02-19T11:25:37.000Z</time>
      </trkpt>
      <trkpt lat="44.52593" lon="6.84361">
        <ele>2846.1999511719</ele>
        <time>2020-02-19T11:25:40.000Z</time>
      </trkpt>
      <trkpt lat="44.52592" lon="6.84361">
        <ele>2846.1999511719</ele>
        <time>2020-02-19T11:25:42.000Z</time>
      </trkpt>
      <trkpt lat="44.52589" lon="6.84358">
        <ele>2846.1999511719</ele>
        <time>2020-02-19T11:26:13.000Z</time>
      </trkpt>
      <trkpt lat="44.5259" lon="6.84359">
        <ele>2846.1999511719</ele>
        <time>2020-02-19T11:26:18.000Z</time>
      </trkpt>
      <trkpt lat="44.5259" lon="6.84359">
        <ele>2846.1999511719</ele>
        <time>2020-02-19T11:26:23.000Z</time>
      </trkpt>
      <trkpt lat="44.52591" lon="6.84359">
        <ele>2846.1999511719</ele>
        <time>2020-02-19T11:26:35.000Z</time>
      </trkpt>
      <trkpt lat="44.52592" lon="6.84359">
        <ele>2846.1999511719</ele>
        <time>2020-02-19T11:26:39.000Z</time>
      </trkpt>
      <trkpt lat="44.52592" lon="6.84359">
        <ele>2846.1999511719</ele>
        <time>2020-02-19T11:26:43.000Z</time>
      </trkpt>
      <trkpt lat="44.52592" lon="6.8436">
        <ele>2846.1999511719</ele>
        <time>2020-02-19T11:26:52.000Z</time>
      </trkpt>
      <trkpt lat="44.52589" lon="6.8436">
        <ele>2846.1999511719</ele>
        <time>2020-02-19T11:27:06.000Z</time>
      </trkpt>
      <trkpt lat="44.52588" lon="6.84361">
        <ele>2846.1999511719</ele>
        <time>2020-02-19T11:27:11.000Z</time>
      </trkpt>
      <trkpt lat="44.52587" lon="6.84361">
        <ele>2846.1999511719</ele>
        <time>2020-02-19T11:27:20.000Z</time>
      </trkpt>
      <trkpt lat="44.52587" lon="6.8436">
        <ele>2846.1999511719</ele>
        <time>2020-02-19T11:27:30.000Z</time>
      </trkpt>
      <trkpt lat="44.52587" lon="6.8436">
        <ele>2846.1999511719</ele>
        <time>2020-02-19T11:27:42.000Z</time>
      </trkpt>
      <trkpt lat="44.52587" lon="6.84361">
        <ele>2846.1999511719</ele>
        <time>2020-02-19T11:27:50.000Z</time>
      </trkpt>
      <trkpt lat="44.52587" lon="6.84361">
        <ele>2846.1999511719</ele>
        <time>2020-02-19T11:28:00.000Z</time>
      </trkpt>
      <trkpt lat="44.52587" lon="6.84361">
        <ele>2846.1999511719</ele>
        <time>2020-02-19T11:28:03.000Z</time>
      </trkpt>
      <trkpt lat="44.52587" lon="6.84361">
        <ele>2846.1999511719</ele>
        <time>2020-02-19T11:28:06.000Z</time>
      </trkpt>
      <trkpt lat="44.52587" lon="6.84361">
        <ele>2846.1999511719</ele>
        <time>2020-02-19T11:28:10.000Z</time>
      </trkpt>
      <trkpt lat="44.52586" lon="6.84361">
        <ele>2846.1999511719</ele>
        <time>2020-02-19T11:28:13.000Z</time>
      </trkpt>
      <trkpt lat="44.52587" lon="6.84361">
        <ele>2846.1999511719</ele>
        <time>2020-02-19T11:28:23.000Z</time>
      </trkpt>
      <trkpt lat="44.52586" lon="6.84361">
        <ele>2846.1999511719</ele>
        <time>2020-02-19T11:28:29.000Z</time>
      </trkpt>
      <trkpt lat="44.52586" lon="6.84361">
        <ele>2846.1999511719</ele>
        <time>2020-02-19T11:28:34.000Z</time>
      </trkpt>
      <trkpt lat="44.5259" lon="6.84361">
        <ele>2846.1999511719</ele>
        <time>2020-02-19T11:29:00.000Z</time>
      </trkpt>
      <trkpt lat="44.52587" lon="6.84361">
        <ele>2846.1999511719</ele>
        <time>2020-02-19T11:29:07.000Z</time>
      </trkpt>
      <trkpt lat="44.52586" lon="6.84361">
        <ele>2846.1999511719</ele>
        <time>2020-02-19T11:29:12.000Z</time>
      </trkpt>
      <trkpt lat="44.52584" lon="6.8436">
        <ele>2846.1999511719</ele>
        <time>2020-02-19T11:29:28.000Z</time>
      </trkpt>
      <trkpt lat="44.52585" lon="6.8436">
        <ele>2846.1999511719</ele>
        <time>2020-02-19T11:29:41.000Z</time>
      </trkpt>
      <trkpt lat="44.52588" lon="6.84359">
        <ele>2846.1999511719</ele>
        <time>2020-02-19T11:29:54.000Z</time>
      </trkpt>
      <trkpt lat="44.52588" lon="6.84358">
        <ele>2846.1999511719</ele>
        <time>2020-02-19T11:29:58.000Z</time>
      </trkpt>
      <trkpt lat="44.52585" lon="6.84357">
        <ele>2846.1999511719</ele>
        <time>2020-02-19T11:30:03.000Z</time>
      </trkpt>
      <trkpt lat="44.52584" lon="6.84358">
        <ele>2846.1999511719</ele>
        <time>2020-02-19T11:30:06.000Z</time>
      </trkpt>
      <trkpt lat="44.52582" lon="6.84357">
        <ele>2846.1999511719</ele>
        <time>2020-02-19T11:30:15.000Z</time>
      </trkpt>
      <trkpt lat="44.52583" lon="6.84358">
        <ele>2846.1999511719</ele>
        <time>2020-02-19T11:30:19.000Z</time>
      </trkpt>
      <trkpt lat="44.52585" lon="6.84358">
        <ele>2846.1999511719</ele>
        <time>2020-02-19T11:30:31.000Z</time>
      </trkpt>
      <trkpt lat="44.52587" lon="6.84359">
        <ele>2846.1999511719</ele>
        <time>2020-02-19T11:30:34.000Z</time>
      </trkpt>
      <trkpt lat="44.52587" lon="6.84359">
        <ele>2846.1999511719</ele>
        <time>2020-02-19T11:30:48.000Z</time>
      </trkpt>
      <trkpt lat="44.52587" lon="6.84359">
        <ele>2846.1999511719</ele>
        <time>2020-02-19T11:30:50.000Z</time>
      </trkpt>
      <trkpt lat="44.52591" lon="6.84363">
        <ele>2846.1999511719</ele>
        <time>2020-02-19T11:31:03.000Z</time>
      </trkpt>
      <trkpt lat="44.52592" lon="6.84363">
        <ele>2846.1999511719</ele>
        <time>2020-02-19T11:31:07.000Z</time>
      </trkpt>
      <trkpt lat="44.52591" lon="6.84367">
        <ele>2846.1999511719</ele>
        <time>2020-02-19T11:31:13.000Z</time>
      </trkpt>
      <trkpt lat="44.5259" lon="6.84362">
        <ele>2846.1999511719</ele>
        <time>2020-02-19T11:31:33.000Z</time>
      </trkpt>
      <trkpt lat="44.52586" lon="6.84361">
        <ele>2846.1999511719</ele>
        <time>2020-02-19T11:31:53.000Z</time>
      </trkpt>
      <trkpt lat="44.52587" lon="6.84359">
        <ele>2846.1999511719</ele>
        <time>2020-02-19T11:32:02.000Z</time>
      </trkpt>
      <trkpt lat="44.52587" lon="6.84358">
        <ele>2846.1999511719</ele>
        <time>2020-02-19T11:32:08.000Z</time>
      </trkpt>
      <trkpt lat="44.52586" lon="6.84357">
        <ele>2846.1999511719</ele>
        <time>2020-02-19T11:32:14.000Z</time>
      </trkpt>
      <trkpt lat="44.52585" lon="6.84357">
        <ele>2846.1999511719</ele>
        <time>2020-02-19T11:32:22.000Z</time>
      </trkpt>
      <trkpt lat="44.52585" lon="6.84357">
        <ele>2846.1999511719</ele>
        <time>2020-02-19T11:32:27.000Z</time>
      </trkpt>
      <trkpt lat="44.52584" lon="6.84357">
        <ele>2846.1999511719</ele>
        <time>2020-02-19T11:32:33.000Z</time>
      </trkpt>
      <trkpt lat="44.52582" lon="6.84358">
        <ele>2846.1999511719</ele>
        <time>2020-02-19T11:32:38.000Z</time>
      </trkpt>
      <trkpt lat="44.52582" lon="6.84358">
        <ele>2846.1999511719</ele>
        <time>2020-02-19T11:32:42.000Z</time>
      </trkpt>
      <trkpt lat="44.52582" lon="6.84358">
        <ele>2846.1999511719</ele>
        <time>2020-02-19T11:32:47.000Z</time>
      </trkpt>
      <trkpt lat="44.52581" lon="6.84358">
        <ele>2846.1999511719</ele>
        <time>2020-02-19T11:32:50.000Z</time>
      </trkpt>
      <trkpt lat="44.52581" lon="6.84358">
        <ele>2846.1999511719</ele>
        <time>2020-02-19T11:32:52.000Z</time>
      </trkpt>
      <trkpt lat="44.52585" lon="6.84359">
        <ele>2846.1999511719</ele>
        <time>2020-02-19T11:33:00.000Z</time>
      </trkpt>
      <trkpt lat="44.52585" lon="6.8436">
        <ele>2846.1999511719</ele>
        <time>2020-02-19T11:33:13.000Z</time>
      </trkpt>
      <trkpt lat="44.52583" lon="6.84359">
        <ele>2846.1999511719</ele>
        <time>2020-02-19T11:33:20.000Z</time>
      </trkpt>
      <trkpt lat="44.52582" lon="6.84359">
        <ele>2846.1999511719</ele>
        <time>2020-02-19T11:33:22.000Z</time>
      </trkpt>
      <trkpt lat="44.52582" lon="6.84358">
        <ele>2846.1999511719</ele>
        <time>2020-02-19T11:33:29.000Z</time>
      </trkpt>
      <trkpt lat="44.52585" lon="6.84358">
        <ele>2846.1999511719</ele>
        <time>2020-02-19T11:33:42.000Z</time>
      </trkpt>
      <trkpt lat="44.52589" lon="6.8436">
        <ele>2846.1999511719</ele>
        <time>2020-02-19T11:33:51.000Z</time>
      </trkpt>
      <trkpt lat="44.5259" lon="6.8436">
        <ele>2846.1999511719</ele>
        <time>2020-02-19T11:33:57.000Z</time>
      </trkpt>
      <trkpt lat="44.52588" lon="6.84359">
        <ele>2846.1999511719</ele>
        <time>2020-02-19T11:34:11.000Z</time>
      </trkpt>
      <trkpt lat="44.52584" lon="6.84357">
        <ele>2846.1999511719</ele>
        <time>2020-02-19T11:34:56.000Z</time>
      </trkpt>
      <trkpt lat="44.52584" lon="6.84358">
        <ele>2846.1999511719</ele>
        <time>2020-02-19T11:35:08.000Z</time>
      </trkpt>
      <trkpt lat="44.52584" lon="6.84359">
        <ele>2846.1999511719</ele>
        <time>2020-02-19T11:35:18.000Z</time>
      </trkpt>
      <trkpt lat="44.52587" lon="6.84358">
        <ele>2846.1999511719</ele>
        <time>2020-02-19T11:35:30.000Z</time>
      </trkpt>
      <trkpt lat="44.52586" lon="6.84358">
        <ele>2846.1999511719</ele>
        <time>2020-02-19T11:35:33.000Z</time>
      </trkpt>
      <trkpt lat="44.52586" lon="6.8436">
        <ele>2846.1999511719</ele>
        <time>2020-02-19T11:35:36.000Z</time>
      </trkpt>
      <trkpt lat="44.52586" lon="6.84361">
        <ele>2846.1999511719</ele>
        <time>2020-02-19T11:35:44.000Z</time>
      </trkpt>
      <trkpt lat="44.52586" lon="6.84361">
        <ele>2846.1999511719</ele>
        <time>2020-02-19T11:36:06.000Z</time>
      </trkpt>
      <trkpt lat="44.52585" lon="6.84362">
        <ele>2846.1999511719</ele>
        <time>2020-02-19T11:36:17.000Z</time>
      </trkpt>
      <trkpt lat="44.52587" lon="6.8436">
        <ele>2846.1999511719</ele>
        <time>2020-02-19T11:36:29.000Z</time>
      </trkpt>
      <trkpt lat="44.52587" lon="6.8436">
        <ele>2846.1999511719</ele>
        <time>2020-02-19T11:36:32.000Z</time>
      </trkpt>
      <trkpt lat="44.52587" lon="6.84359">
        <ele>2846.1999511719</ele>
        <time>2020-02-19T11:36:40.000Z</time>
      </trkpt>
      <trkpt lat="44.5259" lon="6.84358">
        <ele>2846.1999511719</ele>
        <time>2020-02-19T11:36:51.000Z</time>
      </trkpt>
      <trkpt lat="44.52587" lon="6.84356">
        <ele>2846.1999511719</ele>
        <time>2020-02-19T11:37:09.000Z</time>
      </trkpt>
      <trkpt lat="44.52588" lon="6.84358">
        <ele>2846.1999511719</ele>
        <time>2020-02-19T11:37:14.000Z</time>
      </trkpt>
      <trkpt lat="44.52585" lon="6.84358">
        <ele>2846.1999511719</ele>
        <time>2020-02-19T11:37:44.000Z</time>
      </trkpt>
      <trkpt lat="44.52585" lon="6.8436">
        <ele>2846.1999511719</ele>
        <time>2020-02-19T11:38:07.000Z</time>
      </trkpt>
      <trkpt lat="44.52587" lon="6.8436">
        <ele>2845</ele>
        <time>2020-02-19T11:38:28.000Z</time>
      </trkpt>
      <trkpt lat="44.52583" lon="6.84359">
        <ele>2845.3999023438</ele>
        <time>2020-02-19T11:38:40.000Z</time>
      </trkpt>
      <trkpt lat="44.52585" lon="6.84359">
        <ele>2844.6000976562</ele>
        <time>2020-02-19T11:38:49.000Z</time>
      </trkpt>
      <trkpt lat="44.52585" lon="6.84358">
        <ele>2844.6000976562</ele>
        <time>2020-02-19T11:38:56.000Z</time>
      </trkpt>
      <trkpt lat="44.52584" lon="6.84359">
        <ele>2844.6000976562</ele>
        <time>2020-02-19T11:38:59.000Z</time>
      </trkpt>
      <trkpt lat="44.52586" lon="6.84359">
        <ele>2844.6000976562</ele>
        <time>2020-02-19T11:39:12.000Z</time>
      </trkpt>
      <trkpt lat="44.52585" lon="6.84358">
        <ele>2844.1999511719</ele>
        <time>2020-02-19T11:39:24.000Z</time>
      </trkpt>
      <trkpt lat="44.52585" lon="6.84359">
        <ele>2844.3999023438</ele>
        <time>2020-02-19T11:39:32.000Z</time>
      </trkpt>
      <trkpt lat="44.52586" lon="6.84358">
        <ele>2844.3999023438</ele>
        <time>2020-02-19T11:39:41.000Z</time>
      </trkpt>
      <trkpt lat="44.52584" lon="6.84355">
        <ele>2844.1999511719</ele>
        <time>2020-02-19T11:40:04.000Z</time>
      </trkpt>
      <trkpt lat="44.5259" lon="6.84359">
        <ele>2844.3999023438</ele>
        <time>2020-02-19T11:40:31.000Z</time>
      </trkpt>
      <trkpt lat="44.52589" lon="6.84359">
        <ele>2844.1999511719</ele>
        <time>2020-02-19T11:40:46.000Z</time>
      </trkpt>
      <trkpt lat="44.5258" lon="6.84358">
        <ele>2844.1999511719</ele>
        <time>2020-02-19T11:41:22.000Z</time>
      </trkpt>
      <trkpt lat="44.52584" lon="6.84356">
        <ele>2844.1999511719</ele>
        <time>2020-02-19T11:41:39.000Z</time>
      </trkpt>
      <trkpt lat="44.52586" lon="6.84362">
        <ele>2844.1999511719</ele>
        <time>2020-02-19T11:41:57.000Z</time>
      </trkpt>
      <trkpt lat="44.52587" lon="6.8436">
        <ele>2844.1999511719</ele>
        <time>2020-02-19T11:42:32.000Z</time>
      </trkpt>
      <trkpt lat="44.52587" lon="6.84357">
        <ele>2844.1999511719</ele>
        <time>2020-02-19T11:42:47.000Z</time>
      </trkpt>
      <trkpt lat="44.52586" lon="6.84359">
        <ele>2844.1999511719</ele>
        <time>2020-02-19T11:42:56.000Z</time>
      </trkpt>
      <trkpt lat="44.52584" lon="6.8436">
        <ele>2844.1999511719</ele>
        <time>2020-02-19T11:43:03.000Z</time>
      </trkpt>
      <trkpt lat="44.52584" lon="6.84362">
        <ele>2844.1999511719</ele>
        <time>2020-02-19T11:43:07.000Z</time>
      </trkpt>
      <trkpt lat="44.52584" lon="6.84361">
        <ele>2844.1999511719</ele>
        <time>2020-02-19T11:43:11.000Z</time>
      </trkpt>
      <trkpt lat="44.52584" lon="6.84361">
        <ele>2844.1999511719</ele>
        <time>2020-02-19T11:43:17.000Z</time>
      </trkpt>
      <trkpt lat="44.52585" lon="6.8436">
        <ele>2844.1999511719</ele>
        <time>2020-02-19T11:43:29.000Z</time>
      </trkpt>
      <trkpt lat="44.52585" lon="6.8436">
        <ele>2844.1999511719</ele>
        <time>2020-02-19T11:43:32.000Z</time>
      </trkpt>
      <trkpt lat="44.52586" lon="6.8436">
        <ele>2844.1999511719</ele>
        <time>2020-02-19T11:43:39.000Z</time>
      </trkpt>
      <trkpt lat="44.52587" lon="6.84359">
        <ele>2844.1999511719</ele>
        <time>2020-02-19T11:43:42.000Z</time>
      </trkpt>
      <trkpt lat="44.52585" lon="6.84359">
        <ele>2844.1999511719</ele>
        <time>2020-02-19T11:44:01.000Z</time>
      </trkpt>
      <trkpt lat="44.52589" lon="6.84356">
        <ele>2844.1999511719</ele>
        <time>2020-02-19T11:44:17.000Z</time>
      </trkpt>
      <trkpt lat="44.52589" lon="6.84361">
        <ele>2844.1999511719</ele>
        <time>2020-02-19T11:44:34.000Z</time>
      </trkpt>
      <trkpt lat="44.52588" lon="6.84359">
        <ele>2844.1999511719</ele>
        <time>2020-02-19T11:44:49.000Z</time>
      </trkpt>
      <trkpt lat="44.52588" lon="6.8436">
        <ele>2844.1999511719</ele>
        <time>2020-02-19T11:45:02.000Z</time>
      </trkpt>
      <trkpt lat="44.52586" lon="6.84357">
        <ele>2844.1999511719</ele>
        <time>2020-02-19T11:45:07.000Z</time>
      </trkpt>
      <trkpt lat="44.52586" lon="6.84356">
        <ele>2844.1999511719</ele>
        <time>2020-02-19T11:45:17.000Z</time>
      </trkpt>
      <trkpt lat="44.52589" lon="6.84358">
        <ele>2844.1999511719</ele>
        <time>2020-02-19T11:45:24.000Z</time>
      </trkpt>
      <trkpt lat="44.52587" lon="6.84357">
        <ele>2844.1999511719</ele>
        <time>2020-02-19T11:45:29.000Z</time>
      </trkpt>
      <trkpt lat="44.52586" lon="6.84359">
        <ele>2844</ele>
        <time>2020-02-19T11:45:53.000Z</time>
      </trkpt>
      <trkpt lat="44.52586" lon="6.8436">
        <ele>2844</ele>
        <time>2020-02-19T11:46:04.000Z</time>
      </trkpt>
      <trkpt lat="44.52587" lon="6.84358">
        <ele>2844</ele>
        <time>2020-02-19T11:46:16.000Z</time>
      </trkpt>
      <trkpt lat="44.52583" lon="6.84361">
        <ele>2844.3999023438</ele>
        <time>2020-02-19T11:46:34.000Z</time>
      </trkpt>
      <trkpt lat="44.52583" lon="6.84359">
        <ele>2844.3999023438</ele>
        <time>2020-02-19T11:47:37.000Z</time>
      </trkpt>
      <trkpt lat="44.52579" lon="6.84359">
        <ele>2844.3999023438</ele>
        <time>2020-02-19T11:47:56.000Z</time>
      </trkpt>
      <trkpt lat="44.5258" lon="6.8436">
        <ele>2844.3999023438</ele>
        <time>2020-02-19T11:48:12.000Z</time>
      </trkpt>
      <trkpt lat="44.5258" lon="6.8436">
        <ele>2844.3999023438</ele>
        <time>2020-02-19T11:48:15.000Z</time>
      </trkpt>
      <trkpt lat="44.5258" lon="6.8436">
        <ele>2844.3999023438</ele>
        <time>2020-02-19T11:48:17.000Z</time>
      </trkpt>
      <trkpt lat="44.5258" lon="6.8436">
        <ele>2844.3999023438</ele>
        <time>2020-02-19T11:48:21.000Z</time>
      </trkpt>
      <trkpt lat="44.5258" lon="6.84359">
        <ele>2844.3999023438</ele>
        <time>2020-02-19T11:48:30.000Z</time>
      </trkpt>
      <trkpt lat="44.52579" lon="6.84359">
        <ele>2844.3999023438</ele>
        <time>2020-02-19T11:48:34.000Z</time>
      </trkpt>
      <trkpt lat="44.5258" lon="6.84359">
        <ele>2844.3999023438</ele>
        <time>2020-02-19T11:48:44.000Z</time>
      </trkpt>
      <trkpt lat="44.52579" lon="6.8436">
        <ele>2844.3999023438</ele>
        <time>2020-02-19T11:48:58.000Z</time>
      </trkpt>
      <trkpt lat="44.52579" lon="6.8436">
        <ele>2844.3999023438</ele>
        <time>2020-02-19T11:49:01.000Z</time>
      </trkpt>
      <trkpt lat="44.52579" lon="6.8436">
        <ele>2844.3999023438</ele>
        <time>2020-02-19T11:49:03.000Z</time>
      </trkpt>
      <trkpt lat="44.5258" lon="6.8436">
        <ele>2844.3999023438</ele>
        <time>2020-02-19T11:49:10.000Z</time>
      </trkpt>
      <trkpt lat="44.5258" lon="6.84362">
        <ele>2844.3999023438</ele>
        <time>2020-02-19T11:49:50.000Z</time>
      </trkpt>
      <trkpt lat="44.5258" lon="6.84362">
        <ele>2844.3999023438</ele>
        <time>2020-02-19T11:49:55.000Z</time>
      </trkpt>
      <trkpt lat="44.52581" lon="6.84361">
        <ele>2844.3999023438</ele>
        <time>2020-02-19T11:49:59.000Z</time>
      </trkpt>
      <trkpt lat="44.52581" lon="6.8436">
        <ele>2844.3999023438</ele>
        <time>2020-02-19T11:50:04.000Z</time>
      </trkpt>
      <trkpt lat="44.52581" lon="6.84359">
        <ele>2844.3999023438</ele>
        <time>2020-02-19T11:50:10.000Z</time>
      </trkpt>
      <trkpt lat="44.52581" lon="6.84359">
        <ele>2844.3999023438</ele>
        <time>2020-02-19T11:50:12.000Z</time>
      </trkpt>
      <trkpt lat="44.52581" lon="6.8436">
        <ele>2844.3999023438</ele>
        <time>2020-02-19T11:50:16.000Z</time>
      </trkpt>
      <trkpt lat="44.52581" lon="6.8436">
        <ele>2844.3999023438</ele>
        <time>2020-02-19T11:50:28.000Z</time>
      </trkpt>
      <trkpt lat="44.52581" lon="6.84362">
        <ele>2844.3999023438</ele>
        <time>2020-02-19T11:50:43.000Z</time>
      </trkpt>
      <trkpt lat="44.52581" lon="6.84362">
        <ele>2844.3999023438</ele>
        <time>2020-02-19T11:50:49.000Z</time>
      </trkpt>
      <trkpt lat="44.52581" lon="6.84362">
        <ele>2844.3999023438</ele>
        <time>2020-02-19T11:50:52.000Z</time>
      </trkpt>
      <trkpt lat="44.5258" lon="6.84362">
        <ele>2844.3999023438</ele>
        <time>2020-02-19T11:51:09.000Z</time>
      </trkpt>
      <trkpt lat="44.5258" lon="6.84362">
        <ele>2844.3999023438</ele>
        <time>2020-02-19T11:51:11.000Z</time>
      </trkpt>
      <trkpt lat="44.52581" lon="6.84362">
        <ele>2844.3999023438</ele>
        <time>2020-02-19T11:51:23.000Z</time>
      </trkpt>
      <trkpt lat="44.52581" lon="6.8436">
        <ele>2844.3999023438</ele>
        <time>2020-02-19T11:51:35.000Z</time>
      </trkpt>
      <trkpt lat="44.52581" lon="6.8436">
        <ele>2844.3999023438</ele>
        <time>2020-02-19T11:51:45.000Z</time>
      </trkpt>
      <trkpt lat="44.5258" lon="6.8436">
        <ele>2844.3999023438</ele>
        <time>2020-02-19T11:51:48.000Z</time>
      </trkpt>
      <trkpt lat="44.5258" lon="6.84361">
        <ele>2844.3999023438</ele>
        <time>2020-02-19T11:51:52.000Z</time>
      </trkpt>
      <trkpt lat="44.5258" lon="6.84361">
        <ele>2844.3999023438</ele>
        <time>2020-02-19T11:51:59.000Z</time>
      </trkpt>
      <trkpt lat="44.5258" lon="6.84361">
        <ele>2844.3999023438</ele>
        <time>2020-02-19T11:52:03.000Z</time>
      </trkpt>
      <trkpt lat="44.52579" lon="6.84362">
        <ele>2844.3999023438</ele>
        <time>2020-02-19T11:52:07.000Z</time>
      </trkpt>
      <trkpt lat="44.52579" lon="6.84362">
        <ele>2844.3999023438</ele>
        <time>2020-02-19T11:52:11.000Z</time>
      </trkpt>
      <trkpt lat="44.52579" lon="6.84362">
        <ele>2844.3999023438</ele>
        <time>2020-02-19T11:52:14.000Z</time>
      </trkpt>
      <trkpt lat="44.5258" lon="6.84362">
        <ele>2844.3999023438</ele>
        <time>2020-02-19T11:52:17.000Z</time>
      </trkpt>
      <trkpt lat="44.52571" lon="6.84359">
        <ele>2844.3999023438</ele>
        <time>2020-02-19T11:52:35.000Z</time>
      </trkpt>
      <trkpt lat="44.52562" lon="6.84356">
        <ele>2841.1999511719</ele>
        <time>2020-02-19T11:52:39.000Z</time>
      </trkpt>
      <trkpt lat="44.5256" lon="6.84362">
        <ele>2839.3999023438</ele>
        <time>2020-02-19T11:52:41.000Z</time>
      </trkpt>
      <trkpt lat="44.52548" lon="6.84359">
        <ele>2837.8000488281</ele>
        <time>2020-02-19T11:52:46.000Z</time>
      </trkpt>
      <trkpt lat="44.52542" lon="6.84362">
        <ele>2835.6000976562</ele>
        <time>2020-02-19T11:53:02.000Z</time>
      </trkpt>
      <trkpt lat="44.52541" lon="6.8436">
        <ele>2835.8000488281</ele>
        <time>2020-02-19T11:53:11.000Z</time>
      </trkpt>
      <trkpt lat="44.52541" lon="6.8436">
        <ele>2835.3999023438</ele>
        <time>2020-02-19T11:53:17.000Z</time>
      </trkpt>
      <trkpt lat="44.5254" lon="6.84362">
        <ele>2835.8000488281</ele>
        <time>2020-02-19T11:53:23.000Z</time>
      </trkpt>
      <trkpt lat="44.52536" lon="6.84362">
        <ele>2835.8000488281</ele>
        <time>2020-02-19T11:53:34.000Z</time>
      </trkpt>
      <trkpt lat="44.52533" lon="6.84355">
        <ele>2835.3999023438</ele>
        <time>2020-02-19T11:53:40.000Z</time>
      </trkpt>
      <trkpt lat="44.52526" lon="6.84346">
        <ele>2833</ele>
        <time>2020-02-19T11:53:49.000Z</time>
      </trkpt>
      <trkpt lat="44.52522" lon="6.84344">
        <ele>2831.8000488281</ele>
        <time>2020-02-19T11:53:52.000Z</time>
      </trkpt>
      <trkpt lat="44.52518" lon="6.84339">
        <ele>2829.8000488281</ele>
        <time>2020-02-19T11:53:56.000Z</time>
      </trkpt>
      <trkpt lat="44.52514" lon="6.84339">
        <ele>2828.6000976562</ele>
        <time>2020-02-19T11:54:00.000Z</time>
      </trkpt>
      <trkpt lat="44.52513" lon="6.84337">
        <ele>2828</ele>
        <time>2020-02-19T11:54:02.000Z</time>
      </trkpt>
      <trkpt lat="44.52512" lon="6.84337">
        <ele>2826.8000488281</ele>
        <time>2020-02-19T11:54:15.000Z</time>
      </trkpt>
      <trkpt lat="44.52503" lon="6.84335">
        <ele>2824.6000976562</ele>
        <time>2020-02-19T11:54:23.000Z</time>
      </trkpt>
      <trkpt lat="44.52489" lon="6.84328">
        <ele>2821.8000488281</ele>
        <time>2020-02-19T11:54:27.000Z</time>
      </trkpt>
      <trkpt lat="44.52473" lon="6.84318">
        <ele>2818.8000488281</ele>
        <time>2020-02-19T11:54:32.000Z</time>
      </trkpt>
      <trkpt lat="44.52467" lon="6.84317">
        <ele>2818.6000976562</ele>
        <time>2020-02-19T11:54:41.000Z</time>
      </trkpt>
      <trkpt lat="44.52466" lon="6.84316">
        <ele>2818.3999023438</ele>
        <time>2020-02-19T11:54:47.000Z</time>
      </trkpt>
      <trkpt lat="44.52458" lon="6.8431">
        <ele>2818</ele>
        <time>2020-02-19T11:54:56.000Z</time>
      </trkpt>
      <trkpt lat="44.52449" lon="6.843">
        <ele>2816.3999023438</ele>
        <time>2020-02-19T11:55:05.000Z</time>
      </trkpt>
      <trkpt lat="44.52431" lon="6.84289">
        <ele>2812.6000976562</ele>
        <time>2020-02-19T11:55:11.000Z</time>
      </trkpt>
      <trkpt lat="44.52414" lon="6.84282">
        <ele>2809.6000976562</ele>
        <time>2020-02-19T11:55:15.000Z</time>
      </trkpt>
      <trkpt lat="44.5241" lon="6.84281">
        <ele>2808.1999511719</ele>
        <time>2020-02-19T11:55:18.000Z</time>
      </trkpt>
      <trkpt lat="44.52402" lon="6.84281">
        <ele>2806.3999023438</ele>
        <time>2020-02-19T11:55:24.000Z</time>
      </trkpt>
      <trkpt lat="44.52394" lon="6.8428">
        <ele>2804.3999023438</ele>
        <time>2020-02-19T11:55:31.000Z</time>
      </trkpt>
      <trkpt lat="44.52389" lon="6.84279">
        <ele>2803.6000976562</ele>
        <time>2020-02-19T11:55:33.000Z</time>
      </trkpt>
      <trkpt lat="44.52382" lon="6.84279">
        <ele>2802</ele>
        <time>2020-02-19T11:55:36.000Z</time>
      </trkpt>
      <trkpt lat="44.52375" lon="6.8428">
        <ele>2800</ele>
        <time>2020-02-19T11:55:49.000Z</time>
      </trkpt>
      <trkpt lat="44.52367" lon="6.84279">
        <ele>2798.3999023438</ele>
        <time>2020-02-19T11:55:52.000Z</time>
      </trkpt>
      <trkpt lat="44.52367" lon="6.84277">
        <ele>2796.1999511719</ele>
        <time>2020-02-19T11:55:55.000Z</time>
      </trkpt>
      <trkpt lat="44.5236" lon="6.84282">
        <ele>2795</ele>
        <time>2020-02-19T11:56:02.000Z</time>
      </trkpt>
      <trkpt lat="44.52352" lon="6.84283">
        <ele>2792.8000488281</ele>
        <time>2020-02-19T11:56:07.000Z</time>
      </trkpt>
      <trkpt lat="44.52354" lon="6.84285">
        <ele>2791.8000488281</ele>
        <time>2020-02-19T11:56:17.000Z</time>
      </trkpt>
      <trkpt lat="44.52348" lon="6.84288">
        <ele>2790.6000976562</ele>
        <time>2020-02-19T11:56:26.000Z</time>
      </trkpt>
      <trkpt lat="44.52338" lon="6.84287">
        <ele>2788.1999511719</ele>
        <time>2020-02-19T11:56:33.000Z</time>
      </trkpt>
      <trkpt lat="44.52337" lon="6.84287">
        <ele>2786.8000488281</ele>
        <time>2020-02-19T11:56:54.000Z</time>
      </trkpt>
      <trkpt lat="44.52336" lon="6.84287">
        <ele>2786.8000488281</ele>
        <time>2020-02-19T11:57:05.000Z</time>
      </trkpt>
      <trkpt lat="44.52338" lon="6.84285">
        <ele>2786.6000976562</ele>
        <time>2020-02-19T11:57:09.000Z</time>
      </trkpt>
      <trkpt lat="44.52343" lon="6.84285">
        <ele>2786.6000976562</ele>
        <time>2020-02-19T11:57:26.000Z</time>
      </trkpt>
      <trkpt lat="44.52323" lon="6.84283">
        <ele>2786.6000976562</ele>
        <time>2020-02-19T11:57:34.000Z</time>
      </trkpt>
      <trkpt lat="44.5232" lon="6.84285">
        <ele>2786.3999023438</ele>
        <time>2020-02-19T11:57:36.000Z</time>
      </trkpt>
      <trkpt lat="44.52324" lon="6.84283">
        <ele>2785.6000976562</ele>
        <time>2020-02-19T11:57:39.000Z</time>
      </trkpt>
      <trkpt lat="44.52319" lon="6.84283">
        <ele>2784.1999511719</ele>
        <time>2020-02-19T11:57:44.000Z</time>
      </trkpt>
      <trkpt lat="44.52311" lon="6.8428">
        <ele>2781.6000976562</ele>
        <time>2020-02-19T11:57:47.000Z</time>
      </trkpt>
      <trkpt lat="44.52306" lon="6.84282">
        <ele>2779.8000488281</ele>
        <time>2020-02-19T11:57:49.000Z</time>
      </trkpt>
      <trkpt lat="44.52292" lon="6.84281">
        <ele>2774.8000488281</ele>
        <time>2020-02-19T11:57:53.000Z</time>
      </trkpt>
      <trkpt lat="44.52283" lon="6.84276">
        <ele>2772.1999511719</ele>
        <time>2020-02-19T11:57:55.000Z</time>
      </trkpt>
      <trkpt lat="44.5227" lon="6.84288">
        <ele>2769.3999023438</ele>
        <time>2020-02-19T11:57:58.000Z</time>
      </trkpt>
      <trkpt lat="44.52265" lon="6.84289">
        <ele>2767.1999511719</ele>
        <time>2020-02-19T11:58:00.000Z</time>
      </trkpt>
      <trkpt lat="44.52264" lon="6.8429">
        <ele>2764.8000488281</ele>
        <time>2020-02-19T11:58:03.000Z</time>
      </trkpt>
      <trkpt lat="44.52255" lon="6.84294">
        <ele>2764.1999511719</ele>
        <time>2020-02-19T11:58:12.000Z</time>
      </trkpt>
      <trkpt lat="44.52238" lon="6.84286">
        <ele>2762.6000976562</ele>
        <time>2020-02-19T11:58:17.000Z</time>
      </trkpt>
      <trkpt lat="44.52225" lon="6.8429">
        <ele>2761.1999511719</ele>
        <time>2020-02-19T11:58:20.000Z</time>
      </trkpt>
      <trkpt lat="44.52187" lon="6.84301">
        <ele>2757.3999023438</ele>
        <time>2020-02-19T11:58:28.000Z</time>
      </trkpt>
      <trkpt lat="44.52182" lon="6.84302">
        <ele>2755.6000976562</ele>
        <time>2020-02-19T11:58:32.000Z</time>
      </trkpt>
      <trkpt lat="44.52175" lon="6.84294">
        <ele>2755.3999023438</ele>
        <time>2020-02-19T11:58:41.000Z</time>
      </trkpt>
      <trkpt lat="44.52176" lon="6.84289">
        <ele>2754</ele>
        <time>2020-02-19T11:58:45.000Z</time>
      </trkpt>
      <trkpt lat="44.52187" lon="6.84288">
        <ele>2754</ele>
        <time>2020-02-19T11:59:06.000Z</time>
      </trkpt>
      <trkpt lat="44.52189" lon="6.84284">
        <ele>2754</ele>
        <time>2020-02-19T11:59:14.000Z</time>
      </trkpt>
      <trkpt lat="44.52189" lon="6.84285">
        <ele>2754.1999511719</ele>
        <time>2020-02-19T11:59:16.000Z</time>
      </trkpt>
      <trkpt lat="44.5219" lon="6.84285">
        <ele>2754.1999511719</ele>
        <time>2020-02-19T11:59:19.000Z</time>
      </trkpt>
      <trkpt lat="44.5219" lon="6.84285">
        <ele>2754.3999023438</ele>
        <time>2020-02-19T11:59:22.000Z</time>
      </trkpt>
      <trkpt lat="44.52186" lon="6.84286">
        <ele>2753.8000488281</ele>
        <time>2020-02-19T11:59:36.000Z</time>
      </trkpt>
      <trkpt lat="44.52191" lon="6.84282">
        <ele>2753.1999511719</ele>
        <time>2020-02-19T11:59:48.000Z</time>
      </trkpt>
      <trkpt lat="44.52193" lon="6.84275">
        <ele>2752.6000976562</ele>
        <time>2020-02-19T11:59:50.000Z</time>
      </trkpt>
      <trkpt lat="44.52193" lon="6.84268">
        <ele>2751.8000488281</ele>
        <time>2020-02-19T11:59:53.000Z</time>
      </trkpt>
      <trkpt lat="44.52178" lon="6.84261">
        <ele>2750.8000488281</ele>
        <time>2020-02-19T12:00:02.000Z</time>
      </trkpt>
      <trkpt lat="44.52145" lon="6.84242">
        <ele>2746.8000488281</ele>
        <time>2020-02-19T12:00:09.000Z</time>
      </trkpt>
      <trkpt lat="44.52139" lon="6.84241">
        <ele>2745.3999023438</ele>
        <time>2020-02-19T12:00:12.000Z</time>
      </trkpt>
      <trkpt lat="44.52132" lon="6.84237">
        <ele>2744.6000976562</ele>
        <time>2020-02-19T12:00:21.000Z</time>
      </trkpt>
      <trkpt lat="44.52127" lon="6.84231">
        <ele>2743.6000976562</ele>
        <time>2020-02-19T12:00:24.000Z</time>
      </trkpt>
      <trkpt lat="44.52112" lon="6.84212">
        <ele>2740.1999511719</ele>
        <time>2020-02-19T12:00:32.000Z</time>
      </trkpt>
      <trkpt lat="44.52109" lon="6.84206">
        <ele>2737.8000488281</ele>
        <time>2020-02-19T12:00:35.000Z</time>
      </trkpt>
      <trkpt lat="44.52105" lon="6.842">
        <ele>2736.1999511719</ele>
        <time>2020-02-19T12:00:40.000Z</time>
      </trkpt>
      <trkpt lat="44.52097" lon="6.84191">
        <ele>2733.1999511719</ele>
        <time>2020-02-19T12:00:44.000Z</time>
      </trkpt>
      <trkpt lat="44.52092" lon="6.84186">
        <ele>2730.6000976562</ele>
        <time>2020-02-19T12:00:48.000Z</time>
      </trkpt>
      <trkpt lat="44.52092" lon="6.84185">
        <ele>2729.6000976562</ele>
        <time>2020-02-19T12:00:52.000Z</time>
      </trkpt>
      <trkpt lat="44.52085" lon="6.84184">
        <ele>2728.1999511719</ele>
        <time>2020-02-19T12:00:57.000Z</time>
      </trkpt>
      <trkpt lat="44.52067" lon="6.84175">
        <ele>2724.8000488281</ele>
        <time>2020-02-19T12:01:09.000Z</time>
      </trkpt>
      <trkpt lat="44.52056" lon="6.84165">
        <ele>2721.3999023438</ele>
        <time>2020-02-19T12:01:13.000Z</time>
      </trkpt>
      <trkpt lat="44.52047" lon="6.84156">
        <ele>2718.6000976562</ele>
        <time>2020-02-19T12:01:16.000Z</time>
      </trkpt>
      <trkpt lat="44.52035" lon="6.84145">
        <ele>2715.3999023438</ele>
        <time>2020-02-19T12:01:20.000Z</time>
      </trkpt>
      <trkpt lat="44.52031" lon="6.84141">
        <ele>2712.3999023438</ele>
        <time>2020-02-19T12:01:24.000Z</time>
      </trkpt>
      <trkpt lat="44.52019" lon="6.84132">
        <ele>2710.3999023438</ele>
        <time>2020-02-19T12:01:29.000Z</time>
      </trkpt>
      <trkpt lat="44.52008" lon="6.84127">
        <ele>2708.1999511719</ele>
        <time>2020-02-19T12:01:32.000Z</time>
      </trkpt>
      <trkpt lat="44.52001" lon="6.84123">
        <ele>2704.1999511719</ele>
        <time>2020-02-19T12:01:48.000Z</time>
      </trkpt>
      <trkpt lat="44.51998" lon="6.84124">
        <ele>2703.8000488281</ele>
        <time>2020-02-19T12:01:57.000Z</time>
      </trkpt>
      <trkpt lat="44.5199" lon="6.84125">
        <ele>2703.6000976562</ele>
        <time>2020-02-19T12:02:07.000Z</time>
      </trkpt>
      <trkpt lat="44.51983" lon="6.84129">
        <ele>2703.3999023438</ele>
        <time>2020-02-19T12:02:29.000Z</time>
      </trkpt>
      <trkpt lat="44.51989" lon="6.84125">
        <ele>2703.1999511719</ele>
        <time>2020-02-19T12:02:37.000Z</time>
      </trkpt>
      <trkpt lat="44.51989" lon="6.84125">
        <ele>2703.3999023438</ele>
        <time>2020-02-19T12:02:40.000Z</time>
      </trkpt>
      <trkpt lat="44.51991" lon="6.84126">
        <ele>2703.6000976562</ele>
        <time>2020-02-19T12:02:45.000Z</time>
      </trkpt>
      <trkpt lat="44.51992" lon="6.84122">
        <ele>2704.6000976562</ele>
        <time>2020-02-19T12:03:08.000Z</time>
      </trkpt>
      <trkpt lat="44.51998" lon="6.84128">
        <ele>2704.1999511719</ele>
        <time>2020-02-19T12:03:21.000Z</time>
      </trkpt>
      <trkpt lat="44.52" lon="6.84129">
        <ele>2703.8000488281</ele>
        <time>2020-02-19T12:03:27.000Z</time>
      </trkpt>
      <trkpt lat="44.51994" lon="6.84131">
        <ele>2703.1999511719</ele>
        <time>2020-02-19T12:03:31.000Z</time>
      </trkpt>
      <trkpt lat="44.51994" lon="6.84129">
        <ele>2701.1999511719</ele>
        <time>2020-02-19T12:03:45.000Z</time>
      </trkpt>
      <trkpt lat="44.51994" lon="6.8413">
        <ele>2700.8000488281</ele>
        <time>2020-02-19T12:03:48.000Z</time>
      </trkpt>
      <trkpt lat="44.51988" lon="6.84143">
        <ele>2700</ele>
        <time>2020-02-19T12:03:54.000Z</time>
      </trkpt>
      <trkpt lat="44.5198" lon="6.84143">
        <ele>2698</ele>
        <time>2020-02-19T12:03:57.000Z</time>
      </trkpt>
      <trkpt lat="44.51957" lon="6.84133">
        <ele>2695.3999023438</ele>
        <time>2020-02-19T12:04:02.000Z</time>
      </trkpt>
      <trkpt lat="44.51941" lon="6.84129">
        <ele>2693</ele>
        <time>2020-02-19T12:04:07.000Z</time>
      </trkpt>
      <trkpt lat="44.51938" lon="6.84127">
        <ele>2691.1999511719</ele>
        <time>2020-02-19T12:04:11.000Z</time>
      </trkpt>
      <trkpt lat="44.51926" lon="6.84121">
        <ele>2689.6000976562</ele>
        <time>2020-02-19T12:04:22.000Z</time>
      </trkpt>
      <trkpt lat="44.51916" lon="6.84121">
        <ele>2555</ele>
        <time>2020-02-19T12:04:33.000Z</time>
      </trkpt>
      <trkpt lat="44.51906" lon="6.8412">
        <ele>2555</ele>
        <time>2020-02-19T12:04:38.000Z</time>
      </trkpt>
      <trkpt lat="44.51897" lon="6.84121">
        <ele>2555</ele>
        <time>2020-02-19T12:04:42.000Z</time>
      </trkpt>
      <trkpt lat="44.51885" lon="6.84112">
        <ele>2555</ele>
        <time>2020-02-19T12:04:45.000Z</time>
      </trkpt>
      <trkpt lat="44.51879" lon="6.84104">
        <ele>2555</ele>
        <time>2020-02-19T12:04:47.000Z</time>
      </trkpt>
      <trkpt lat="44.51869" lon="6.84095">
        <ele>2555</ele>
        <time>2020-02-19T12:04:49.000Z</time>
      </trkpt>
      <trkpt lat="44.51862" lon="6.84088">
        <ele>2555</ele>
        <time>2020-02-19T12:04:51.000Z</time>
      </trkpt>
      <trkpt lat="44.51854" lon="6.84082">
        <ele>2666.3999023438</ele>
        <time>2020-02-19T12:04:57.000Z</time>
      </trkpt>
      <trkpt lat="44.51851" lon="6.84083">
        <ele>2665.1999511719</ele>
        <time>2020-02-19T12:05:11.000Z</time>
      </trkpt>
      <trkpt lat="44.51845" lon="6.84072">
        <ele>2664.6000976562</ele>
        <time>2020-02-19T12:05:33.000Z</time>
      </trkpt>
      <trkpt lat="44.51852" lon="6.84068">
        <ele>2663.3999023438</ele>
        <time>2020-02-19T12:05:45.000Z</time>
      </trkpt>
      <trkpt lat="44.51863" lon="6.8407">
        <ele>2663.6000976562</ele>
        <time>2020-02-19T12:05:57.000Z</time>
      </trkpt>
      <trkpt lat="44.51869" lon="6.84064">
        <ele>2663.6000976562</ele>
        <time>2020-02-19T12:06:13.000Z</time>
      </trkpt>
      <trkpt lat="44.51853" lon="6.84061">
        <ele>2663.6000976562</ele>
        <time>2020-02-19T12:06:21.000Z</time>
      </trkpt>
      <trkpt lat="44.51848" lon="6.84062">
        <ele>2663</ele>
        <time>2020-02-19T12:06:47.000Z</time>
      </trkpt>
      <trkpt lat="44.51839" lon="6.84066">
        <ele>2662.6000976562</ele>
        <time>2020-02-19T12:06:57.000Z</time>
      </trkpt>
      <trkpt lat="44.51836" lon="6.84063">
        <ele>2661.6000976562</ele>
        <time>2020-02-19T12:07:00.000Z</time>
      </trkpt>
      <trkpt lat="44.51828" lon="6.84056">
        <ele>2534</ele>
        <time>2020-02-19T12:07:06.000Z</time>
      </trkpt>
      <trkpt lat="44.51822" lon="6.8406">
        <ele>2534</ele>
        <time>2020-02-19T12:07:09.000Z</time>
      </trkpt>
      <trkpt lat="44.51817" lon="6.84057">
        <ele>2534</ele>
        <time>2020-02-19T12:07:11.000Z</time>
      </trkpt>
      <trkpt lat="44.51815" lon="6.84055">
        <ele>2534</ele>
        <time>2020-02-19T12:07:13.000Z</time>
      </trkpt>
      <trkpt lat="44.51807" lon="6.84052">
        <ele>2534</ele>
        <time>2020-02-19T12:07:20.000Z</time>
      </trkpt>
      <trkpt lat="44.51805" lon="6.84058">
        <ele>2533</ele>
        <time>2020-02-19T12:07:23.000Z</time>
      </trkpt>
      <trkpt lat="44.51798" lon="6.84053">
        <ele>2534</ele>
        <time>2020-02-19T12:07:25.000Z</time>
      </trkpt>
      <trkpt lat="44.51792" lon="6.84048">
        <ele>2534</ele>
        <time>2020-02-19T12:07:27.000Z</time>
      </trkpt>
      <trkpt lat="44.5178" lon="6.8405">
        <ele>2533</ele>
        <time>2020-02-19T12:07:32.000Z</time>
      </trkpt>
      <trkpt lat="44.51773" lon="6.84046">
        <ele>2534</ele>
        <time>2020-02-19T12:07:34.000Z</time>
      </trkpt>
      <trkpt lat="44.51765" lon="6.84038">
        <ele>2535</ele>
        <time>2020-02-19T12:07:36.000Z</time>
      </trkpt>
      <trkpt lat="44.51756" lon="6.84031">
        <ele>2537</ele>
        <time>2020-02-19T12:07:40.000Z</time>
      </trkpt>
      <trkpt lat="44.51755" lon="6.84032">
        <ele>2536</ele>
        <time>2020-02-19T12:07:43.000Z</time>
      </trkpt>
      <trkpt lat="44.51754" lon="6.8404">
        <ele>2535</ele>
        <time>2020-02-19T12:07:49.000Z</time>
      </trkpt>
      <trkpt lat="44.51757" lon="6.84041">
        <ele>2535</ele>
        <time>2020-02-19T12:07:54.000Z</time>
      </trkpt>
      <trkpt lat="44.51759" lon="6.84042">
        <ele>2534</ele>
        <time>2020-02-19T12:08:30.000Z</time>
      </trkpt>
      <trkpt lat="44.5176" lon="6.84044">
        <ele>2534</ele>
        <time>2020-02-19T12:08:40.000Z</time>
      </trkpt>
      <trkpt lat="44.51759" lon="6.84043">
        <ele>2534</ele>
        <time>2020-02-19T12:08:46.000Z</time>
      </trkpt>
      <trkpt lat="44.51755" lon="6.84047">
        <ele>2533</ele>
        <time>2020-02-19T12:08:52.000Z</time>
      </trkpt>
      <trkpt lat="44.51753" lon="6.84046">
        <ele>2534</ele>
        <time>2020-02-19T12:08:54.000Z</time>
      </trkpt>
      <trkpt lat="44.51741" lon="6.84028">
        <ele>2531</ele>
        <time>2020-02-19T12:09:01.000Z</time>
      </trkpt>
      <trkpt lat="44.51722" lon="6.84002">
        <ele>2531</ele>
        <time>2020-02-19T12:09:05.000Z</time>
      </trkpt>
      <trkpt lat="44.51688" lon="6.83971">
        <ele>2530</ele>
        <time>2020-02-19T12:09:11.000Z</time>
      </trkpt>
      <trkpt lat="44.51678" lon="6.83963">
        <ele>2531</ele>
        <time>2020-02-19T12:09:13.000Z</time>
      </trkpt>
      <trkpt lat="44.51657" lon="6.83954">
        <ele>2523</ele>
        <time>2020-02-19T12:09:17.000Z</time>
      </trkpt>
      <trkpt lat="44.51629" lon="6.83953">
        <ele>2520</ele>
        <time>2020-02-19T12:09:22.000Z</time>
      </trkpt>
      <trkpt lat="44.51599" lon="6.8397">
        <ele>2516</ele>
        <time>2020-02-19T12:09:33.000Z</time>
      </trkpt>
      <trkpt lat="44.51595" lon="6.83958">
        <ele>2517</ele>
        <time>2020-02-19T12:09:37.000Z</time>
      </trkpt>
      <trkpt lat="44.51584" lon="6.83951">
        <ele>2516</ele>
        <time>2020-02-19T12:09:41.000Z</time>
      </trkpt>
      <trkpt lat="44.51568" lon="6.83935">
        <ele>2507</ele>
        <time>2020-02-19T12:09:46.000Z</time>
      </trkpt>
      <trkpt lat="44.51561" lon="6.83937">
        <ele>2506</ele>
        <time>2020-02-19T12:09:48.000Z</time>
      </trkpt>
      <trkpt lat="44.51528" lon="6.83931">
        <ele>2502</ele>
        <time>2020-02-19T12:09:58.000Z</time>
      </trkpt>
      <trkpt lat="44.51515" lon="6.83926">
        <ele>2501</ele>
        <time>2020-02-19T12:10:04.000Z</time>
      </trkpt>
      <trkpt lat="44.51512" lon="6.83926">
        <ele>2500</ele>
        <time>2020-02-19T12:10:08.000Z</time>
      </trkpt>
      <trkpt lat="44.51508" lon="6.83928">
        <ele>2500</ele>
        <time>2020-02-19T12:10:25.000Z</time>
      </trkpt>
      <trkpt lat="44.51508" lon="6.83925">
        <ele>2499</ele>
        <time>2020-02-19T12:10:42.000Z</time>
      </trkpt>
      <trkpt lat="44.51509" lon="6.83923">
        <ele>2500</ele>
        <time>2020-02-19T12:11:05.000Z</time>
      </trkpt>
      <trkpt lat="44.51488" lon="6.83906">
        <ele>2493</ele>
        <time>2020-02-19T12:11:24.000Z</time>
      </trkpt>
      <trkpt lat="44.51481" lon="6.83896">
        <ele>2492</ele>
        <time>2020-02-19T12:11:30.000Z</time>
      </trkpt>
      <trkpt lat="44.51479" lon="6.83895">
        <ele>2491</ele>
        <time>2020-02-19T12:11:41.000Z</time>
      </trkpt>
      <trkpt lat="44.51486" lon="6.83892">
        <ele>2492</ele>
        <time>2020-02-19T12:12:27.000Z</time>
      </trkpt>
      <trkpt lat="44.51475" lon="6.83886">
        <ele>2491</ele>
        <time>2020-02-19T12:12:33.000Z</time>
      </trkpt>
      <trkpt lat="44.51459" lon="6.83891">
        <ele>2488</ele>
        <time>2020-02-19T12:12:38.000Z</time>
      </trkpt>
      <trkpt lat="44.51448" lon="6.8389">
        <ele>2486</ele>
        <time>2020-02-19T12:12:41.000Z</time>
      </trkpt>
      <trkpt lat="44.51436" lon="6.83897">
        <ele>2482</ele>
        <time>2020-02-19T12:12:44.000Z</time>
      </trkpt>
      <trkpt lat="44.51426" lon="6.839">
        <ele>2479</ele>
        <time>2020-02-19T12:12:46.000Z</time>
      </trkpt>
      <trkpt lat="44.51419" lon="6.83909">
        <ele>2474</ele>
        <time>2020-02-19T12:12:48.000Z</time>
      </trkpt>
      <trkpt lat="44.5141" lon="6.83922">
        <ele>2467</ele>
        <time>2020-02-19T12:12:51.000Z</time>
      </trkpt>
      <trkpt lat="44.51404" lon="6.8392">
        <ele>2466</ele>
        <time>2020-02-19T12:12:53.000Z</time>
      </trkpt>
      <trkpt lat="44.51395" lon="6.83924">
        <ele>2464</ele>
        <time>2020-02-19T12:12:55.000Z</time>
      </trkpt>
      <trkpt lat="44.51386" lon="6.83929">
        <ele>2462</ele>
        <time>2020-02-19T12:12:57.000Z</time>
      </trkpt>
      <trkpt lat="44.51376" lon="6.83935">
        <ele>2460</ele>
        <time>2020-02-19T12:13:00.000Z</time>
      </trkpt>
      <trkpt lat="44.51376" lon="6.83935">
        <ele>2460</ele>
        <time>2020-02-19T12:13:02.000Z</time>
      </trkpt>
      <trkpt lat="44.51365" lon="6.83931">
        <ele>2458</ele>
        <time>2020-02-19T12:13:11.000Z</time>
      </trkpt>
      <trkpt lat="44.51357" lon="6.83938">
        <ele>2457</ele>
        <time>2020-02-19T12:13:15.000Z</time>
      </trkpt>
      <trkpt lat="44.51346" lon="6.83958">
        <ele>2458</ele>
        <time>2020-02-19T12:13:21.000Z</time>
      </trkpt>
      <trkpt lat="44.51344" lon="6.83958">
        <ele>2458</ele>
        <time>2020-02-19T12:13:35.000Z</time>
      </trkpt>
      <trkpt lat="44.51346" lon="6.83954">
        <ele>2457</ele>
        <time>2020-02-19T12:14:19.000Z</time>
      </trkpt>
      <trkpt lat="44.51347" lon="6.83953">
        <ele>2457</ele>
        <time>2020-02-19T12:14:32.000Z</time>
      </trkpt>
      <trkpt lat="44.51347" lon="6.83955">
        <ele>2457</ele>
        <time>2020-02-19T12:14:38.000Z</time>
      </trkpt>
      <trkpt lat="44.51348" lon="6.83953">
        <ele>2457</ele>
        <time>2020-02-19T12:14:42.000Z</time>
      </trkpt>
      <trkpt lat="44.51349" lon="6.83954">
        <ele>2458</ele>
        <time>2020-02-19T12:15:06.000Z</time>
      </trkpt>
      <trkpt lat="44.51348" lon="6.83954">
        <ele>2457</ele>
        <time>2020-02-19T12:15:38.000Z</time>
      </trkpt>
      <trkpt lat="44.51348" lon="6.83954">
        <ele>2457</ele>
        <time>2020-02-19T12:15:44.000Z</time>
      </trkpt>
      <trkpt lat="44.51347" lon="6.83953">
        <ele>2457</ele>
        <time>2020-02-19T12:16:07.000Z</time>
      </trkpt>
      <trkpt lat="44.51346" lon="6.83953">
        <ele>2457</ele>
        <time>2020-02-19T12:16:28.000Z</time>
      </trkpt>
      <trkpt lat="44.51348" lon="6.83954">
        <ele>2457</ele>
        <time>2020-02-19T12:16:51.000Z</time>
      </trkpt>
      <trkpt lat="44.51348" lon="6.83953">
        <ele>2457</ele>
        <time>2020-02-19T12:16:54.000Z</time>
      </trkpt>
      <trkpt lat="44.51347" lon="6.83954">
        <ele>2457</ele>
        <time>2020-02-19T12:17:08.000Z</time>
      </trkpt>
      <trkpt lat="44.51348" lon="6.83953">
        <ele>2457</ele>
        <time>2020-02-19T12:17:26.000Z</time>
      </trkpt>
      <trkpt lat="44.51348" lon="6.83954">
        <ele>2457</ele>
        <time>2020-02-19T12:17:30.000Z</time>
      </trkpt>
      <trkpt lat="44.51349" lon="6.83954">
        <ele>2458</ele>
        <time>2020-02-19T12:17:40.000Z</time>
      </trkpt>
      <trkpt lat="44.51349" lon="6.83954">
        <ele>2458</ele>
        <time>2020-02-19T12:17:52.000Z</time>
      </trkpt>
      <trkpt lat="44.51352" lon="6.83953">
        <ele>2458</ele>
        <time>2020-02-19T12:17:57.000Z</time>
      </trkpt>
      <trkpt lat="44.51349" lon="6.83955">
        <ele>2458</ele>
        <time>2020-02-19T12:18:31.000Z</time>
      </trkpt>
      <trkpt lat="44.5135" lon="6.83954">
        <ele>2458</ele>
        <time>2020-02-19T12:18:36.000Z</time>
      </trkpt>
      <trkpt lat="44.51348" lon="6.83954">
        <ele>2457</ele>
        <time>2020-02-19T12:18:54.000Z</time>
      </trkpt>
      <trkpt lat="44.51348" lon="6.83953">
        <ele>2457</ele>
        <time>2020-02-19T12:19:02.000Z</time>
      </trkpt>
      <trkpt lat="44.51348" lon="6.83954">
        <ele>2458</ele>
        <time>2020-02-19T12:19:12.000Z</time>
      </trkpt>
      <trkpt lat="44.51346" lon="6.83952">
        <ele>2457</ele>
        <time>2020-02-19T12:19:20.000Z</time>
      </trkpt>
      <trkpt lat="44.51347" lon="6.83956">
        <ele>2458</ele>
        <time>2020-02-19T12:19:25.000Z</time>
      </trkpt>
      <trkpt lat="44.51347" lon="6.83957">
        <ele>2458</ele>
        <time>2020-02-19T12:19:31.000Z</time>
      </trkpt>
      <trkpt lat="44.51346" lon="6.83957">
        <ele>2458</ele>
        <time>2020-02-19T12:19:38.000Z</time>
      </trkpt>
      <trkpt lat="44.51346" lon="6.83958">
        <ele>2458</ele>
        <time>2020-02-19T12:19:44.000Z</time>
      </trkpt>
      <trkpt lat="44.51344" lon="6.83958">
        <ele>2457</ele>
        <time>2020-02-19T12:19:54.000Z</time>
      </trkpt>
      <trkpt lat="44.51345" lon="6.83957">
        <ele>2458</ele>
        <time>2020-02-19T12:19:58.000Z</time>
      </trkpt>
      <trkpt lat="44.51345" lon="6.83957">
        <ele>2457</ele>
        <time>2020-02-19T12:20:16.000Z</time>
      </trkpt>
      <trkpt lat="44.51345" lon="6.83958">
        <ele>2458</ele>
        <time>2020-02-19T12:20:23.000Z</time>
      </trkpt>
      <trkpt lat="44.51346" lon="6.83958">
        <ele>2458</ele>
        <time>2020-02-19T12:20:25.000Z</time>
      </trkpt>
      <trkpt lat="44.51346" lon="6.83958">
        <ele>2458</ele>
        <time>2020-02-19T12:20:28.000Z</time>
      </trkpt>
      <trkpt lat="44.51346" lon="6.83958">
        <ele>2458</ele>
        <time>2020-02-19T12:20:30.000Z</time>
      </trkpt>
      <trkpt lat="44.51347" lon="6.83957">
        <ele>2458</ele>
        <time>2020-02-19T12:20:35.000Z</time>
      </trkpt>
      <trkpt lat="44.51348" lon="6.83955">
        <ele>2458</ele>
        <time>2020-02-19T12:20:45.000Z</time>
      </trkpt>
      <trkpt lat="44.51348" lon="6.83957">
        <ele>2458</ele>
        <time>2020-02-19T12:20:58.000Z</time>
      </trkpt>
      <trkpt lat="44.51348" lon="6.83954">
        <ele>2458</ele>
        <time>2020-02-19T12:21:08.000Z</time>
      </trkpt>
      <trkpt lat="44.51349" lon="6.83952">
        <ele>2457</ele>
        <time>2020-02-19T12:21:28.000Z</time>
      </trkpt>
      <trkpt lat="44.51349" lon="6.83951">
        <ele>2457</ele>
        <time>2020-02-19T12:21:37.000Z</time>
      </trkpt>
      <trkpt lat="44.5135" lon="6.83952">
        <ele>2458</ele>
        <time>2020-02-19T12:21:51.000Z</time>
      </trkpt>
      <trkpt lat="44.51349" lon="6.83951">
        <ele>2457</ele>
        <time>2020-02-19T12:22:03.000Z</time>
      </trkpt>
      <trkpt lat="44.51348" lon="6.83951">
        <ele>2457</ele>
        <time>2020-02-19T12:22:09.000Z</time>
      </trkpt>
      <trkpt lat="44.51348" lon="6.83953">
        <ele>2457</ele>
        <time>2020-02-19T12:22:19.000Z</time>
      </trkpt>
      <trkpt lat="44.51349" lon="6.83955">
        <ele>2458</ele>
        <time>2020-02-19T12:22:28.000Z</time>
      </trkpt>
      <trkpt lat="44.51351" lon="6.83954">
        <ele>2458</ele>
        <time>2020-02-19T12:22:38.000Z</time>
      </trkpt>
      <trkpt lat="44.51352" lon="6.83955">
        <ele>2458</ele>
        <time>2020-02-19T12:22:43.000Z</time>
      </trkpt>
      <trkpt lat="44.51352" lon="6.83955">
        <ele>2458</ele>
        <time>2020-02-19T12:22:51.000Z</time>
      </trkpt>
      <trkpt lat="44.51352" lon="6.83953">
        <ele>2458</ele>
        <time>2020-02-19T12:23:00.000Z</time>
      </trkpt>
      <trkpt lat="44.51351" lon="6.83953">
        <ele>2458</ele>
        <time>2020-02-19T12:23:06.000Z</time>
      </trkpt>
      <trkpt lat="44.51351" lon="6.83953">
        <ele>2458</ele>
        <time>2020-02-19T12:23:10.000Z</time>
      </trkpt>
      <trkpt lat="44.51351" lon="6.83953">
        <ele>2458</ele>
        <time>2020-02-19T12:23:13.000Z</time>
      </trkpt>
      <trkpt lat="44.51351" lon="6.83953">
        <ele>2458</ele>
        <time>2020-02-19T12:23:22.000Z</time>
      </trkpt>
      <trkpt lat="44.51351" lon="6.83953">
        <ele>2458</ele>
        <time>2020-02-19T12:23:29.000Z</time>
      </trkpt>
      <trkpt lat="44.51351" lon="6.83953">
        <ele>2458</ele>
        <time>2020-02-19T12:23:31.000Z</time>
      </trkpt>
      <trkpt lat="44.5135" lon="6.83954">
        <ele>2458</ele>
        <time>2020-02-19T12:24:01.000Z</time>
      </trkpt>
      <trkpt lat="44.5135" lon="6.83954">
        <ele>2458</ele>
        <time>2020-02-19T12:24:07.000Z</time>
      </trkpt>
      <trkpt lat="44.51349" lon="6.83954">
        <ele>2458</ele>
        <time>2020-02-19T12:24:18.000Z</time>
      </trkpt>
      <trkpt lat="44.51349" lon="6.83954">
        <ele>2458</ele>
        <time>2020-02-19T12:24:23.000Z</time>
      </trkpt>
      <trkpt lat="44.51349" lon="6.83953">
        <ele>2458</ele>
        <time>2020-02-19T12:24:31.000Z</time>
      </trkpt>
      <trkpt lat="44.51345" lon="6.83952">
        <ele>2457</ele>
        <time>2020-02-19T12:24:41.000Z</time>
      </trkpt>
      <trkpt lat="44.51343" lon="6.83957">
        <ele>2457</ele>
        <time>2020-02-19T12:24:46.000Z</time>
      </trkpt>
      <trkpt lat="44.51343" lon="6.83958">
        <ele>2457</ele>
        <time>2020-02-19T12:24:53.000Z</time>
      </trkpt>
      <trkpt lat="44.51344" lon="6.83958">
        <ele>2457</ele>
        <time>2020-02-19T12:25:04.000Z</time>
      </trkpt>
      <trkpt lat="44.51348" lon="6.83953">
        <ele>2457</ele>
        <time>2020-02-19T12:25:16.000Z</time>
      </trkpt>
      <trkpt lat="44.51347" lon="6.83953">
        <ele>2457</ele>
        <time>2020-02-19T12:25:19.000Z</time>
      </trkpt>
      <trkpt lat="44.51349" lon="6.83949">
        <ele>2457</ele>
        <time>2020-02-19T12:25:36.000Z</time>
      </trkpt>
      <trkpt lat="44.5135" lon="6.8395">
        <ele>2457</ele>
        <time>2020-02-19T12:25:43.000Z</time>
      </trkpt>
      <trkpt lat="44.51351" lon="6.83951">
        <ele>2458</ele>
        <time>2020-02-19T12:26:01.000Z</time>
      </trkpt>
      <trkpt lat="44.51351" lon="6.83952">
        <ele>2458</ele>
        <time>2020-02-19T12:26:18.000Z</time>
      </trkpt>
      <trkpt lat="44.51348" lon="6.83951">
        <ele>2457</ele>
        <time>2020-02-19T12:26:32.000Z</time>
      </trkpt>
      <trkpt lat="44.51348" lon="6.83952">
        <ele>2457</ele>
        <time>2020-02-19T12:26:38.000Z</time>
      </trkpt>
      <trkpt lat="44.51348" lon="6.83951">
        <ele>2457</ele>
        <time>2020-02-19T12:26:42.000Z</time>
      </trkpt>
      <trkpt lat="44.51348" lon="6.83952">
        <ele>2457</ele>
        <time>2020-02-19T12:26:48.000Z</time>
      </trkpt>
      <trkpt lat="44.5135" lon="6.83953">
        <ele>2458</ele>
        <time>2020-02-19T12:26:53.000Z</time>
      </trkpt>
      <trkpt lat="44.5135" lon="6.83954">
        <ele>2458</ele>
        <time>2020-02-19T12:26:59.000Z</time>
      </trkpt>
      <trkpt lat="44.51351" lon="6.83954">
        <ele>2458</ele>
        <time>2020-02-19T12:27:04.000Z</time>
      </trkpt>
      <trkpt lat="44.51351" lon="6.83956">
        <ele>2458</ele>
        <time>2020-02-19T12:27:16.000Z</time>
      </trkpt>
      <trkpt lat="44.51351" lon="6.83956">
        <ele>2458</ele>
        <time>2020-02-19T12:27:21.000Z</time>
      </trkpt>
      <trkpt lat="44.5135" lon="6.83955">
        <ele>2458</ele>
        <time>2020-02-19T12:27:28.000Z</time>
      </trkpt>
      <trkpt lat="44.51349" lon="6.83956">
        <ele>2458</ele>
        <time>2020-02-19T12:27:44.000Z</time>
      </trkpt>
      <trkpt lat="44.51348" lon="6.83955">
        <ele>2458</ele>
        <time>2020-02-19T12:27:50.000Z</time>
      </trkpt>
      <trkpt lat="44.51349" lon="6.83954">
        <ele>2458</ele>
        <time>2020-02-19T12:27:59.000Z</time>
      </trkpt>
      <trkpt lat="44.51349" lon="6.83954">
        <ele>2458</ele>
        <time>2020-02-19T12:28:02.000Z</time>
      </trkpt>
      <trkpt lat="44.51348" lon="6.83951">
        <ele>2457</ele>
        <time>2020-02-19T12:28:08.000Z</time>
      </trkpt>
      <trkpt lat="44.51347" lon="6.83951">
        <ele>2457</ele>
        <time>2020-02-19T12:28:13.000Z</time>
      </trkpt>
      <trkpt lat="44.51347" lon="6.83951">
        <ele>2457</ele>
        <time>2020-02-19T12:28:17.000Z</time>
      </trkpt>
      <trkpt lat="44.51347" lon="6.83947">
        <ele>2456</ele>
        <time>2020-02-19T12:28:33.000Z</time>
      </trkpt>
      <trkpt lat="44.51347" lon="6.83948">
        <ele>2457</ele>
        <time>2020-02-19T12:28:42.000Z</time>
      </trkpt>
      <trkpt lat="44.51347" lon="6.83949">
        <ele>2457</ele>
        <time>2020-02-19T12:28:49.000Z</time>
      </trkpt>
      <trkpt lat="44.51347" lon="6.8395">
        <ele>2457</ele>
        <time>2020-02-19T12:28:57.000Z</time>
      </trkpt>
      <trkpt lat="44.51347" lon="6.8395">
        <ele>2457</ele>
        <time>2020-02-19T12:29:00.000Z</time>
      </trkpt>
      <trkpt lat="44.51349" lon="6.83952">
        <ele>2457</ele>
        <time>2020-02-19T12:29:16.000Z</time>
      </trkpt>
      <trkpt lat="44.51348" lon="6.83952">
        <ele>2457</ele>
        <time>2020-02-19T12:29:25.000Z</time>
      </trkpt>
      <trkpt lat="44.51348" lon="6.83952">
        <ele>2457</ele>
        <time>2020-02-19T12:29:29.000Z</time>
      </trkpt>
      <trkpt lat="44.51348" lon="6.83952">
        <ele>2457</ele>
        <time>2020-02-19T12:29:34.000Z</time>
      </trkpt>
      <trkpt lat="44.51348" lon="6.83951">
        <ele>2457</ele>
        <time>2020-02-19T12:29:43.000Z</time>
      </trkpt>
      <trkpt lat="44.51347" lon="6.83953">
        <ele>2457</ele>
        <time>2020-02-19T12:30:03.000Z</time>
      </trkpt>
      <trkpt lat="44.51349" lon="6.83952">
        <ele>2457</ele>
        <time>2020-02-19T12:30:20.000Z</time>
      </trkpt>
      <trkpt lat="44.51346" lon="6.83949">
        <ele>2457</ele>
        <time>2020-02-19T12:30:50.000Z</time>
      </trkpt>
      <trkpt lat="44.51346" lon="6.83945">
        <ele>2456</ele>
        <time>2020-02-19T12:30:58.000Z</time>
      </trkpt>
      <trkpt lat="44.51346" lon="6.83947">
        <ele>2456</ele>
        <time>2020-02-19T12:31:04.000Z</time>
      </trkpt>
      <trkpt lat="44.51345" lon="6.83949">
        <ele>2456</ele>
        <time>2020-02-19T12:31:10.000Z</time>
      </trkpt>
      <trkpt lat="44.51345" lon="6.8395">
        <ele>2457</ele>
        <time>2020-02-19T12:31:20.000Z</time>
      </trkpt>
      <trkpt lat="44.51345" lon="6.83952">
        <ele>2457</ele>
        <time>2020-02-19T12:31:24.000Z</time>
      </trkpt>
      <trkpt lat="44.51346" lon="6.83952">
        <ele>2457</ele>
        <time>2020-02-19T12:31:27.000Z</time>
      </trkpt>
      <trkpt lat="44.51346" lon="6.83954">
        <ele>2457</ele>
        <time>2020-02-19T12:31:55.000Z</time>
      </trkpt>
      <trkpt lat="44.51346" lon="6.83957">
        <ele>2458</ele>
        <time>2020-02-19T12:32:06.000Z</time>
      </trkpt>
      <trkpt lat="44.51344" lon="6.83957">
        <ele>2457</ele>
        <time>2020-02-19T12:32:29.000Z</time>
      </trkpt>
      <trkpt lat="44.51344" lon="6.83953">
        <ele>2457</ele>
        <time>2020-02-19T12:32:47.000Z</time>
      </trkpt>
      <trkpt lat="44.51344" lon="6.83953">
        <ele>2457</ele>
        <time>2020-02-19T12:32:52.000Z</time>
      </trkpt>
      <trkpt lat="44.51344" lon="6.83953">
        <ele>2457</ele>
        <time>2020-02-19T12:32:58.000Z</time>
      </trkpt>
      <trkpt lat="44.51344" lon="6.83954">
        <ele>2457</ele>
        <time>2020-02-19T12:33:02.000Z</time>
      </trkpt>
      <trkpt lat="44.51345" lon="6.83955">
        <ele>2457</ele>
        <time>2020-02-19T12:33:07.000Z</time>
      </trkpt>
      <trkpt lat="44.51346" lon="6.83955">
        <ele>2457</ele>
        <time>2020-02-19T12:33:10.000Z</time>
      </trkpt>
      <trkpt lat="44.51348" lon="6.83956">
        <ele>2458</ele>
        <time>2020-02-19T12:33:20.000Z</time>
      </trkpt>
      <trkpt lat="44.51349" lon="6.83957">
        <ele>2458</ele>
        <time>2020-02-19T12:33:24.000Z</time>
      </trkpt>
      <trkpt lat="44.51348" lon="6.83956">
        <ele>2458</ele>
        <time>2020-02-19T12:33:34.000Z</time>
      </trkpt>
      <trkpt lat="44.51348" lon="6.83955">
        <ele>2458</ele>
        <time>2020-02-19T12:33:38.000Z</time>
      </trkpt>
      <trkpt lat="44.51349" lon="6.83954">
        <ele>2458</ele>
        <time>2020-02-19T12:33:42.000Z</time>
      </trkpt>
      <trkpt lat="44.51349" lon="6.83955">
        <ele>2458</ele>
        <time>2020-02-19T12:33:52.000Z</time>
      </trkpt>
      <trkpt lat="44.51346" lon="6.83954">
        <ele>2457</ele>
        <time>2020-02-19T12:34:08.000Z</time>
      </trkpt>
      <trkpt lat="44.51345" lon="6.83954">
        <ele>2457</ele>
        <time>2020-02-19T12:34:15.000Z</time>
      </trkpt>
      <trkpt lat="44.51345" lon="6.83954">
        <ele>2457</ele>
        <time>2020-02-19T12:34:17.000Z</time>
      </trkpt>
      <trkpt lat="44.51345" lon="6.83953">
        <ele>2457</ele>
        <time>2020-02-19T12:34:30.000Z</time>
      </trkpt>
      <trkpt lat="44.51346" lon="6.83953">
        <ele>2457</ele>
        <time>2020-02-19T12:34:40.000Z</time>
      </trkpt>
      <trkpt lat="44.51345" lon="6.83954">
        <ele>2457</ele>
        <time>2020-02-19T12:34:48.000Z</time>
      </trkpt>
      <trkpt lat="44.51347" lon="6.83954">
        <ele>2457</ele>
        <time>2020-02-19T12:35:05.000Z</time>
      </trkpt>
      <trkpt lat="44.51348" lon="6.83953">
        <ele>2457</ele>
        <time>2020-02-19T12:35:44.000Z</time>
      </trkpt>
      <trkpt lat="44.51348" lon="6.83954">
        <ele>2458</ele>
        <time>2020-02-19T12:35:48.000Z</time>
      </trkpt>
      <trkpt lat="44.5135" lon="6.83958">
        <ele>2458</ele>
        <time>2020-02-19T12:35:57.000Z</time>
      </trkpt>
      <trkpt lat="44.51349" lon="6.83956">
        <ele>2458</ele>
        <time>2020-02-19T12:36:27.000Z</time>
      </trkpt>
      <trkpt lat="44.5135" lon="6.83955">
        <ele>2458</ele>
        <time>2020-02-19T12:36:33.000Z</time>
      </trkpt>
      <trkpt lat="44.51349" lon="6.83953">
        <ele>2457</ele>
        <time>2020-02-19T12:36:39.000Z</time>
      </trkpt>
      <trkpt lat="44.5135" lon="6.83954">
        <ele>2458</ele>
        <time>2020-02-19T12:37:02.000Z</time>
      </trkpt>
      <trkpt lat="44.51349" lon="6.83954">
        <ele>2458</ele>
        <time>2020-02-19T12:37:16.000Z</time>
      </trkpt>
      <trkpt lat="44.51349" lon="6.83954">
        <ele>2458</ele>
        <time>2020-02-19T12:37:19.000Z</time>
      </trkpt>
      <trkpt lat="44.51349" lon="6.83954">
        <ele>2458</ele>
        <time>2020-02-19T12:37:26.000Z</time>
      </trkpt>
      <trkpt lat="44.51349" lon="6.83954">
        <ele>2458</ele>
        <time>2020-02-19T12:37:40.000Z</time>
      </trkpt>
      <trkpt lat="44.51349" lon="6.83954">
        <ele>2458</ele>
        <time>2020-02-19T12:37:44.000Z</time>
      </trkpt>
      <trkpt lat="44.51349" lon="6.83954">
        <ele>2458</ele>
        <time>2020-02-19T12:37:54.000Z</time>
      </trkpt>
      <trkpt lat="44.51349" lon="6.83954">
        <ele>2458</ele>
        <time>2020-02-19T12:37:57.000Z</time>
      </trkpt>
      <trkpt lat="44.51349" lon="6.83952">
        <ele>2457</ele>
        <time>2020-02-19T12:38:05.000Z</time>
      </trkpt>
      <trkpt lat="44.51349" lon="6.83951">
        <ele>2457</ele>
        <time>2020-02-19T12:38:10.000Z</time>
      </trkpt>
      <trkpt lat="44.51349" lon="6.83951">
        <ele>2457</ele>
        <time>2020-02-19T12:38:15.000Z</time>
      </trkpt>
      <trkpt lat="44.51349" lon="6.83951">
        <ele>2457</ele>
        <time>2020-02-19T12:38:17.000Z</time>
      </trkpt>
      <trkpt lat="44.51349" lon="6.83951">
        <ele>2457</ele>
        <time>2020-02-19T12:38:21.000Z</time>
      </trkpt>
      <trkpt lat="44.51349" lon="6.83953">
        <ele>2457</ele>
        <time>2020-02-19T12:38:25.000Z</time>
      </trkpt>
      <trkpt lat="44.5135" lon="6.83953">
        <ele>2458</ele>
        <time>2020-02-19T12:38:28.000Z</time>
      </trkpt>
      <trkpt lat="44.51351" lon="6.83955">
        <ele>2458</ele>
        <time>2020-02-19T12:38:37.000Z</time>
      </trkpt>
      <trkpt lat="44.5135" lon="6.83954">
        <ele>2458</ele>
        <time>2020-02-19T12:38:44.000Z</time>
      </trkpt>
      <trkpt lat="44.5135" lon="6.83955">
        <ele>2458</ele>
        <time>2020-02-19T12:38:48.000Z</time>
      </trkpt>
      <trkpt lat="44.5135" lon="6.83954">
        <ele>2458</ele>
        <time>2020-02-19T12:38:51.000Z</time>
      </trkpt>
      <trkpt lat="44.51351" lon="6.83954">
        <ele>2458</ele>
        <time>2020-02-19T12:39:10.000Z</time>
      </trkpt>
      <trkpt lat="44.51351" lon="6.83953">
        <ele>2458</ele>
        <time>2020-02-19T12:39:13.000Z</time>
      </trkpt>
      <trkpt lat="44.51351" lon="6.83952">
        <ele>2458</ele>
        <time>2020-02-19T12:39:18.000Z</time>
      </trkpt>
      <trkpt lat="44.51351" lon="6.83952">
        <ele>2458</ele>
        <time>2020-02-19T12:39:21.000Z</time>
      </trkpt>
      <trkpt lat="44.5135" lon="6.83952">
        <ele>2458</ele>
        <time>2020-02-19T12:39:34.000Z</time>
      </trkpt>
      <trkpt lat="44.51351" lon="6.83951">
        <ele>2458</ele>
        <time>2020-02-19T12:39:40.000Z</time>
      </trkpt>
      <trkpt lat="44.51352" lon="6.83951">
        <ele>2458</ele>
        <time>2020-02-19T12:39:52.000Z</time>
      </trkpt>
      <trkpt lat="44.51352" lon="6.83951">
        <ele>2458</ele>
        <time>2020-02-19T12:39:57.000Z</time>
      </trkpt>
      <trkpt lat="44.51352" lon="6.83951">
        <ele>2458</ele>
        <time>2020-02-19T12:40:05.000Z</time>
      </trkpt>
      <trkpt lat="44.51351" lon="6.83952">
        <ele>2458</ele>
        <time>2020-02-19T12:40:20.000Z</time>
      </trkpt>
      <trkpt lat="44.51351" lon="6.83952">
        <ele>2458</ele>
        <time>2020-02-19T12:40:25.000Z</time>
      </trkpt>
      <trkpt lat="44.5135" lon="6.83956">
        <ele>2458</ele>
        <time>2020-02-19T12:40:40.000Z</time>
      </trkpt>
      <trkpt lat="44.51354" lon="6.83955">
        <ele>2458</ele>
        <time>2020-02-19T12:40:49.000Z</time>
      </trkpt>
      <trkpt lat="44.51355" lon="6.83955">
        <ele>2458</ele>
        <time>2020-02-19T12:40:56.000Z</time>
      </trkpt>
      <trkpt lat="44.51354" lon="6.83953">
        <ele>2458</ele>
        <time>2020-02-19T12:41:07.000Z</time>
      </trkpt>
      <trkpt lat="44.51354" lon="6.83953">
        <ele>2458</ele>
        <time>2020-02-19T12:41:25.000Z</time>
      </trkpt>
      <trkpt lat="44.51354" lon="6.83953">
        <ele>2458</ele>
        <time>2020-02-19T12:41:31.000Z</time>
      </trkpt>
      <trkpt lat="44.51354" lon="6.83954">
        <ele>2458</ele>
        <time>2020-02-19T12:41:39.000Z</time>
      </trkpt>
      <trkpt lat="44.51354" lon="6.83954">
        <ele>2458</ele>
        <time>2020-02-19T12:41:45.000Z</time>
      </trkpt>
      <trkpt lat="44.51354" lon="6.83954">
        <ele>2458</ele>
        <time>2020-02-19T12:41:51.000Z</time>
      </trkpt>
      <trkpt lat="44.51354" lon="6.83954">
        <ele>2458</ele>
        <time>2020-02-19T12:41:55.000Z</time>
      </trkpt>
      <trkpt lat="44.51354" lon="6.83954">
        <ele>2458</ele>
        <time>2020-02-19T12:41:58.000Z</time>
      </trkpt>
      <trkpt lat="44.51354" lon="6.83954">
        <ele>2458</ele>
        <time>2020-02-19T12:42:04.000Z</time>
      </trkpt>
      <trkpt lat="44.51354" lon="6.83954">
        <ele>2458</ele>
        <time>2020-02-19T12:42:13.000Z</time>
      </trkpt>
      <trkpt lat="44.51354" lon="6.83954">
        <ele>2458</ele>
        <time>2020-02-19T12:42:31.000Z</time>
      </trkpt>
      <trkpt lat="44.51354" lon="6.83954">
        <ele>2458</ele>
        <time>2020-02-19T12:42:37.000Z</time>
      </trkpt>
      <trkpt lat="44.51354" lon="6.83955">
        <ele>2458</ele>
        <time>2020-02-19T12:42:47.000Z</time>
      </trkpt>
      <trkpt lat="44.51354" lon="6.83955">
        <ele>2458</ele>
        <time>2020-02-19T12:42:56.000Z</time>
      </trkpt>
      <trkpt lat="44.51354" lon="6.83955">
        <ele>2458</ele>
        <time>2020-02-19T12:43:13.000Z</time>
      </trkpt>
      <trkpt lat="44.51354" lon="6.83954">
        <ele>2458</ele>
        <time>2020-02-19T12:43:40.000Z</time>
      </trkpt>
      <trkpt lat="44.51354" lon="6.83954">
        <ele>2458</ele>
        <time>2020-02-19T12:43:47.000Z</time>
      </trkpt>
      <trkpt lat="44.51354" lon="6.83954">
        <ele>2458</ele>
        <time>2020-02-19T12:43:52.000Z</time>
      </trkpt>
      <trkpt lat="44.51354" lon="6.83954">
        <ele>2458</ele>
        <time>2020-02-19T12:43:55.000Z</time>
      </trkpt>
      <trkpt lat="44.51354" lon="6.83954">
        <ele>2458</ele>
        <time>2020-02-19T12:44:02.000Z</time>
      </trkpt>
      <trkpt lat="44.51354" lon="6.83954">
        <ele>2458</ele>
        <time>2020-02-19T12:44:04.000Z</time>
      </trkpt>
      <trkpt lat="44.51355" lon="6.83954">
        <ele>2458</ele>
        <time>2020-02-19T12:44:11.000Z</time>
      </trkpt>
      <trkpt lat="44.51353" lon="6.83957">
        <ele>2458</ele>
        <time>2020-02-19T12:44:22.000Z</time>
      </trkpt>
      <trkpt lat="44.51349" lon="6.83959">
        <ele>2458</ele>
        <time>2020-02-19T12:44:29.000Z</time>
      </trkpt>
      <trkpt lat="44.51346" lon="6.83956">
        <ele>2457</ele>
        <time>2020-02-19T12:44:32.000Z</time>
      </trkpt>
      <trkpt lat="44.51346" lon="6.83956">
        <ele>2457</ele>
        <time>2020-02-19T12:44:43.000Z</time>
      </trkpt>
      <trkpt lat="44.51346" lon="6.83954">
        <ele>2457</ele>
        <time>2020-02-19T12:45:10.000Z</time>
      </trkpt>
      <trkpt lat="44.51349" lon="6.83955">
        <ele>2458</ele>
        <time>2020-02-19T12:45:49.000Z</time>
      </trkpt>
      <trkpt lat="44.51348" lon="6.83953">
        <ele>2457</ele>
        <time>2020-02-19T12:46:04.000Z</time>
      </trkpt>
      <trkpt lat="44.51349" lon="6.83954">
        <ele>2458</ele>
        <time>2020-02-19T12:46:12.000Z</time>
      </trkpt>
      <trkpt lat="44.51349" lon="6.83954">
        <ele>2458</ele>
        <time>2020-02-19T12:47:15.000Z</time>
      </trkpt>
      <trkpt lat="44.51348" lon="6.83961">
        <ele>2458</ele>
        <time>2020-02-19T12:47:49.000Z</time>
      </trkpt>
      <trkpt lat="44.51348" lon="6.8396">
        <ele>2458</ele>
        <time>2020-02-19T12:48:22.000Z</time>
      </trkpt>
      <trkpt lat="44.51345" lon="6.83961">
        <ele>2458</ele>
        <time>2020-02-19T12:48:50.000Z</time>
      </trkpt>
      <trkpt lat="44.51345" lon="6.83959">
        <ele>2458</ele>
        <time>2020-02-19T12:48:57.000Z</time>
      </trkpt>
      <trkpt lat="44.51342" lon="6.83958">
        <ele>2457</ele>
        <time>2020-02-19T12:49:00.000Z</time>
      </trkpt>
      <trkpt lat="44.5134" lon="6.83958">
        <ele>2457</ele>
        <time>2020-02-19T12:49:12.000Z</time>
      </trkpt>
      <trkpt lat="44.51341" lon="6.83956">
        <ele>2457</ele>
        <time>2020-02-19T12:49:23.000Z</time>
      </trkpt>
      <trkpt lat="44.5134" lon="6.83958">
        <ele>2457</ele>
        <time>2020-02-19T12:49:32.000Z</time>
      </trkpt>
      <trkpt lat="44.5134" lon="6.83958">
        <ele>2457</ele>
        <time>2020-02-19T12:49:34.000Z</time>
      </trkpt>
      <trkpt lat="44.5134" lon="6.83957">
        <ele>2457</ele>
        <time>2020-02-19T12:49:59.000Z</time>
      </trkpt>
      <trkpt lat="44.5134" lon="6.83957">
        <ele>2457</ele>
        <time>2020-02-19T12:50:04.000Z</time>
      </trkpt>
      <trkpt lat="44.5134" lon="6.83957">
        <ele>2457</ele>
        <time>2020-02-19T12:50:08.000Z</time>
      </trkpt>
      <trkpt lat="44.51341" lon="6.83956">
        <ele>2457</ele>
        <time>2020-02-19T12:50:29.000Z</time>
      </trkpt>
      <trkpt lat="44.51342" lon="6.83955">
        <ele>2457</ele>
        <time>2020-02-19T12:50:47.000Z</time>
      </trkpt>
      <trkpt lat="44.51342" lon="6.83955">
        <ele>2457</ele>
        <time>2020-02-19T12:50:51.000Z</time>
      </trkpt>
      <trkpt lat="44.51342" lon="6.83955">
        <ele>2457</ele>
        <time>2020-02-19T12:50:55.000Z</time>
      </trkpt>
      <trkpt lat="44.5134" lon="6.83954">
        <ele>2457</ele>
        <time>2020-02-19T12:51:01.000Z</time>
      </trkpt>
      <trkpt lat="44.51339" lon="6.83953">
        <ele>2456</ele>
        <time>2020-02-19T12:51:26.000Z</time>
      </trkpt>
      <trkpt lat="44.51339" lon="6.8395">
        <ele>2456</ele>
        <time>2020-02-19T12:51:36.000Z</time>
      </trkpt>
      <trkpt lat="44.51336" lon="6.83949">
        <ele>2456</ele>
        <time>2020-02-19T12:51:38.000Z</time>
      </trkpt>
      <trkpt lat="44.51326" lon="6.83952">
        <ele>2437</ele>
        <time>2020-02-19T12:51:42.000Z</time>
      </trkpt>
      <trkpt lat="44.51321" lon="6.83955">
        <ele>2437</ele>
        <time>2020-02-19T12:51:44.000Z</time>
      </trkpt>
      <trkpt lat="44.51313" lon="6.83952">
        <ele>2435</ele>
        <time>2020-02-19T12:51:47.000Z</time>
      </trkpt>
      <trkpt lat="44.51304" lon="6.83958">
        <ele>2434</ele>
        <time>2020-02-19T12:51:50.000Z</time>
      </trkpt>
      <trkpt lat="44.51299" lon="6.83953">
        <ele>2433</ele>
        <time>2020-02-19T12:51:53.000Z</time>
      </trkpt>
      <trkpt lat="44.51295" lon="6.83952">
        <ele>2432</ele>
        <time>2020-02-19T12:51:55.000Z</time>
      </trkpt>
      <trkpt lat="44.51286" lon="6.83958">
        <ele>2430</ele>
        <time>2020-02-19T12:51:58.000Z</time>
      </trkpt>
      <trkpt lat="44.51282" lon="6.83951">
        <ele>2429</ele>
        <time>2020-02-19T12:52:00.000Z</time>
      </trkpt>
      <trkpt lat="44.51277" lon="6.83938">
        <ele>2427</ele>
        <time>2020-02-19T12:52:03.000Z</time>
      </trkpt>
      <trkpt lat="44.51271" lon="6.83933">
        <ele>2424</ele>
        <time>2020-02-19T12:52:05.000Z</time>
      </trkpt>
      <trkpt lat="44.51265" lon="6.83938">
        <ele>2424</ele>
        <time>2020-02-19T12:52:07.000Z</time>
      </trkpt>
      <trkpt lat="44.51256" lon="6.83934">
        <ele>2421</ele>
        <time>2020-02-19T12:52:10.000Z</time>
      </trkpt>
      <trkpt lat="44.5125" lon="6.83933">
        <ele>2420</ele>
        <time>2020-02-19T12:52:12.000Z</time>
      </trkpt>
      <trkpt lat="44.51243" lon="6.8394">
        <ele>2404</ele>
        <time>2020-02-19T12:52:14.000Z</time>
      </trkpt>
      <trkpt lat="44.51235" lon="6.83934">
        <ele>2403</ele>
        <time>2020-02-19T12:52:16.000Z</time>
      </trkpt>
      <trkpt lat="44.51231" lon="6.83927">
        <ele>2403</ele>
        <time>2020-02-19T12:52:20.000Z</time>
      </trkpt>
      <trkpt lat="44.51229" lon="6.83925">
        <ele>2402</ele>
        <time>2020-02-19T12:52:26.000Z</time>
      </trkpt>
      <trkpt lat="44.51223" lon="6.83936">
        <ele>2400</ele>
        <time>2020-02-19T12:52:29.000Z</time>
      </trkpt>
      <trkpt lat="44.51213" lon="6.83929">
        <ele>2398</ele>
        <time>2020-02-19T12:52:32.000Z</time>
      </trkpt>
      <trkpt lat="44.51206" lon="6.8392">
        <ele>2395</ele>
        <time>2020-02-19T12:52:34.000Z</time>
      </trkpt>
      <trkpt lat="44.51199" lon="6.83923">
        <ele>2393</ele>
        <time>2020-02-19T12:52:36.000Z</time>
      </trkpt>
      <trkpt lat="44.5119" lon="6.8392">
        <ele>2389</ele>
        <time>2020-02-19T12:52:38.000Z</time>
      </trkpt>
      <trkpt lat="44.51183" lon="6.83902">
        <ele>2381</ele>
        <time>2020-02-19T12:52:41.000Z</time>
      </trkpt>
      <trkpt lat="44.51179" lon="6.83891">
        <ele>2381</ele>
        <time>2020-02-19T12:52:43.000Z</time>
      </trkpt>
      <trkpt lat="44.51166" lon="6.83877">
        <ele>2361</ele>
        <time>2020-02-19T12:52:47.000Z</time>
      </trkpt>
      <trkpt lat="44.51156" lon="6.83869">
        <ele>2359</ele>
        <time>2020-02-19T12:52:49.000Z</time>
      </trkpt>
      <trkpt lat="44.5115" lon="6.83852">
        <ele>2359</ele>
        <time>2020-02-19T12:52:52.000Z</time>
      </trkpt>
      <trkpt lat="44.51137" lon="6.83853">
        <ele>2357</ele>
        <time>2020-02-19T12:52:55.000Z</time>
      </trkpt>
      <trkpt lat="44.51131" lon="6.83842">
        <ele>2355</ele>
        <time>2020-02-19T12:52:57.000Z</time>
      </trkpt>
      <trkpt lat="44.51128" lon="6.83828">
        <ele>2349</ele>
        <time>2020-02-19T12:53:02.000Z</time>
      </trkpt>
      <trkpt lat="44.51129" lon="6.83831">
        <ele>2349</ele>
        <time>2020-02-19T12:53:15.000Z</time>
      </trkpt>
      <trkpt lat="44.51129" lon="6.83831">
        <ele>2349</ele>
        <time>2020-02-19T12:53:28.000Z</time>
      </trkpt>
      <trkpt lat="44.51128" lon="6.83832">
        <ele>2349</ele>
        <time>2020-02-19T12:53:31.000Z</time>
      </trkpt>
      <trkpt lat="44.51128" lon="6.83832">
        <ele>2349</ele>
        <time>2020-02-19T12:53:45.000Z</time>
      </trkpt>
      <trkpt lat="44.51127" lon="6.83832">
        <ele>2349</ele>
        <time>2020-02-19T12:53:50.000Z</time>
      </trkpt>
      <trkpt lat="44.51127" lon="6.83832">
        <ele>2349</ele>
        <time>2020-02-19T12:53:54.000Z</time>
      </trkpt>
      <trkpt lat="44.51128" lon="6.83832">
        <ele>2349</ele>
        <time>2020-02-19T12:54:12.000Z</time>
      </trkpt>
      <trkpt lat="44.5113" lon="6.83831">
        <ele>2349</ele>
        <time>2020-02-19T12:54:20.000Z</time>
      </trkpt>
      <trkpt lat="44.5113" lon="6.83831">
        <ele>2349</ele>
        <time>2020-02-19T12:54:22.000Z</time>
      </trkpt>
      <trkpt lat="44.51129" lon="6.83831">
        <ele>2349</ele>
        <time>2020-02-19T12:54:28.000Z</time>
      </trkpt>
      <trkpt lat="44.51129" lon="6.83832">
        <ele>2349</ele>
        <time>2020-02-19T12:54:33.000Z</time>
      </trkpt>
      <trkpt lat="44.51129" lon="6.83832">
        <ele>2349</ele>
        <time>2020-02-19T12:54:37.000Z</time>
      </trkpt>
      <trkpt lat="44.51129" lon="6.83832">
        <ele>2349</ele>
        <time>2020-02-19T12:54:43.000Z</time>
      </trkpt>
      <trkpt lat="44.5113" lon="6.83833">
        <ele>2349</ele>
        <time>2020-02-19T12:54:55.000Z</time>
      </trkpt>
      <trkpt lat="44.51128" lon="6.83831">
        <ele>2349</ele>
        <time>2020-02-19T12:55:12.000Z</time>
      </trkpt>
      <trkpt lat="44.51128" lon="6.8383">
        <ele>2349</ele>
        <time>2020-02-19T12:55:17.000Z</time>
      </trkpt>
      <trkpt lat="44.51128" lon="6.83829">
        <ele>2349</ele>
        <time>2020-02-19T12:55:19.000Z</time>
      </trkpt>
      <trkpt lat="44.51125" lon="6.83823">
        <ele>2348</ele>
        <time>2020-02-19T12:55:23.000Z</time>
      </trkpt>
      <trkpt lat="44.51119" lon="6.83791">
        <ele>2346</ele>
        <time>2020-02-19T12:55:28.000Z</time>
      </trkpt>
      <trkpt lat="44.51113" lon="6.83752">
        <ele>2343</ele>
        <time>2020-02-19T12:55:35.000Z</time>
      </trkpt>
      <trkpt lat="44.51114" lon="6.83728">
        <ele>2339</ele>
        <time>2020-02-19T12:55:39.000Z</time>
      </trkpt>
      <trkpt lat="44.51117" lon="6.83686">
        <ele>2338</ele>
        <time>2020-02-19T12:55:44.000Z</time>
      </trkpt>
      <trkpt lat="44.51119" lon="6.83669">
        <ele>2338</ele>
        <time>2020-02-19T12:55:46.000Z</time>
      </trkpt>
      <trkpt lat="44.51119" lon="6.83654">
        <ele>2330</ele>
        <time>2020-02-19T12:55:48.000Z</time>
      </trkpt>
      <trkpt lat="44.51122" lon="6.83641">
        <ele>2330</ele>
        <time>2020-02-19T12:55:52.000Z</time>
      </trkpt>
      <trkpt lat="44.51123" lon="6.8364">
        <ele>2329</ele>
        <time>2020-02-19T12:56:05.000Z</time>
      </trkpt>
      <trkpt lat="44.51122" lon="6.83638">
        <ele>2329</ele>
        <time>2020-02-19T12:56:19.000Z</time>
      </trkpt>
      <trkpt lat="44.51123" lon="6.8364">
        <ele>2330</ele>
        <time>2020-02-19T12:56:24.000Z</time>
      </trkpt>
      <trkpt lat="44.51124" lon="6.83625">
        <ele>2328</ele>
        <time>2020-02-19T12:56:34.000Z</time>
      </trkpt>
      <trkpt lat="44.51124" lon="6.83616">
        <ele>2327</ele>
        <time>2020-02-19T12:56:39.000Z</time>
      </trkpt>
      <trkpt lat="44.51124" lon="6.83606">
        <ele>2326</ele>
        <time>2020-02-19T12:56:42.000Z</time>
      </trkpt>
      <trkpt lat="44.51114" lon="6.83602">
        <ele>2323</ele>
        <time>2020-02-19T12:56:45.000Z</time>
      </trkpt>
      <trkpt lat="44.51113" lon="6.83589">
        <ele>2321</ele>
        <time>2020-02-19T12:56:48.000Z</time>
      </trkpt>
      <trkpt lat="44.51116" lon="6.83574">
        <ele>2310</ele>
        <time>2020-02-19T12:56:50.000Z</time>
      </trkpt>
      <trkpt lat="44.51124" lon="6.83554">
        <ele>2310</ele>
        <time>2020-02-19T12:56:53.000Z</time>
      </trkpt>
      <trkpt lat="44.51144" lon="6.8351">
        <ele>2308</ele>
        <time>2020-02-19T12:56:59.000Z</time>
      </trkpt>
      <trkpt lat="44.51154" lon="6.83487">
        <ele>2298</ele>
        <time>2020-02-19T12:57:03.000Z</time>
      </trkpt>
      <trkpt lat="44.5117" lon="6.83455">
        <ele>2305</ele>
        <time>2020-02-19T12:57:09.000Z</time>
      </trkpt>
      <trkpt lat="44.51182" lon="6.83433">
        <ele>2301</ele>
        <time>2020-02-19T12:57:13.000Z</time>
      </trkpt>
      <trkpt lat="44.51202" lon="6.83394">
        <ele>2290</ele>
        <time>2020-02-19T12:57:19.000Z</time>
      </trkpt>
      <trkpt lat="44.51215" lon="6.83364">
        <ele>2288</ele>
        <time>2020-02-19T12:57:23.000Z</time>
      </trkpt>
      <trkpt lat="44.51225" lon="6.83344">
        <ele>2287</ele>
        <time>2020-02-19T12:57:26.000Z</time>
      </trkpt>
      <trkpt lat="44.51231" lon="6.83337">
        <ele>2286</ele>
        <time>2020-02-19T12:57:32.000Z</time>
      </trkpt>
      <trkpt lat="44.51231" lon="6.83339">
        <ele>2287</ele>
        <time>2020-02-19T12:57:53.000Z</time>
      </trkpt>
      <trkpt lat="44.51232" lon="6.83337">
        <ele>2286</ele>
        <time>2020-02-19T12:58:08.000Z</time>
      </trkpt>
      <trkpt lat="44.51232" lon="6.83337">
        <ele>2286</ele>
        <time>2020-02-19T12:58:12.000Z</time>
      </trkpt>
      <trkpt lat="44.51233" lon="6.83335">
        <ele>2286</ele>
        <time>2020-02-19T12:58:29.000Z</time>
      </trkpt>
      <trkpt lat="44.51233" lon="6.83336">
        <ele>2286</ele>
        <time>2020-02-19T12:58:43.000Z</time>
      </trkpt>
      <trkpt lat="44.51236" lon="6.83313">
        <ele>2277</ele>
        <time>2020-02-19T12:58:54.000Z</time>
      </trkpt>
      <trkpt lat="44.51248" lon="6.83285">
        <ele>2274</ele>
        <time>2020-02-19T12:58:58.000Z</time>
      </trkpt>
      <trkpt lat="44.51258" lon="6.83259">
        <ele>2279</ele>
        <time>2020-02-19T12:59:02.000Z</time>
      </trkpt>
      <trkpt lat="44.51269" lon="6.83234">
        <ele>2273</ele>
        <time>2020-02-19T12:59:06.000Z</time>
      </trkpt>
      <trkpt lat="44.51282" lon="6.83209">
        <ele>2273</ele>
        <time>2020-02-19T12:59:11.000Z</time>
      </trkpt>
      <trkpt lat="44.51289" lon="6.83182">
        <ele>2271</ele>
        <time>2020-02-19T12:59:15.000Z</time>
      </trkpt>
      <trkpt lat="44.513" lon="6.83154">
        <ele>2263</ele>
        <time>2020-02-19T12:59:19.000Z</time>
      </trkpt>
      <trkpt lat="44.51304" lon="6.83143">
        <ele>2262</ele>
        <time>2020-02-19T12:59:21.000Z</time>
      </trkpt>
      <trkpt lat="44.51306" lon="6.83126">
        <ele>2261</ele>
        <time>2020-02-19T12:59:24.000Z</time>
      </trkpt>
      <trkpt lat="44.51304" lon="6.83113">
        <ele>2260</ele>
        <time>2020-02-19T12:59:36.000Z</time>
      </trkpt>
      <trkpt lat="44.51297" lon="6.83114">
        <ele>2260</ele>
        <time>2020-02-19T12:59:40.000Z</time>
      </trkpt>
      <trkpt lat="44.51292" lon="6.83113">
        <ele>2259</ele>
        <time>2020-02-19T12:59:44.000Z</time>
      </trkpt>
      <trkpt lat="44.51291" lon="6.83103">
        <ele>2258</ele>
        <time>2020-02-19T12:59:46.000Z</time>
      </trkpt>
      <trkpt lat="44.51288" lon="6.83087">
        <ele>2257</ele>
        <time>2020-02-19T12:59:49.000Z</time>
      </trkpt>
      <trkpt lat="44.51281" lon="6.83079">
        <ele>2249</ele>
        <time>2020-02-19T12:59:51.000Z</time>
      </trkpt>
      <trkpt lat="44.51281" lon="6.83065">
        <ele>2249</ele>
        <time>2020-02-19T12:59:53.000Z</time>
      </trkpt>
      <trkpt lat="44.51285" lon="6.83054">
        <ele>2248</ele>
        <time>2020-02-19T12:59:56.000Z</time>
      </trkpt>
      <trkpt lat="44.51286" lon="6.83051">
        <ele>2248</ele>
        <time>2020-02-19T12:59:59.000Z</time>
      </trkpt>
      <trkpt lat="44.51286" lon="6.83053">
        <ele>2248</ele>
        <time>2020-02-19T13:00:13.000Z</time>
      </trkpt>
      <trkpt lat="44.51286" lon="6.83052">
        <ele>2248</ele>
        <time>2020-02-19T13:00:19.000Z</time>
      </trkpt>
      <trkpt lat="44.51286" lon="6.83052">
        <ele>2248</ele>
        <time>2020-02-19T13:00:42.000Z</time>
      </trkpt>
      <trkpt lat="44.51285" lon="6.83051">
        <ele>2248</ele>
        <time>2020-02-19T13:00:53.000Z</time>
      </trkpt>
      <trkpt lat="44.51285" lon="6.83051">
        <ele>2248</ele>
        <time>2020-02-19T13:01:02.000Z</time>
      </trkpt>
      <trkpt lat="44.51285" lon="6.8305">
        <ele>2248</ele>
        <time>2020-02-19T13:01:06.000Z</time>
      </trkpt>
      <trkpt lat="44.51283" lon="6.8305">
        <ele>2248</ele>
        <time>2020-02-19T13:01:22.000Z</time>
      </trkpt>
      <trkpt lat="44.51286" lon="6.83042">
        <ele>2247</ele>
        <time>2020-02-19T13:01:35.000Z</time>
      </trkpt>
      <trkpt lat="44.5129" lon="6.8303">
        <ele>2247</ele>
        <time>2020-02-19T13:01:39.000Z</time>
      </trkpt>
      <trkpt lat="44.51299" lon="6.82996">
        <ele>2238</ele>
        <time>2020-02-19T13:01:47.000Z</time>
      </trkpt>
      <trkpt lat="44.51306" lon="6.82979">
        <ele>2238</ele>
        <time>2020-02-19T13:01:50.000Z</time>
      </trkpt>
      <trkpt lat="44.51311" lon="6.82966">
        <ele>2237</ele>
        <time>2020-02-19T13:01:52.000Z</time>
      </trkpt>
      <trkpt lat="44.51316" lon="6.82936">
        <ele>2236</ele>
        <time>2020-02-19T13:01:57.000Z</time>
      </trkpt>
      <trkpt lat="44.51327" lon="6.8291">
        <ele>2232</ele>
        <time>2020-02-19T13:02:02.000Z</time>
      </trkpt>
      <trkpt lat="44.5134" lon="6.82889">
        <ele>2236</ele>
        <time>2020-02-19T13:02:08.000Z</time>
      </trkpt>
      <trkpt lat="44.51352" lon="6.8287">
        <ele>2235</ele>
        <time>2020-02-19T13:02:14.000Z</time>
      </trkpt>
      <trkpt lat="44.51371" lon="6.82824">
        <ele>2222</ele>
        <time>2020-02-19T13:02:27.000Z</time>
      </trkpt>
      <trkpt lat="44.51387" lon="6.82805">
        <ele>2221</ele>
        <time>2020-02-19T13:02:34.000Z</time>
      </trkpt>
      <trkpt lat="44.51396" lon="6.82791">
        <ele>2221</ele>
        <time>2020-02-19T13:02:37.000Z</time>
      </trkpt>
      <trkpt lat="44.51413" lon="6.82756">
        <ele>2218</ele>
        <time>2020-02-19T13:02:45.000Z</time>
      </trkpt>
      <trkpt lat="44.51439" lon="6.82698">
        <ele>2220</ele>
        <time>2020-02-19T13:03:00.000Z</time>
      </trkpt>
      <trkpt lat="44.51445" lon="6.82684">
        <ele>2220</ele>
        <time>2020-02-19T13:03:03.000Z</time>
      </trkpt>
      <trkpt lat="44.51451" lon="6.82672">
        <ele>2220</ele>
        <time>2020-02-19T13:03:06.000Z</time>
      </trkpt>
      <trkpt lat="44.51461" lon="6.82649">
        <ele>2213</ele>
        <time>2020-02-19T13:03:11.000Z</time>
      </trkpt>
      <trkpt lat="44.51485" lon="6.82593">
        <ele>2209</ele>
        <time>2020-02-19T13:03:24.000Z</time>
      </trkpt>
      <trkpt lat="44.51496" lon="6.82556">
        <ele>2203</ele>
        <time>2020-02-19T13:03:34.000Z</time>
      </trkpt>
      <trkpt lat="44.51507" lon="6.82538">
        <ele>2210</ele>
        <time>2020-02-19T13:03:41.000Z</time>
      </trkpt>
      <trkpt lat="44.51531" lon="6.82518">
        <ele>2210</ele>
        <time>2020-02-19T13:03:52.000Z</time>
      </trkpt>
      <trkpt lat="44.51539" lon="6.82513">
        <ele>2211</ele>
        <time>2020-02-19T13:03:55.000Z</time>
      </trkpt>
      <trkpt lat="44.51542" lon="6.82505">
        <ele>2211</ele>
        <time>2020-02-19T13:03:59.000Z</time>
      </trkpt>
      <trkpt lat="44.51542" lon="6.82504">
        <ele>2211</ele>
        <time>2020-02-19T13:04:07.000Z</time>
      </trkpt>
      <trkpt lat="44.5154" lon="6.82497">
        <ele>2203</ele>
        <time>2020-02-19T13:04:18.000Z</time>
      </trkpt>
      <trkpt lat="44.51539" lon="6.82498">
        <ele>2203</ele>
        <time>2020-02-19T13:04:22.000Z</time>
      </trkpt>
      <trkpt lat="44.51538" lon="6.82499">
        <ele>2203</ele>
        <time>2020-02-19T13:04:31.000Z</time>
      </trkpt>
      <trkpt lat="44.51538" lon="6.82499">
        <ele>2203</ele>
        <time>2020-02-19T13:04:34.000Z</time>
      </trkpt>
      <trkpt lat="44.51537" lon="6.82499">
        <ele>2203</ele>
        <time>2020-02-19T13:04:41.000Z</time>
      </trkpt>
      <trkpt lat="44.51538" lon="6.82499">
        <ele>2203</ele>
        <time>2020-02-19T13:04:45.000Z</time>
      </trkpt>
      <trkpt lat="44.51538" lon="6.82499">
        <ele>2203</ele>
        <time>2020-02-19T13:04:47.000Z</time>
      </trkpt>
      <trkpt lat="44.51538" lon="6.82498">
        <ele>2203</ele>
        <time>2020-02-19T13:05:01.000Z</time>
      </trkpt>
      <trkpt lat="44.51538" lon="6.82498">
        <ele>2203</ele>
        <time>2020-02-19T13:05:04.000Z</time>
      </trkpt>
      <trkpt lat="44.51537" lon="6.82497">
        <ele>2203</ele>
        <time>2020-02-19T13:05:08.000Z</time>
      </trkpt>
      <trkpt lat="44.51536" lon="6.82498">
        <ele>2203</ele>
        <time>2020-02-19T13:05:19.000Z</time>
      </trkpt>
      <trkpt lat="44.51536" lon="6.82489">
        <ele>2203</ele>
        <time>2020-02-19T13:05:24.000Z</time>
      </trkpt>
      <trkpt lat="44.51538" lon="6.82489">
        <ele>2203</ele>
        <time>2020-02-19T13:05:28.000Z</time>
      </trkpt>
      <trkpt lat="44.51541" lon="6.82485">
        <ele>2203</ele>
        <time>2020-02-19T13:05:34.000Z</time>
      </trkpt>
      <trkpt lat="44.51534" lon="6.82466">
        <ele>2201</ele>
        <time>2020-02-19T13:05:42.000Z</time>
      </trkpt>
      <trkpt lat="44.51523" lon="6.82465">
        <ele>2200</ele>
        <time>2020-02-19T13:05:46.000Z</time>
      </trkpt>
      <trkpt lat="44.5152" lon="6.82457">
        <ele>2199</ele>
        <time>2020-02-19T13:05:48.000Z</time>
      </trkpt>
      <trkpt lat="44.51524" lon="6.82448">
        <ele>2199</ele>
        <time>2020-02-19T13:05:50.000Z</time>
      </trkpt>
      <trkpt lat="44.51534" lon="6.82428">
        <ele>2198</ele>
        <time>2020-02-19T13:05:54.000Z</time>
      </trkpt>
      <trkpt lat="44.51534" lon="6.82418">
        <ele>2197</ele>
        <time>2020-02-19T13:05:56.000Z</time>
      </trkpt>
      <trkpt lat="44.51532" lon="6.82391">
        <ele>2185</ele>
        <time>2020-02-19T13:06:01.000Z</time>
      </trkpt>
      <trkpt lat="44.51535" lon="6.82375">
        <ele>2183</ele>
        <time>2020-02-19T13:06:04.000Z</time>
      </trkpt>
      <trkpt lat="44.51548" lon="6.82351">
        <ele>2182</ele>
        <time>2020-02-19T13:06:09.000Z</time>
      </trkpt>
      <trkpt lat="44.5156" lon="6.82329">
        <ele>2172</ele>
        <time>2020-02-19T13:06:13.000Z</time>
      </trkpt>
      <trkpt lat="44.5157" lon="6.82312">
        <ele>2171</ele>
        <time>2020-02-19T13:06:17.000Z</time>
      </trkpt>
      <trkpt lat="44.51581" lon="6.82308">
        <ele>2171</ele>
        <time>2020-02-19T13:06:22.000Z</time>
      </trkpt>
      <trkpt lat="44.51589" lon="6.82295">
        <ele>2175</ele>
        <time>2020-02-19T13:06:32.000Z</time>
      </trkpt>
      <trkpt lat="44.516" lon="6.82283">
        <ele>2173</ele>
        <time>2020-02-19T13:06:38.000Z</time>
      </trkpt>
      <trkpt lat="44.51613" lon="6.82287">
        <ele>2174</ele>
        <time>2020-02-19T13:06:43.000Z</time>
      </trkpt>
      <trkpt lat="44.51643" lon="6.82277">
        <ele>2174</ele>
        <time>2020-02-19T13:06:51.000Z</time>
      </trkpt>
      <trkpt lat="44.51663" lon="6.82274">
        <ele>2174</ele>
        <time>2020-02-19T13:06:57.000Z</time>
      </trkpt>
      <trkpt lat="44.51687" lon="6.82255">
        <ele>2174</ele>
        <time>2020-02-19T13:07:04.000Z</time>
      </trkpt>
      <trkpt lat="44.5169" lon="6.82247">
        <ele>2165</ele>
        <time>2020-02-19T13:07:08.000Z</time>
      </trkpt>
      <trkpt lat="44.51691" lon="6.82237">
        <ele>2164</ele>
        <time>2020-02-19T13:07:13.000Z</time>
      </trkpt>
      <trkpt lat="44.51691" lon="6.82233">
        <ele>2164</ele>
        <time>2020-02-19T13:07:25.000Z</time>
      </trkpt>
      <trkpt lat="44.51691" lon="6.8223">
        <ele>2164</ele>
        <time>2020-02-19T13:07:37.000Z</time>
      </trkpt>
      <trkpt lat="44.51691" lon="6.82229">
        <ele>2163</ele>
        <time>2020-02-19T13:07:49.000Z</time>
      </trkpt>
      <trkpt lat="44.51691" lon="6.82222">
        <ele>2163</ele>
        <time>2020-02-19T13:08:02.000Z</time>
      </trkpt>
      <trkpt lat="44.51691" lon="6.82222">
        <ele>2163</ele>
        <time>2020-02-19T13:08:14.000Z</time>
      </trkpt>
      <trkpt lat="44.51695" lon="6.82211">
        <ele>2161</ele>
        <time>2020-02-19T13:08:21.000Z</time>
      </trkpt>
      <trkpt lat="44.5171" lon="6.82196">
        <ele>2160</ele>
        <time>2020-02-19T13:08:28.000Z</time>
      </trkpt>
      <trkpt lat="44.51717" lon="6.82189">
        <ele>2159</ele>
        <time>2020-02-19T13:08:33.000Z</time>
      </trkpt>
      <trkpt lat="44.51726" lon="6.82183">
        <ele>2158</ele>
        <time>2020-02-19T13:08:39.000Z</time>
      </trkpt>
      <trkpt lat="44.51739" lon="6.82182">
        <ele>2157</ele>
        <time>2020-02-19T13:08:43.000Z</time>
      </trkpt>
      <trkpt lat="44.51751" lon="6.82176">
        <ele>2154</ele>
        <time>2020-02-19T13:08:50.000Z</time>
      </trkpt>
      <trkpt lat="44.51744" lon="6.82165">
        <ele>2151</ele>
        <time>2020-02-19T13:08:55.000Z</time>
      </trkpt>
      <trkpt lat="44.51748" lon="6.82158">
        <ele>2150</ele>
        <time>2020-02-19T13:08:58.000Z</time>
      </trkpt>
      <trkpt lat="44.51745" lon="6.82142">
        <ele>2147</ele>
        <time>2020-02-19T13:09:03.000Z</time>
      </trkpt>
      <trkpt lat="44.51745" lon="6.82134">
        <ele>2146</ele>
        <time>2020-02-19T13:09:06.000Z</time>
      </trkpt>
      <trkpt lat="44.51744" lon="6.8213">
        <ele>2146</ele>
        <time>2020-02-19T13:09:08.000Z</time>
      </trkpt>
      <trkpt lat="44.51738" lon="6.82124">
        <ele>2145</ele>
        <time>2020-02-19T13:09:12.000Z</time>
      </trkpt>
      <trkpt lat="44.51739" lon="6.82114">
        <ele>2143</ele>
        <time>2020-02-19T13:09:17.000Z</time>
      </trkpt>
      <trkpt lat="44.51742" lon="6.82108">
        <ele>2142</ele>
        <time>2020-02-19T13:09:23.000Z</time>
      </trkpt>
      <trkpt lat="44.5174" lon="6.82102">
        <ele>2141</ele>
        <time>2020-02-19T13:09:27.000Z</time>
      </trkpt>
      <trkpt lat="44.51738" lon="6.82085">
        <ele>2139</ele>
        <time>2020-02-19T13:09:32.000Z</time>
      </trkpt>
      <trkpt lat="44.51744" lon="6.82073">
        <ele>2133</ele>
        <time>2020-02-19T13:09:34.000Z</time>
      </trkpt>
      <trkpt lat="44.51753" lon="6.82062">
        <ele>2129</ele>
        <time>2020-02-19T13:09:36.000Z</time>
      </trkpt>
      <trkpt lat="44.51762" lon="6.82057">
        <ele>2128</ele>
        <time>2020-02-19T13:09:38.000Z</time>
      </trkpt>
      <trkpt lat="44.51774" lon="6.82048">
        <ele>2126</ele>
        <time>2020-02-19T13:09:44.000Z</time>
      </trkpt>
      <trkpt lat="44.5177" lon="6.8205">
        <ele>2126</ele>
        <time>2020-02-19T13:10:03.000Z</time>
      </trkpt>
      <trkpt lat="44.51771" lon="6.82049">
        <ele>2126</ele>
        <time>2020-02-19T13:10:15.000Z</time>
      </trkpt>
      <trkpt lat="44.51775" lon="6.82047">
        <ele>2126</ele>
        <time>2020-02-19T13:10:39.000Z</time>
      </trkpt>
      <trkpt lat="44.51775" lon="6.82045">
        <ele>2125</ele>
        <time>2020-02-19T13:10:44.000Z</time>
      </trkpt>
      <trkpt lat="44.51778" lon="6.82043">
        <ele>2125</ele>
        <time>2020-02-19T13:10:50.000Z</time>
      </trkpt>
      <trkpt lat="44.51777" lon="6.82043">
        <ele>2125</ele>
        <time>2020-02-19T13:10:58.000Z</time>
      </trkpt>
      <trkpt lat="44.51776" lon="6.82043">
        <ele>2125</ele>
        <time>2020-02-19T13:11:02.000Z</time>
      </trkpt>
      <trkpt lat="44.51777" lon="6.82044">
        <ele>2125</ele>
        <time>2020-02-19T13:11:06.000Z</time>
      </trkpt>
      <trkpt lat="44.51777" lon="6.82045">
        <ele>2125</ele>
        <time>2020-02-19T13:11:09.000Z</time>
      </trkpt>
      <trkpt lat="44.51776" lon="6.82046">
        <ele>2126</ele>
        <time>2020-02-19T13:11:15.000Z</time>
      </trkpt>
      <trkpt lat="44.51772" lon="6.82039">
        <ele>2125</ele>
        <time>2020-02-19T13:11:22.000Z</time>
      </trkpt>
      <trkpt lat="44.51761" lon="6.82008">
        <ele>2124</ele>
        <time>2020-02-19T13:11:29.000Z</time>
      </trkpt>
      <trkpt lat="44.5176" lon="6.82001">
        <ele>2124</ele>
        <time>2020-02-19T13:11:33.000Z</time>
      </trkpt>
      <trkpt lat="44.51759" lon="6.81972">
        <ele>2115</ele>
        <time>2020-02-19T13:11:42.000Z</time>
      </trkpt>
      <trkpt lat="44.51763" lon="6.81964">
        <ele>2113</ele>
        <time>2020-02-19T13:11:45.000Z</time>
      </trkpt>
      <trkpt lat="44.51772" lon="6.81955">
        <ele>2112</ele>
        <time>2020-02-19T13:11:50.000Z</time>
      </trkpt>
      <trkpt lat="44.51778" lon="6.81934">
        <ele>2110</ele>
        <time>2020-02-19T13:11:56.000Z</time>
      </trkpt>
      <trkpt lat="44.51798" lon="6.81905">
        <ele>2100</ele>
        <time>2020-02-19T13:12:07.000Z</time>
      </trkpt>
      <trkpt lat="44.5181" lon="6.819">
        <ele>2099</ele>
        <time>2020-02-19T13:12:12.000Z</time>
      </trkpt>
      <trkpt lat="44.51809" lon="6.81888">
        <ele>2099</ele>
        <time>2020-02-19T13:12:15.000Z</time>
      </trkpt>
      <trkpt lat="44.5181" lon="6.81881">
        <ele>2098</ele>
        <time>2020-02-19T13:12:18.000Z</time>
      </trkpt>
      <trkpt lat="44.5182" lon="6.81863">
        <ele>2096</ele>
        <time>2020-02-19T13:12:26.000Z</time>
      </trkpt>
      <trkpt lat="44.51822" lon="6.81857">
        <ele>2096</ele>
        <time>2020-02-19T13:12:28.000Z</time>
      </trkpt>
      <trkpt lat="44.51822" lon="6.81856">
        <ele>2096</ele>
        <time>2020-02-19T13:12:31.000Z</time>
      </trkpt>
      <trkpt lat="44.51831" lon="6.81852">
        <ele>2095</ele>
        <time>2020-02-19T13:12:48.000Z</time>
      </trkpt>
      <trkpt lat="44.51832" lon="6.8185">
        <ele>2095</ele>
        <time>2020-02-19T13:13:02.000Z</time>
      </trkpt>
      <trkpt lat="44.51831" lon="6.8185">
        <ele>2095</ele>
        <time>2020-02-19T13:13:14.000Z</time>
      </trkpt>
      <trkpt lat="44.51831" lon="6.81848">
        <ele>2095</ele>
        <time>2020-02-19T13:13:22.000Z</time>
      </trkpt>
      <trkpt lat="44.5183" lon="6.81846">
        <ele>2095</ele>
        <time>2020-02-19T13:13:27.000Z</time>
      </trkpt>
      <trkpt lat="44.51829" lon="6.81844">
        <ele>2095</ele>
        <time>2020-02-19T13:13:32.000Z</time>
      </trkpt>
      <trkpt lat="44.5183" lon="6.81845">
        <ele>2095</ele>
        <time>2020-02-19T13:13:39.000Z</time>
      </trkpt>
      <trkpt lat="44.5183" lon="6.81844">
        <ele>2095</ele>
        <time>2020-02-19T13:13:51.000Z</time>
      </trkpt>
      <trkpt lat="44.5183" lon="6.81844">
        <ele>2094</ele>
        <time>2020-02-19T13:13:58.000Z</time>
      </trkpt>
      <trkpt lat="44.51829" lon="6.8184">
        <ele>2094</ele>
        <time>2020-02-19T13:14:02.000Z</time>
      </trkpt>
      <trkpt lat="44.51825" lon="6.81837">
        <ele>2094</ele>
        <time>2020-02-19T13:14:05.000Z</time>
      </trkpt>
      <trkpt lat="44.51821" lon="6.81836">
        <ele>2094</ele>
        <time>2020-02-19T13:14:09.000Z</time>
      </trkpt>
      <trkpt lat="44.51814" lon="6.81835">
        <ele>2095</ele>
        <time>2020-02-19T13:14:16.000Z</time>
      </trkpt>
      <trkpt lat="44.51812" lon="6.81836">
        <ele>2095</ele>
        <time>2020-02-19T13:14:20.000Z</time>
      </trkpt>
      <trkpt lat="44.51818" lon="6.81829">
        <ele>2087</ele>
        <time>2020-02-19T13:14:25.000Z</time>
      </trkpt>
      <trkpt lat="44.51826" lon="6.81821">
        <ele>2087</ele>
        <time>2020-02-19T13:14:32.000Z</time>
      </trkpt>
      <trkpt lat="44.5183" lon="6.81814">
        <ele>2086</ele>
        <time>2020-02-19T13:14:36.000Z</time>
      </trkpt>
      <trkpt lat="44.5183" lon="6.81801">
        <ele>2083</ele>
        <time>2020-02-19T13:14:41.000Z</time>
      </trkpt>
      <trkpt lat="44.51826" lon="6.81797">
        <ele>2082</ele>
        <time>2020-02-19T13:14:46.000Z</time>
      </trkpt>
      <trkpt lat="44.51826" lon="6.81791">
        <ele>2081</ele>
        <time>2020-02-19T13:14:56.000Z</time>
      </trkpt>
      <trkpt lat="44.51826" lon="6.81792">
        <ele>2081</ele>
        <time>2020-02-19T13:15:03.000Z</time>
      </trkpt>
      <trkpt lat="44.51826" lon="6.81787">
        <ele>2081</ele>
        <time>2020-02-19T13:15:21.000Z</time>
      </trkpt>
      <trkpt lat="44.51827" lon="6.81781">
        <ele>2080</ele>
        <time>2020-02-19T13:15:35.000Z</time>
      </trkpt>
      <trkpt lat="44.51828" lon="6.81781">
        <ele>2080</ele>
        <time>2020-02-19T13:15:43.000Z</time>
      </trkpt>
      <trkpt lat="44.51829" lon="6.81781">
        <ele>2080</ele>
        <time>2020-02-19T13:15:45.000Z</time>
      </trkpt>
      <trkpt lat="44.51827" lon="6.81781">
        <ele>2080</ele>
        <time>2020-02-19T13:15:55.000Z</time>
      </trkpt>
      <trkpt lat="44.51831" lon="6.81768">
        <ele>2078</ele>
        <time>2020-02-19T13:16:06.000Z</time>
      </trkpt>
      <trkpt lat="44.51837" lon="6.81763">
        <ele>2078</ele>
        <time>2020-02-19T13:16:09.000Z</time>
      </trkpt>
      <trkpt lat="44.51841" lon="6.81762">
        <ele>2078</ele>
        <time>2020-02-19T13:16:12.000Z</time>
      </trkpt>
      <trkpt lat="44.51848" lon="6.81754">
        <ele>2077</ele>
        <time>2020-02-19T13:16:17.000Z</time>
      </trkpt>
      <trkpt lat="44.51848" lon="6.81748">
        <ele>2071</ele>
        <time>2020-02-19T13:16:21.000Z</time>
      </trkpt>
      <trkpt lat="44.51852" lon="6.8174">
        <ele>2070</ele>
        <time>2020-02-19T13:16:29.000Z</time>
      </trkpt>
      <trkpt lat="44.51854" lon="6.81726">
        <ele>2068</ele>
        <time>2020-02-19T13:16:32.000Z</time>
      </trkpt>
      <trkpt lat="44.51861" lon="6.81714">
        <ele>2066</ele>
        <time>2020-02-19T13:16:36.000Z</time>
      </trkpt>
      <trkpt lat="44.51858" lon="6.81704">
        <ele>2065</ele>
        <time>2020-02-19T13:16:41.000Z</time>
      </trkpt>
      <trkpt lat="44.51859" lon="6.817">
        <ele>2064</ele>
        <time>2020-02-19T13:16:44.000Z</time>
      </trkpt>
      <trkpt lat="44.51865" lon="6.81685">
        <ele>2063</ele>
        <time>2020-02-19T13:16:52.000Z</time>
      </trkpt>
      <trkpt lat="44.51864" lon="6.81681">
        <ele>2062</ele>
        <time>2020-02-19T13:16:56.000Z</time>
      </trkpt>
      <trkpt lat="44.51868" lon="6.81671">
        <ele>2062</ele>
        <time>2020-02-19T13:17:00.000Z</time>
      </trkpt>
      <trkpt lat="44.51875" lon="6.81656">
        <ele>2052</ele>
        <time>2020-02-19T13:17:13.000Z</time>
      </trkpt>
      <trkpt lat="44.51892" lon="6.81635">
        <ele>2051</ele>
        <time>2020-02-19T13:17:18.000Z</time>
      </trkpt>
      <trkpt lat="44.51898" lon="6.81628">
        <ele>2050</ele>
        <time>2020-02-19T13:17:20.000Z</time>
      </trkpt>
      <trkpt lat="44.519" lon="6.8162">
        <ele>2049</ele>
        <time>2020-02-19T13:17:22.000Z</time>
      </trkpt>
      <trkpt lat="44.51908" lon="6.81605">
        <ele>2048</ele>
        <time>2020-02-19T13:17:26.000Z</time>
      </trkpt>
      <trkpt lat="44.51909" lon="6.81603">
        <ele>2047</ele>
        <time>2020-02-19T13:17:37.000Z</time>
      </trkpt>
      <trkpt lat="44.51909" lon="6.81603">
        <ele>2047</ele>
        <time>2020-02-19T13:17:53.000Z</time>
      </trkpt>
      <trkpt lat="44.5191" lon="6.81601">
        <ele>2047</ele>
        <time>2020-02-19T13:18:04.000Z</time>
      </trkpt>
      <trkpt lat="44.51909" lon="6.81602">
        <ele>2047</ele>
        <time>2020-02-19T13:18:08.000Z</time>
      </trkpt>
      <trkpt lat="44.51909" lon="6.81601">
        <ele>2047</ele>
        <time>2020-02-19T13:18:13.000Z</time>
      </trkpt>
      <trkpt lat="44.51909" lon="6.81601">
        <ele>2047</ele>
        <time>2020-02-19T13:18:15.000Z</time>
      </trkpt>
      <trkpt lat="44.51909" lon="6.81601">
        <ele>2047</ele>
        <time>2020-02-19T13:18:17.000Z</time>
      </trkpt>
      <trkpt lat="44.5192" lon="6.81578">
        <ele>2041</ele>
        <time>2020-02-19T13:18:26.000Z</time>
      </trkpt>
      <trkpt lat="44.51927" lon="6.81569">
        <ele>2038</ele>
        <time>2020-02-19T13:18:30.000Z</time>
      </trkpt>
      <trkpt lat="44.51939" lon="6.81566">
        <ele>2036</ele>
        <time>2020-02-19T13:18:34.000Z</time>
      </trkpt>
      <trkpt lat="44.51944" lon="6.81562">
        <ele>2035</ele>
        <time>2020-02-19T13:18:40.000Z</time>
      </trkpt>
      <trkpt lat="44.51943" lon="6.81548">
        <ele>2033</ele>
        <time>2020-02-19T13:18:44.000Z</time>
      </trkpt>
      <trkpt lat="44.51956" lon="6.81542">
        <ele>2032</ele>
        <time>2020-02-19T13:18:49.000Z</time>
      </trkpt>
      <trkpt lat="44.51959" lon="6.81532">
        <ele>2031</ele>
        <time>2020-02-19T13:18:52.000Z</time>
      </trkpt>
      <trkpt lat="44.51967" lon="6.81519">
        <ele>2030</ele>
        <time>2020-02-19T13:18:56.000Z</time>
      </trkpt>
      <trkpt lat="44.51972" lon="6.8152">
        <ele>2030</ele>
        <time>2020-02-19T13:18:58.000Z</time>
      </trkpt>
      <trkpt lat="44.51979" lon="6.81519">
        <ele>2029</ele>
        <time>2020-02-19T13:19:00.000Z</time>
      </trkpt>
      <trkpt lat="44.51981" lon="6.81512">
        <ele>2028</ele>
        <time>2020-02-19T13:19:02.000Z</time>
      </trkpt>
      <trkpt lat="44.51989" lon="6.81497">
        <ele>2022</ele>
        <time>2020-02-19T13:19:06.000Z</time>
      </trkpt>
      <trkpt lat="44.51991" lon="6.8148">
        <ele>2022</ele>
        <time>2020-02-19T13:19:10.000Z</time>
      </trkpt>
      <trkpt lat="44.51991" lon="6.81478">
        <ele>2022</ele>
        <time>2020-02-19T13:19:13.000Z</time>
      </trkpt>
      <trkpt lat="44.52002" lon="6.81486">
        <ele>2020</ele>
        <time>2020-02-19T13:19:19.000Z</time>
      </trkpt>
      <trkpt lat="44.52014" lon="6.81487">
        <ele>2019</ele>
        <time>2020-02-19T13:19:21.000Z</time>
      </trkpt>
      <trkpt lat="44.52025" lon="6.81476">
        <ele>2017</ele>
        <time>2020-02-19T13:19:24.000Z</time>
      </trkpt>
      <trkpt lat="44.52033" lon="6.81461">
        <ele>2016</ele>
        <time>2020-02-19T13:19:36.000Z</time>
      </trkpt>
      <trkpt lat="44.52067" lon="6.81411">
        <ele>2011</ele>
        <time>2020-02-19T13:19:58.000Z</time>
      </trkpt>
      <trkpt lat="44.52087" lon="6.81388">
        <ele>2006</ele>
        <time>2020-02-19T13:20:07.000Z</time>
      </trkpt>
      <trkpt lat="44.52099" lon="6.81372">
        <ele>2004</ele>
        <time>2020-02-19T13:20:13.000Z</time>
      </trkpt>
      <trkpt lat="44.52122" lon="6.8136">
        <ele>2002</ele>
        <time>2020-02-19T13:20:20.000Z</time>
      </trkpt>
      <trkpt lat="44.52145" lon="6.81346">
        <ele>2001</ele>
        <time>2020-02-19T13:20:29.000Z</time>
      </trkpt>
      <trkpt lat="44.52153" lon="6.8134">
        <ele>2001</ele>
        <time>2020-02-19T13:20:32.000Z</time>
      </trkpt>
      <trkpt lat="44.52154" lon="6.8134">
        <ele>2001</ele>
        <time>2020-02-19T13:20:37.000Z</time>
      </trkpt>
      <trkpt lat="44.5215" lon="6.8134">
        <ele>2001</ele>
        <time>2020-02-19T13:20:50.000Z</time>
      </trkpt>
      <trkpt lat="44.52145" lon="6.81329">
        <ele>1999</ele>
        <time>2020-02-19T13:20:54.000Z</time>
      </trkpt>
      <trkpt lat="44.52137" lon="6.81315">
        <ele>1998</ele>
        <time>2020-02-19T13:20:57.000Z</time>
      </trkpt>
      <trkpt lat="44.52145" lon="6.81294">
        <ele>1997</ele>
        <time>2020-02-19T13:21:03.000Z</time>
      </trkpt>
      <trkpt lat="44.52159" lon="6.81275">
        <ele>1996</ele>
        <time>2020-02-19T13:21:07.000Z</time>
      </trkpt>
      <trkpt lat="44.52168" lon="6.81267">
        <ele>1991</ele>
        <time>2020-02-19T13:21:09.000Z</time>
      </trkpt>
      <trkpt lat="44.52175" lon="6.81261">
        <ele>1991</ele>
        <time>2020-02-19T13:21:11.000Z</time>
      </trkpt>
      <trkpt lat="44.52194" lon="6.81239">
        <ele>1985</ele>
        <time>2020-02-19T13:21:18.000Z</time>
      </trkpt>
      <trkpt lat="44.52205" lon="6.81226">
        <ele>1983</ele>
        <time>2020-02-19T13:21:22.000Z</time>
      </trkpt>
      <trkpt lat="44.52213" lon="6.81218">
        <ele>1982</ele>
        <time>2020-02-19T13:21:25.000Z</time>
      </trkpt>
      <trkpt lat="44.52221" lon="6.81211">
        <ele>1981</ele>
        <time>2020-02-19T13:21:30.000Z</time>
      </trkpt>
      <trkpt lat="44.52222" lon="6.81211">
        <ele>1981</ele>
        <time>2020-02-19T13:21:41.000Z</time>
      </trkpt>
      <trkpt lat="44.52222" lon="6.81211">
        <ele>1981</ele>
        <time>2020-02-19T13:21:51.000Z</time>
      </trkpt>
      <trkpt lat="44.52226" lon="6.81205">
        <ele>1981</ele>
        <time>2020-02-19T13:21:53.000Z</time>
      </trkpt>
      <trkpt lat="44.52238" lon="6.81195">
        <ele>1979</ele>
        <time>2020-02-19T13:21:56.000Z</time>
      </trkpt>
      <trkpt lat="44.5226" lon="6.81172">
        <ele>1973</ele>
        <time>2020-02-19T13:22:01.000Z</time>
      </trkpt>
      <trkpt lat="44.52265" lon="6.81166">
        <ele>1969</ele>
        <time>2020-02-19T13:22:04.000Z</time>
      </trkpt>
      <trkpt lat="44.52269" lon="6.81162">
        <ele>1968</ele>
        <time>2020-02-19T13:22:18.000Z</time>
      </trkpt>
      <trkpt lat="44.52276" lon="6.81147">
        <ele>1966</ele>
        <time>2020-02-19T13:22:51.000Z</time>
      </trkpt>
      <trkpt lat="44.52279" lon="6.81145">
        <ele>1965</ele>
        <time>2020-02-19T13:22:54.000Z</time>
      </trkpt>
      <trkpt lat="44.52276" lon="6.81135">
        <ele>1965</ele>
        <time>2020-02-19T13:22:57.000Z</time>
      </trkpt>
      <trkpt lat="44.52281" lon="6.81127">
        <ele>1964</ele>
        <time>2020-02-19T13:23:00.000Z</time>
      </trkpt>
      <trkpt lat="44.52289" lon="6.81121">
        <ele>1963</ele>
        <time>2020-02-19T13:23:13.000Z</time>
      </trkpt>
      <trkpt lat="44.52297" lon="6.81109">
        <ele>1963</ele>
        <time>2020-02-19T13:23:17.000Z</time>
      </trkpt>
      <trkpt lat="44.52297" lon="6.81097">
        <ele>1962</ele>
        <time>2020-02-19T13:23:21.000Z</time>
      </trkpt>
      <trkpt lat="44.52291" lon="6.81095">
        <ele>1962</ele>
        <time>2020-02-19T13:23:27.000Z</time>
      </trkpt>
      <trkpt lat="44.5229" lon="6.81082">
        <ele>1957</ele>
        <time>2020-02-19T13:23:31.000Z</time>
      </trkpt>
      <trkpt lat="44.52294" lon="6.81074">
        <ele>1957</ele>
        <time>2020-02-19T13:23:33.000Z</time>
      </trkpt>
      <trkpt lat="44.52301" lon="6.81063">
        <ele>1956</ele>
        <time>2020-02-19T13:23:35.000Z</time>
      </trkpt>
      <trkpt lat="44.52312" lon="6.81049">
        <ele>1955</ele>
        <time>2020-02-19T13:23:38.000Z</time>
      </trkpt>
      <trkpt lat="44.52324" lon="6.81023">
        <ele>1952</ele>
        <time>2020-02-19T13:23:42.000Z</time>
      </trkpt>
      <trkpt lat="44.52334" lon="6.81004">
        <ele>1946</ele>
        <time>2020-02-19T13:23:45.000Z</time>
      </trkpt>
      <trkpt lat="44.52347" lon="6.80986">
        <ele>1943</ele>
        <time>2020-02-19T13:23:49.000Z</time>
      </trkpt>
      <trkpt lat="44.52366" lon="6.80961">
        <ele>1941</ele>
        <time>2020-02-19T13:23:57.000Z</time>
      </trkpt>
      <trkpt lat="44.52366" lon="6.80945">
        <ele>1940</ele>
        <time>2020-02-19T13:24:06.000Z</time>
      </trkpt>
      <trkpt lat="44.52369" lon="6.80947">
        <ele>1940</ele>
        <time>2020-02-19T13:24:19.000Z</time>
      </trkpt>
      <trkpt lat="44.5237" lon="6.80946">
        <ele>1940</ele>
        <time>2020-02-19T13:24:41.000Z</time>
      </trkpt>
      <trkpt lat="44.52371" lon="6.80944">
        <ele>1940</ele>
        <time>2020-02-19T13:24:44.000Z</time>
      </trkpt>
      <trkpt lat="44.52373" lon="6.80938">
        <ele>1939</ele>
        <time>2020-02-19T13:24:46.000Z</time>
      </trkpt>
      <trkpt lat="44.52382" lon="6.80928">
        <ele>1938</ele>
        <time>2020-02-19T13:24:50.000Z</time>
      </trkpt>
      <trkpt lat="44.52389" lon="6.80904">
        <ele>1933</ele>
        <time>2020-02-19T13:24:55.000Z</time>
      </trkpt>
      <trkpt lat="44.52395" lon="6.80895">
        <ele>1933</ele>
        <time>2020-02-19T13:24:57.000Z</time>
      </trkpt>
      <trkpt lat="44.52404" lon="6.80882">
        <ele>1932</ele>
        <time>2020-02-19T13:25:00.000Z</time>
      </trkpt>
      <trkpt lat="44.52415" lon="6.80872">
        <ele>1931</ele>
        <time>2020-02-19T13:25:04.000Z</time>
      </trkpt>
      <trkpt lat="44.52436" lon="6.80852">
        <ele>1924</ele>
        <time>2020-02-19T13:25:09.000Z</time>
      </trkpt>
      <trkpt lat="44.52445" lon="6.80846">
        <ele>1924</ele>
        <time>2020-02-19T13:25:11.000Z</time>
      </trkpt>
      <trkpt lat="44.52467" lon="6.80832">
        <ele>1919</ele>
        <time>2020-02-19T13:25:16.000Z</time>
      </trkpt>
      <trkpt lat="44.5249" lon="6.80806">
        <ele>1918</ele>
        <time>2020-02-19T13:25:22.000Z</time>
      </trkpt>
      <trkpt lat="44.52496" lon="6.80792">
        <ele>1917</ele>
        <time>2020-02-19T13:25:25.000Z</time>
      </trkpt>
      <trkpt lat="44.52507" lon="6.80783">
        <ele>1916</ele>
        <time>2020-02-19T13:25:28.000Z</time>
      </trkpt>
      <trkpt lat="44.52512" lon="6.8077">
        <ele>1915</ele>
        <time>2020-02-19T13:25:31.000Z</time>
      </trkpt>
      <trkpt lat="44.52537" lon="6.80731">
        <ele>1914</ele>
        <time>2020-02-19T13:25:39.000Z</time>
      </trkpt>
      <trkpt lat="44.52544" lon="6.80703">
        <ele>1915</ele>
        <time>2020-02-19T13:25:45.000Z</time>
      </trkpt>
      <trkpt lat="44.52551" lon="6.80667">
        <ele>1915</ele>
        <time>2020-02-19T13:25:55.000Z</time>
      </trkpt>
      <trkpt lat="44.52555" lon="6.80645">
        <ele>1914</ele>
        <time>2020-02-19T13:26:02.000Z</time>
      </trkpt>
      <trkpt lat="44.52559" lon="6.80605">
        <ele>1912</ele>
        <time>2020-02-19T13:26:17.000Z</time>
      </trkpt>
      <trkpt lat="44.52563" lon="6.8058">
        <ele>1910</ele>
        <time>2020-02-19T13:26:23.000Z</time>
      </trkpt>
      <trkpt lat="44.52566" lon="6.80562">
        <ele>1910</ele>
        <time>2020-02-19T13:26:29.000Z</time>
      </trkpt>
      <trkpt lat="44.52587" lon="6.80489">
        <ele>1911</ele>
        <time>2020-02-19T13:26:49.000Z</time>
      </trkpt>
      <trkpt lat="44.52593" lon="6.80468">
        <ele>1915</ele>
        <time>2020-02-19T13:26:52.000Z</time>
      </trkpt>
      <trkpt lat="44.52599" lon="6.8045">
        <ele>1915</ele>
        <time>2020-02-19T13:26:55.000Z</time>
      </trkpt>
      <trkpt lat="44.52604" lon="6.80427">
        <ele>1914</ele>
        <time>2020-02-19T13:26:59.000Z</time>
      </trkpt>
      <trkpt lat="44.52602" lon="6.8041">
        <ele>1911</ele>
        <time>2020-02-19T13:27:05.000Z</time>
      </trkpt>
      <trkpt lat="44.52598" lon="6.804">
        <ele>1910</ele>
        <time>2020-02-19T13:27:16.000Z</time>
      </trkpt>
      <trkpt lat="44.52595" lon="6.80391">
        <ele>1911</ele>
        <time>2020-02-19T13:27:21.000Z</time>
      </trkpt>
      <trkpt lat="44.52594" lon="6.8038">
        <ele>1911</ele>
        <time>2020-02-19T13:27:31.000Z</time>
      </trkpt>
      <trkpt lat="44.52595" lon="6.80372">
        <ele>1911</ele>
        <time>2020-02-19T13:27:40.000Z</time>
      </trkpt>
      <trkpt lat="44.52597" lon="6.80345">
        <ele>1907</ele>
        <time>2020-02-19T13:28:00.000Z</time>
      </trkpt>
      <trkpt lat="44.52597" lon="6.80319">
        <ele>1907</ele>
        <time>2020-02-19T13:28:12.000Z</time>
      </trkpt>
      <trkpt lat="44.52597" lon="6.80316">
        <ele>1908</ele>
        <time>2020-02-19T13:28:23.000Z</time>
      </trkpt>
      <trkpt lat="44.52598" lon="6.80319">
        <ele>1907</ele>
        <time>2020-02-19T13:28:34.000Z</time>
      </trkpt>
      <trkpt lat="44.52596" lon="6.80317">
        <ele>1908</ele>
        <time>2020-02-19T13:28:39.000Z</time>
      </trkpt>
      <trkpt lat="44.52595" lon="6.80321">
        <ele>1906</ele>
        <time>2020-02-19T13:28:56.000Z</time>
      </trkpt>
      <trkpt lat="44.52597" lon="6.80319">
        <ele>1907</ele>
        <time>2020-02-19T13:29:07.000Z</time>
      </trkpt>
      <trkpt lat="44.52599" lon="6.8032">
        <ele>1908</ele>
        <time>2020-02-19T13:29:15.000Z</time>
      </trkpt>
      <trkpt lat="44.52599" lon="6.80317">
        <ele>1908</ele>
        <time>2020-02-19T13:29:19.000Z</time>
      </trkpt>
      <trkpt lat="44.52599" lon="6.80316">
        <ele>1908</ele>
        <time>2020-02-19T13:29:28.000Z</time>
      </trkpt>
      <trkpt lat="44.52598" lon="6.80316">
        <ele>1908</ele>
        <time>2020-02-19T13:29:35.000Z</time>
      </trkpt>
      <trkpt lat="44.52598" lon="6.80316">
        <ele>1908</ele>
        <time>2020-02-19T13:29:38.000Z</time>
      </trkpt>
      <trkpt lat="44.52598" lon="6.80317">
        <ele>1908</ele>
        <time>2020-02-19T13:29:45.000Z</time>
      </trkpt>
      <trkpt lat="44.52597" lon="6.80319">
        <ele>1907</ele>
        <time>2020-02-19T13:29:50.000Z</time>
      </trkpt>
      <trkpt lat="44.52591" lon="6.8032">
        <ele>1906</ele>
        <time>2020-02-19T13:30:00.000Z</time>
      </trkpt>
      <trkpt lat="44.52591" lon="6.8032">
        <ele>1906</ele>
        <time>2020-02-19T13:30:02.000Z</time>
      </trkpt>
      <trkpt lat="44.52592" lon="6.80307">
        <ele>1909</ele>
        <time>2020-02-19T13:30:16.000Z</time>
      </trkpt>
      <trkpt lat="44.52594" lon="6.80307">
        <ele>1909</ele>
        <time>2020-02-19T13:30:20.000Z</time>
      </trkpt>
      <trkpt lat="44.52596" lon="6.80311">
        <ele>1909</ele>
        <time>2020-02-19T13:30:23.000Z</time>
      </trkpt>
      <trkpt lat="44.52597" lon="6.80314">
        <ele>1908</ele>
        <time>2020-02-19T13:30:25.000Z</time>
      </trkpt>
      <trkpt lat="44.52597" lon="6.8032">
        <ele>1907</ele>
        <time>2020-02-19T13:30:29.000Z</time>
      </trkpt>
      <trkpt lat="44.52596" lon="6.80326">
        <ele>1906</ele>
        <time>2020-02-19T13:30:33.000Z</time>
      </trkpt>
      <trkpt lat="44.52598" lon="6.80328">
        <ele>1906</ele>
        <time>2020-02-19T13:30:36.000Z</time>
      </trkpt>
      <trkpt lat="44.526" lon="6.8033">
        <ele>1907</ele>
        <time>2020-02-19T13:30:40.000Z</time>
      </trkpt>
      <trkpt lat="44.526" lon="6.80333">
        <ele>1906</ele>
        <time>2020-02-19T13:30:45.000Z</time>
      </trkpt>
      <trkpt lat="44.52598" lon="6.80325">
        <ele>1906</ele>
        <time>2020-02-19T13:30:52.000Z</time>
      </trkpt>
      <trkpt lat="44.52598" lon="6.80321">
        <ele>1907</ele>
        <time>2020-02-19T13:30:55.000Z</time>
      </trkpt>
      <trkpt lat="44.52597" lon="6.80308">
        <ele>1909</ele>
        <time>2020-02-19T13:31:05.000Z</time>
      </trkpt>
      <trkpt lat="44.52596" lon="6.80296">
        <ele>1910</ele>
        <time>2020-02-19T13:31:13.000Z</time>
      </trkpt>
      <trkpt lat="44.52592" lon="6.8028">
        <ele>1909</ele>
        <time>2020-02-19T13:31:23.000Z</time>
      </trkpt>
      <trkpt lat="44.52587" lon="6.80263">
        <ele>1906</ele>
        <time>2020-02-19T13:31:36.000Z</time>
      </trkpt>
      <trkpt lat="44.52584" lon="6.80244">
        <ele>1904</ele>
        <time>2020-02-19T13:31:50.000Z</time>
      </trkpt>
      <trkpt lat="44.52579" lon="6.80233">
        <ele>1898</ele>
        <time>2020-02-19T13:31:58.000Z</time>
      </trkpt>
      <trkpt lat="44.52573" lon="6.80218">
        <ele>1897</ele>
        <time>2020-02-19T13:32:09.000Z</time>
      </trkpt>
      <trkpt lat="44.52564" lon="6.80192">
        <ele>1898</ele>
        <time>2020-02-19T13:32:30.000Z</time>
      </trkpt>
      <trkpt lat="44.52563" lon="6.80182">
        <ele>1898</ele>
        <time>2020-02-19T13:32:37.000Z</time>
      </trkpt>
      <trkpt lat="44.52558" lon="6.8017">
        <ele>1898</ele>
        <time>2020-02-19T13:32:47.000Z</time>
      </trkpt>
      <trkpt lat="44.52557" lon="6.80163">
        <ele>1897</ele>
        <time>2020-02-19T13:32:52.000Z</time>
      </trkpt>
      <trkpt lat="44.52555" lon="6.80154">
        <ele>1896</ele>
        <time>2020-02-19T13:32:57.000Z</time>
      </trkpt>
      <trkpt lat="44.52554" lon="6.80142">
        <ele>1895</ele>
        <time>2020-02-19T13:33:05.000Z</time>
      </trkpt>
      <trkpt lat="44.52557" lon="6.80136">
        <ele>1895</ele>
        <time>2020-02-19T13:33:11.000Z</time>
      </trkpt>
      <trkpt lat="44.52555" lon="6.80129">
        <ele>1895</ele>
        <time>2020-02-19T13:33:15.000Z</time>
      </trkpt>
      <trkpt lat="44.52555" lon="6.80123">
        <ele>1895</ele>
        <time>2020-02-19T13:33:20.000Z</time>
      </trkpt>
      <trkpt lat="44.52553" lon="6.80118">
        <ele>1895</ele>
        <time>2020-02-19T13:33:24.000Z</time>
      </trkpt>
      <trkpt lat="44.52553" lon="6.80114">
        <ele>1895</ele>
        <time>2020-02-19T13:33:29.000Z</time>
      </trkpt>
      <trkpt lat="44.52551" lon="6.80107">
        <ele>1894</ele>
        <time>2020-02-19T13:33:33.000Z</time>
      </trkpt>
      <trkpt lat="44.5255" lon="6.80093">
        <ele>1894</ele>
        <time>2020-02-19T13:33:43.000Z</time>
      </trkpt>
      <trkpt lat="44.5255" lon="6.80088">
        <ele>1894</ele>
        <time>2020-02-19T13:33:46.000Z</time>
      </trkpt>
      <trkpt lat="44.52551" lon="6.80058">
        <ele>1893</ele>
        <time>2020-02-19T13:34:04.000Z</time>
      </trkpt>
      <trkpt lat="44.52553" lon="6.8004">
        <ele>1893</ele>
        <time>2020-02-19T13:34:16.000Z</time>
      </trkpt>
      <trkpt lat="44.52552" lon="6.80025">
        <ele>1893</ele>
        <time>2020-02-19T13:34:23.000Z</time>
      </trkpt>
      <trkpt lat="44.52552" lon="6.80019">
        <ele>1893</ele>
        <time>2020-02-19T13:34:27.000Z</time>
      </trkpt>
      <trkpt lat="44.52551" lon="6.80016">
        <ele>1893</ele>
        <time>2020-02-19T13:34:29.000Z</time>
      </trkpt>
      <trkpt lat="44.52547" lon="6.80008">
        <ele>1892</ele>
        <time>2020-02-19T13:34:35.000Z</time>
      </trkpt>
      <trkpt lat="44.52546" lon="6.80006">
        <ele>1892</ele>
        <time>2020-02-19T13:34:37.000Z</time>
      </trkpt>
      <trkpt lat="44.52538" lon="6.79978">
        <ele>1893</ele>
        <time>2020-02-19T13:34:56.000Z</time>
      </trkpt>
      <trkpt lat="44.52534" lon="6.79958">
        <ele>1893</ele>
        <time>2020-02-19T13:35:08.000Z</time>
      </trkpt>
      <trkpt lat="44.52529" lon="6.79929">
        <ele>1893</ele>
        <time>2020-02-19T13:35:30.000Z</time>
      </trkpt>
      <trkpt lat="44.52528" lon="6.79921">
        <ele>1892</ele>
        <time>2020-02-19T13:35:36.000Z</time>
      </trkpt>
      <trkpt lat="44.52523" lon="6.79896">
        <ele>1894</ele>
        <time>2020-02-19T13:35:51.000Z</time>
      </trkpt>
      <trkpt lat="44.52519" lon="6.79879">
        <ele>1894</ele>
        <time>2020-02-19T13:36:02.000Z</time>
      </trkpt>
      <trkpt lat="44.52513" lon="6.79865">
        <ele>1892</ele>
        <time>2020-02-19T13:36:13.000Z</time>
      </trkpt>
      <trkpt lat="44.5251" lon="6.79855">
        <ele>1890</ele>
        <time>2020-02-19T13:36:20.000Z</time>
      </trkpt>
      <trkpt lat="44.52502" lon="6.79821">
        <ele>1886</ele>
        <time>2020-02-19T13:36:39.000Z</time>
      </trkpt>
      <trkpt lat="44.525" lon="6.798">
        <ele>1870</ele>
        <time>2020-02-19T13:36:52.000Z</time>
      </trkpt>
      <trkpt lat="44.525" lon="6.79797">
        <ele>1890</ele>
        <time>2020-02-19T13:36:54.000Z</time>
      </trkpt>
      <trkpt lat="44.52498" lon="6.79783">
        <ele>1869</ele>
        <time>2020-02-19T13:37:04.000Z</time>
      </trkpt>
      <trkpt lat="44.52494" lon="6.79764">
        <ele>1871</ele>
        <time>2020-02-19T13:37:17.000Z</time>
      </trkpt>
      <trkpt lat="44.52489" lon="6.7975">
        <ele>1871</ele>
        <time>2020-02-19T13:37:27.000Z</time>
      </trkpt>
      <trkpt lat="44.52484" lon="6.7974">
        <ele>1868</ele>
        <time>2020-02-19T13:37:34.000Z</time>
      </trkpt>
      <trkpt lat="44.52481" lon="6.79732">
        <ele>1866</ele>
        <time>2020-02-19T13:37:40.000Z</time>
      </trkpt>
      <trkpt lat="44.52474" lon="6.79711">
        <ele>1864</ele>
        <time>2020-02-19T13:37:53.000Z</time>
      </trkpt>
      <trkpt lat="44.5247" lon="6.79699">
        <ele>1864</ele>
        <time>2020-02-19T13:38:01.000Z</time>
      </trkpt>
    </trkseg>
  </trk>
</gpx>